Darstellungsparameter: Aktuell verwendete Einstellungen:
Skalierung der Graphiken ... ?
xyx+y,   Skalierungsfaktor:      Skalierung: Modus: x, Faktor: 1
Darstellungszeitraum ... ?
Vom - - bis: - -   Zeitraum: 31.03.2020 - 28.04.2020
Min/Max/Avg-Anzeige ... ?
Zeige MMA aktuell
Zeige MMA Monat
Zeige MMA alles
Zeige --A aktuell
Zeige --A Monat
Zeige --A alles
Keine MMA-Anzeige
MMA:
Keine MMA-Graphiken
MMA-Basis: 31.03.2020 - 28.04.2020
Quicknavigation für Darstellung... ?
Tage:      1T, 2T, 3T, 5T -1T -2T -3T -5T +1T +2T +3T +5T
Wochen: 1W, 2W, 3W -1W -2W -3W +1W +2W +3W
Monate: 1M, 3M, 6M -1M -3M -6M +1M +3M +6M
Jahre:    1J, 3J, 5J, 10J -1J -3J -5J -10J +1J +3J +5J +10J
Nutze für die Darstellung ... ?
Originaldaten oder Mittelwerte auf ...
Stundenbasis Tagesbasis Wochenbasis
Monatsbasis Jahresbasis      Datenbasis: Original-Daten
Darstellen als:
Statistik (Auto) Statistik J:M      Darstellung:
Zur Graphik,    zurück zur Übersicht aller Sensoren.
 
Tabellarische Datenbersicht: ?
 
Sensor: Nr:Datum:Temp:Feuchte:
Aussen-T/F 1 31-03-2020 00:00:18 4.3 C 30 %
2 31-03-2020 00:10:18 4.3 C 30 %
3 31-03-2020 00:20:18 4.2 C 31 %
4 31-03-2020 00:30:18 4.2 C 31 %
5 31-03-2020 00:40:18 4.2 C 31 %
6 31-03-2020 00:50:18 4.3 C 31 %
7 31-03-2020 01:00:18 4.4 C 32 %
8 31-03-2020 01:10:18 4 C 34 %
9 31-03-2020 01:20:18 3.8 C 36 %
10 31-03-2020 01:30:18 3.8 C 36 %
11 31-03-2020 01:40:18 3.7 C 37 %
12 31-03-2020 01:50:18 4 C 37 %
13 31-03-2020 02:00:18 3.9 C 38 %
14 31-03-2020 02:10:18 3.4 C 39 %
15 31-03-2020 02:20:17 3.5 C 39 %
16 31-03-2020 02:30:18 3.7 C 39 %
17 31-03-2020 02:40:18 3.3 C 40 %
18 31-03-2020 02:50:18 2.8 C 41 %
19 31-03-2020 03:00:18 2.5 C 41 %
20 31-03-2020 03:10:18 2.2 C 42 %
21 31-03-2020 03:20:17 2.4 C 42 %
22 31-03-2020 03:30:18 2.3 C 42 %
23 31-03-2020 03:40:18 2.3 C 43 %
24 31-03-2020 03:50:18 2.7 C 43 %
25 31-03-2020 04:00:18 2.9 C 42 %
Sensor: Nr:Datum:Temp:Feuchte:
Aussen-T/F 26 31-03-2020 04:10:18 3 C 42 %
27 31-03-2020 04:20:18 3.1 C 42 %
28 31-03-2020 04:30:17 3.2 C 42 %
29 31-03-2020 04:40:18 3.2 C 41 %
30 31-03-2020 04:50:17 3.5 C 41 %
31 31-03-2020 05:00:18 3.4 C 41 %
32 31-03-2020 05:10:18 3 C 41 %
33 31-03-2020 05:20:17 2.8 C 43 %
34 31-03-2020 05:30:18 2.5 C 43 %
35 31-03-2020 05:40:18 2.3 C 43 %
36 31-03-2020 05:50:18 1.9 C 44 %
37 31-03-2020 06:00:18 1.7 C 44 %
38 31-03-2020 06:10:18 1.6 C 45 %
39 31-03-2020 06:20:18 1.5 C 45 %
40 31-03-2020 06:30:18 1.7 C 45 %
41 31-03-2020 06:40:18 2 C 45 %
42 31-03-2020 06:50:18 2.1 C 45 %
43 31-03-2020 07:00:18 2.2 C 45 %
44 31-03-2020 07:10:18 2.3 C 45 %
45 31-03-2020 07:20:18 2.2 C 44 %
46 31-03-2020 07:30:18 2.1 C 44 %
47 31-03-2020 07:40:18 1.7 C 45 %
48 31-03-2020 07:50:17 2 C 45 %
49 31-03-2020 08:00:18 2.5 C 45 %
50 31-03-2020 08:10:18 3.1 C 43 %
Sensor: Nr:Datum:Temp:Feuchte:
Aussen-T/F 51 31-03-2020 08:20:18 3.3 C 42 %
52 31-03-2020 08:30:18 3.5 C 41 %
53 31-03-2020 08:40:18 3.7 C 40 %
54 31-03-2020 08:50:17 4 C 38 %
55 31-03-2020 09:00:18 3.9 C 38 %
56 31-03-2020 09:10:18 3.9 C 37 %
57 31-03-2020 09:20:18 4 C 36 %
58 31-03-2020 09:30:17 4 C 36 %
59 31-03-2020 09:40:17 4.1 C 35 %
60 31-03-2020 09:50:18 4.3 C 35 %
61 31-03-2020 10:00:18 4.8 C 34 %
62 31-03-2020 10:10:18 4.7 C 34 %
63 31-03-2020 10:20:18 4.5 C 34 %
64 31-03-2020 10:30:18 4.4 C 34 %
65 31-03-2020 10:40:18 4.3 C 34 %
66 31-03-2020 10:50:17 4.3 C 33 %
67 31-03-2020 11:00:17 4.3 C 33 %
68 31-03-2020 11:10:17 4.4 C 32 %
69 31-03-2020 11:20:18 4.7 C 31 %
70 31-03-2020 11:30:18 5.4 C 30 %
71 31-03-2020 11:40:18 5.3 C 30 %
72 31-03-2020 11:50:17 5.3 C 29 %
73 31-03-2020 12:00:18 5.6 C 27 %
74 31-03-2020 12:10:18 6.3 C 25 %
75 31-03-2020 12:20:17 6.4 C 20 %
Sensor: Nr:Datum:Temp:Feuchte:
Aussen-T/F 76 31-03-2020 12:30:18 9.2 C 20 %
77 31-03-2020 12:40:18 8.4 C 20 %
78 31-03-2020 12:50:18 7 C 20 %
79 31-03-2020 13:00:17 7.5 C 20 %
80 31-03-2020 13:10:17 7.1 C 20 %
81 31-03-2020 13:20:17 7.3 C 20 %
82 31-03-2020 13:30:17 7 C 20 %
83 31-03-2020 13:40:17 8.1 C 20 %
84 31-03-2020 13:51:17 8.4 C 20 %
85 31-03-2020 14:00:17 8.5 C 20 %
86 31-03-2020 14:10:17 9.7 C 20 %
87 31-03-2020 14:20:17 11.2 C 20 %
88 31-03-2020 14:30:17 12.6 C 20 %
89 31-03-2020 14:40:17 11.7 C 20 %
90 31-03-2020 14:51:17 12 C 20 %
91 31-03-2020 15:00:17 12 C 20 %
92 31-03-2020 15:10:18 13.1 C 20 %
93 31-03-2020 15:20:17 13.2 C 20 %
94 31-03-2020 15:30:17 13.5 C 20 %
95 31-03-2020 15:40:17 14.6 C 20 %
96 31-03-2020 15:50:18 13.9 C 20 %
97 31-03-2020 16:00:17 16.8 C 20 %
98 31-03-2020 16:10:17 14.8 C 20 %
99 31-03-2020 16:20:17 15.8 C 20 %
100 31-03-2020 16:31:17 15.1 C 20 %
Sensor: Nr:Datum:Temp:Feuchte:
Aussen-T/F 101 31-03-2020 16:40:17 14 C 20 %
102 31-03-2020 16:50:17 13.3 C 20 %
103 31-03-2020 17:00:17 14.4 C 20 %
104 31-03-2020 17:10:17 16.2 C 20 %
105 31-03-2020 17:21:17 15.3 C 20 %
106 31-03-2020 17:31:17 14.7 C 20 %
107 31-03-2020 17:40:17 15.5 C 20 %
108 31-03-2020 17:51:17 10.6 C 20 %
109 31-03-2020 18:01:17 10.5 C 20 %
110 31-03-2020 18:11:17 10.2 C 20 %
111 31-03-2020 18:21:17 9.8 C 20 %
112 31-03-2020 18:31:17 9.6 C 20 %
113 31-03-2020 18:40:17 9.4 C 20 %
114 31-03-2020 18:51:17 9.1 C 20 %
115 31-03-2020 19:00:17 9.1 C 20 %
116 31-03-2020 19:10:17 8.8 C 20 %
117 31-03-2020 19:20:17 8.7 C 20 %
118 31-03-2020 19:31:17 8.2 C 20 %
119 31-03-2020 19:41:17 7.7 C 20 %
120 31-03-2020 19:50:17 6.6 C 20 %
121 31-03-2020 20:01:17 5.6 C 20 %
122 31-03-2020 20:11:17 5.5 C 20 %
123 31-03-2020 20:21:17 5.3 C 20 %
124 31-03-2020 20:31:17 4.7 C 20 %
125 31-03-2020 20:41:17 4.4 C 20 %
Sensor: Nr:Datum:Temp:Feuchte:
Aussen-T/F 126 31-03-2020 20:51:17 4 C 20 %
127 31-03-2020 21:00:17 3.7 C 20 %
128 31-03-2020 21:10:18 3.9 C 20 %
129 31-03-2020 21:21:17 3.7 C 20 %
130 31-03-2020 21:31:17 3.5 C 20 %
131 31-03-2020 21:41:17 3.2 C 23 %
132 31-03-2020 21:51:17 3.2 C 23 %
133 31-03-2020 22:00:18 3 C 23 %
134 31-03-2020 22:10:18 2.7 C 25 %
135 31-03-2020 22:21:17 2.7 C 25 %
136 31-03-2020 22:31:17 2.6 C 25 %
137 31-03-2020 22:41:17 1.8 C 30 %
138 31-03-2020 22:50:18 1.6 C 30 %
139 31-03-2020 23:01:17 1.6 C 30 %
140 31-03-2020 23:11:17 1.7 C 30 %
141 31-03-2020 23:21:17 1.4 C 31 %
142 31-03-2020 23:30:17 1.3 C 31 %
143 31-03-2020 23:40:18 1.6 C 31 %
144 31-03-2020 23:51:17 0.9 C 32 %
145 01-04-2020 00:01:17 1.2 C 31 %
146 01-04-2020 00:11:17 0 C 35 %
147 01-04-2020 00:21:17 0.8 C 33 %
148 01-04-2020 00:31:17 0.6 C 32 %
149 01-04-2020 00:41:17 0.5 C 33 %
150 01-04-2020 00:51:17 -0.3 C 35 %
Sensor: Nr:Datum:Temp:Feuchte:
Aussen-T/F 151 01-04-2020 01:01:17 -0.1 C 36 %
152 01-04-2020 01:11:17 -0.3 C 35 %
153 01-04-2020 01:21:17 -1 C 37 %
154 01-04-2020 01:30:18 -1.4 C 38 %
155 01-04-2020 01:40:18 -1.7 C 38 %
156 01-04-2020 01:51:17 -1.9 C 38 %
157 01-04-2020 02:01:17 -1.9 C 38 %
158 01-04-2020 02:11:17 -2 C 38 %
159 01-04-2020 02:21:17 -2.1 C 38 %
160 01-04-2020 02:31:17 -2.3 C 39 %
161 01-04-2020 02:41:17 -2.4 C 38 %
162 01-04-2020 02:50:18 -2.4 C 39 %
163 01-04-2020 03:01:17 -2.5 C 38 %
164 01-04-2020 03:11:17 -2.6 C 38 %
165 01-04-2020 03:21:17 -2.8 C 39 %
166 01-04-2020 03:31:17 -2.7 C 38 %
167 01-04-2020 03:41:18 -3 C 38 %
168 01-04-2020 03:51:17 -3 C 39 %
169 01-04-2020 04:01:17 -2.8 C 39 %
170 01-04-2020 04:11:17 -3.1 C 38 %
171 01-04-2020 04:21:17 -3.2 C 39 %
172 01-04-2020 04:31:18 -3.5 C 38 %
173 01-04-2020 04:41:19 -3.4 C 39 %
174 01-04-2020 04:51:17 -3.5 C 39 %
175 01-04-2020 05:01:18 -3.6 C 39 %
Sensor: Nr:Datum:Temp:Feuchte:
Aussen-T/F 176 01-04-2020 05:11:19 -3.8 C 40 %
177 01-04-2020 05:21:17 -3.8 C 40 %
178 01-04-2020 05:31:18 -3.8 C 40 %
179 01-04-2020 05:41:18 -4 C 40 %
180 01-04-2020 05:51:17 -4.2 C 40 %
181 01-04-2020 06:01:18 -4.2 C 40 %
182 01-04-2020 06:11:18 -4 C 40 %
183 01-04-2020 06:21:17 -4.2 C 40 %
184 01-04-2020 06:31:17 -4.2 C 41 %
185 01-04-2020 06:41:17 -4.3 C 41 %
186 01-04-2020 06:51:17 -4.5 C 41 %
187 01-04-2020 07:01:18 -4.6 C 41 %
188 01-04-2020 07:11:19 -4.7 C 41 %
189 01-04-2020 07:21:17 -4.5 C 41 %
190 01-04-2020 07:31:18 -4.4 C 41 %
191 01-04-2020 07:41:18 -4.5 C 41 %
192 01-04-2020 07:51:17 -4.3 C 41 %
193 01-04-2020 08:01:17 -4.2 C 41 %
194 01-04-2020 08:11:17 -4.2 C 41 %
195 01-04-2020 08:21:17 -3.7 C 41 %
196 01-04-2020 08:31:17 -3.8 C 41 %
197 01-04-2020 08:41:17 -3.7 C 41 %
198 01-04-2020 08:51:17 -3.4 C 40 %
199 01-04-2020 09:01:17 -3.4 C 40 %
200 01-04-2020 09:11:17 -2.7 C 40 %
Sensor: Nr:Datum:Temp:Feuchte:
Aussen-T/F 201 01-04-2020 09:21:17 -2.6 C 40 %
202 01-04-2020 09:31:17 -2.5 C 40 %
203 01-04-2020 09:41:17 -2.1 C 40 %
204 01-04-2020 09:51:17 -1.5 C 39 %
205 01-04-2020 10:01:17 -1 C 39 %
206 01-04-2020 10:11:17 -0.9 C 40 %
207 01-04-2020 10:21:17 -0.4 C 40 %
208 01-04-2020 10:31:18 0.5 C 39 %
209 01-04-2020 10:41:18 1 C 37 %
210 01-04-2020 10:51:17 1.6 C 36 %
211 01-04-2020 11:01:17 2.4 C 35 %
212 01-04-2020 11:11:17 3.2 C 33 %
213 01-04-2020 11:21:17 4.2 C 29 %
214 01-04-2020 11:31:17 4.8 C 20 %
215 01-04-2020 11:41:17 5.3 C 20 %
216 01-04-2020 11:51:17 6 C 20 %
217 01-04-2020 12:01:17 6.6 C 20 %
218 01-04-2020 12:11:18 7.1 C 20 %
219 01-04-2020 12:21:17 8.9 C 20 %
220 01-04-2020 12:31:17 10.3 C 20 %
221 01-04-2020 12:41:17 9.2 C 20 %
222 01-04-2020 12:51:17 8 C 20 %
223 01-04-2020 13:01:17 9.3 C 20 %
224 01-04-2020 13:11:17 9.3 C 20 %
225 01-04-2020 13:21:16 8.6 C 20 %
Sensor: Nr:Datum:Temp:Feuchte:
Aussen-T/F 226 01-04-2020 13:31:17 9.2 C 20 %
227 01-04-2020 13:41:17 9.6 C 20 %
228 01-04-2020 13:51:17 10 C 20 %
229 01-04-2020 14:01:17 10.3 C 20 %
230 01-04-2020 14:11:17 10.7 C 20 %
231 01-04-2020 14:21:17 13.2 C 20 %
232 01-04-2020 14:31:16 15.9 C 20 %
233 01-04-2020 14:41:16 16.3 C 20 %
234 01-04-2020 14:51:17 13.7 C 20 %
235 01-04-2020 15:01:17 14.2 C 20 %
236 01-04-2020 15:11:17 17.2 C 20 %
237 01-04-2020 15:21:17 16.8 C 20 %
238 01-04-2020 15:31:16 16.3 C 20 %
239 01-04-2020 15:41:16 18.2 C 20 %
240 01-04-2020 15:51:17 19.5 C 20 %
241 01-04-2020 16:01:16 18.7 C 20 %
242 01-04-2020 16:11:16 18.7 C 20 %
243 01-04-2020 16:21:16 19.7 C 20 %
244 01-04-2020 16:31:17 21.3 C 20 %
245 01-04-2020 16:41:17 15.5 C 20 %
246 01-04-2020 16:51:16 18.4 C 20 %
247 01-04-2020 17:01:16 17.2 C 20 %
248 01-04-2020 17:11:16 17.4 C 20 %
249 01-04-2020 17:21:17 17.7 C 20 %
250 01-04-2020 17:31:17 18.5 C 20 %
Sensor: Nr:Datum:Temp:Feuchte:
Aussen-T/F 251 01-04-2020 17:41:17 16.8 C 20 %
252 01-04-2020 17:51:17 15.8 C 20 %
253 01-04-2020 18:01:17 12.6 C 20 %
254 01-04-2020 18:11:17 12 C 20 %
255 01-04-2020 18:21:16 12.1 C 20 %
256 01-04-2020 18:31:17 11.7 C 20 %
257 01-04-2020 18:41:17 11.8 C 20 %
258 01-04-2020 18:51:16 11.6 C 20 %
259 01-04-2020 19:01:17 11 C 20 %
260 01-04-2020 19:11:17 10.7 C 20 %
261 01-04-2020 19:21:17 10.4 C 20 %
262 01-04-2020 19:31:17 9.9 C 20 %
263 01-04-2020 19:41:17 9.6 C 20 %
264 01-04-2020 19:51:16 8.9 C 20 %
265 01-04-2020 20:01:17 8.1 C 20 %
266 01-04-2020 20:11:17 7.8 C 20 %
267 01-04-2020 20:21:16 8.1 C 20 %
268 01-04-2020 20:31:16 7.1 C 20 %
269 01-04-2020 20:41:16 6.2 C 20 %
270 01-04-2020 20:51:16 5.9 C 20 %
271 01-04-2020 21:01:16 6 C 20 %
272 01-04-2020 21:11:16 6 C 20 %
273 01-04-2020 21:21:16 5.7 C 20 %
274 01-04-2020 21:31:16 5.7 C 20 %
275 01-04-2020 21:41:16 5.4 C 20 %
Sensor: Nr:Datum:Temp:Feuchte:
Aussen-T/F 276 01-04-2020 21:51:16 4 C 21 %
277 01-04-2020 22:01:16 4.2 C 21 %
278 01-04-2020 22:11:16 3.7 C 26 %
279 01-04-2020 22:21:16 3.2 C 26 %
280 01-04-2020 22:31:16 2.5 C 29 %
281 01-04-2020 22:41:16 2.6 C 28 %
282 01-04-2020 22:51:16 2 C 30 %
283 01-04-2020 23:01:17 1.7 C 33 %
284 01-04-2020 23:11:17 1.7 C 32 %
285 01-04-2020 23:21:16 1.4 C 34 %
286 01-04-2020 23:31:16 1.2 C 34 %
287 01-04-2020 23:41:16 1 C 35 %
288 01-04-2020 23:51:16 1.1 C 34 %
289 02-04-2020 00:01:17 1 C 35 %
290 02-04-2020 00:11:17 0.4 C 36 %
291 02-04-2020 00:21:16 0.4 C 36 %
292 02-04-2020 00:31:17 0.2 C 36 %
293 02-04-2020 00:41:17 0.3 C 37 %
294 02-04-2020 00:51:16 0.3 C 36 %
295 02-04-2020 01:01:17 0 C 37 %
296 02-04-2020 01:11:17 -0.4 C 38 %
297 02-04-2020 01:21:16 -0.6 C 38 %
298 02-04-2020 01:31:17 -0.7 C 38 %
299 02-04-2020 01:41:17 -0.7 C 38 %
300 02-04-2020 01:51:16 -0.9 C 39 %
Sensor: Nr:Datum:Temp:Feuchte:
Aussen-T/F 301 02-04-2020 02:01:16 -1 C 39 %
302 02-04-2020 02:11:16 -1 C 39 %
303 02-04-2020 02:21:16 -1.2 C 39 %
304 02-04-2020 02:31:17 -1.3 C 40 %
305 02-04-2020 02:41:17 -1.6 C 40 %
306 02-04-2020 02:51:17 -1.5 C 40 %
307 02-04-2020 03:01:17 -1.5 C 40 %
308 02-04-2020 03:11:17 -1.5 C 40 %
309 02-04-2020 03:21:17 -1.3 C 40 %
310 02-04-2020 03:31:17 -1.4 C 40 %
311 02-04-2020 03:41:17 -1.6 C 40 %
312 02-04-2020 03:51:18 -1.7 C 40 %
313 02-04-2020 04:01:18 -2.1 C 40 %
314 02-04-2020 04:11:18 -1.7 C 41 %
315 02-04-2020 04:21:18 -1.6 C 40 %
316 02-04-2020 04:31:17 -2 C 40 %
317 02-04-2020 04:41:17 -2.4 C 41 %
318 02-04-2020 04:51:17 -2.7 C 41 %
319 02-04-2020 05:01:18 -2.6 C 41 %
320 02-04-2020 05:11:18 -2.6 C 41 %
321 02-04-2020 05:21:17 -2.6 C 41 %
322 02-04-2020 05:31:18 -2.7 C 41 %
323 02-04-2020 05:41:18 -2.6 C 41 %
324 02-04-2020 05:51:17 -2.5 C 41 %
325 02-04-2020 06:01:17 -2.6 C 41 %
Sensor: Nr:Datum:Temp:Feuchte:
Aussen-T/F 326 02-04-2020 06:11:17 -3 C 41 %
327 02-04-2020 06:21:17 -3 C 42 %
328 02-04-2020 06:31:17 -2.6 C 43 %
329 02-04-2020 06:41:17 -3.1 C 42 %
330 02-04-2020 06:51:17 -2.9 C 42 %
331 02-04-2020 07:01:17 -3.3 C 42 %
332 02-04-2020 07:11:17 -3 C 42 %
333 02-04-2020 07:21:17 -3.1 C 42 %
334 02-04-2020 07:31:17 -3 C 43 %
335 02-04-2020 07:41:18 -2.9 C 42 %
336 02-04-2020 07:51:17 -3 C 43 %
337 02-04-2020 08:01:17 -2.7 C 43 %
338 02-04-2020 08:11:18 -2.5 C 43 %
339 02-04-2020 08:21:17 -2.2 C 42 %
340 02-04-2020 08:31:17 -2.2 C 42 %
341 02-04-2020 08:41:17 -2 C 42 %
342 02-04-2020 08:51:17 -1.8 C 42 %
343 02-04-2020 09:01:17 -1.7 C 42 %
344 02-04-2020 09:11:17 -1.5 C 41 %
345 02-04-2020 09:21:17 -1.3 C 41 %
346 02-04-2020 09:31:17 -1 C 41 %
347 02-04-2020 09:41:17 -0.6 C 41 %
348 02-04-2020 09:51:18 -0.3 C 41 %
349 02-04-2020 10:01:18 0.1 C 41 %
350 02-04-2020 10:11:18 0.6 C 41 %
Sensor: Nr:Datum:Temp:Feuchte:
Aussen-T/F 351 02-04-2020 10:21:17 0.8 C 41 %
352 02-04-2020 10:31:17 1.7 C 40 %
353 02-04-2020 10:41:17 2.2 C 39 %
354 02-04-2020 10:51:17 3.1 C 37 %
355 02-04-2020 11:01:17 3.6 C 37 %
356 02-04-2020 11:11:17 4.6 C 35 %
357 02-04-2020 11:21:17 5.7 C 30 %
358 02-04-2020 11:31:18 6.5 C 30 %
359 02-04-2020 11:41:18 6.9 C 29 %
360 02-04-2020 11:51:17 7.4 C 27 %
361 02-04-2020 12:01:17 8.1 C 27 %
362 02-04-2020 12:11:17 8.5 C 25 %
363 02-04-2020 12:21:17 10.5 C 20 %
364 02-04-2020 12:31:18 12.2 C 20 %
365 02-04-2020 12:41:18 10.8 C 20 %
366 02-04-2020 12:51:17 10.3 C 20 %
367 02-04-2020 13:01:17 11 C 20 %
368 02-04-2020 13:11:18 11.5 C 20 %
369 02-04-2020 13:21:17 11.6 C 20 %
370 02-04-2020 13:31:17 11.4 C 20 %
371 02-04-2020 13:41:17 12.3 C 20 %
372 02-04-2020 13:51:17 12.5 C 20 %
373 02-04-2020 14:01:17 11.8 C 20 %
374 02-04-2020 14:11:17 12.6 C 20 %
375 02-04-2020 14:21:17 15.5 C 20 %
Sensor: Nr:Datum:Temp:Feuchte:
Aussen-T/F 376 02-04-2020 14:31:18 18.1 C 20 %
377 02-04-2020 14:41:18 18.3 C 20 %
378 02-04-2020 14:51:17 18.3 C 20 %
379 02-04-2020 15:01:18 19.7 C 20 %
380 02-04-2020 15:11:18 17.5 C 20 %
381 02-04-2020 15:21:17 19.2 C 20 %
382 02-04-2020 15:31:18 19.8 C 20 %
383 02-04-2020 15:41:18 19.3 C 20 %
384 02-04-2020 15:51:17 19.4 C 20 %
385 02-04-2020 16:01:17 21.3 C 20 %
386 02-04-2020 16:11:17 19.9 C 20 %
387 02-04-2020 16:21:17 16.6 C 20 %
388 02-04-2020 16:31:18 18 C 20 %
389 02-04-2020 16:41:18 17.6 C 20 %
390 02-04-2020 16:51:17 17.8 C 20 %
391 02-04-2020 17:01:17 17.3 C 20 %
392 02-04-2020 17:11:17 16.6 C 20 %
393 02-04-2020 17:21:17 15.8 C 20 %
394 02-04-2020 17:31:18 15.5 C 20 %
395 02-04-2020 17:41:18 14.7 C 20 %
396 02-04-2020 17:51:17 14.8 C 20 %
397 02-04-2020 18:01:17 12.8 C 20 %
398 02-04-2020 18:11:17 12.2 C 20 %
399 02-04-2020 18:21:17 12.3 C 20 %
400 02-04-2020 18:31:17 11.8 C 20 %
Sensor: Nr:Datum:Temp:Feuchte:
Aussen-T/F 401 02-04-2020 18:41:17 11.3 C 20 %
402 02-04-2020 18:51:17 11.1 C 20 %
403 02-04-2020 19:01:17 10.7 C 20 %
404 02-04-2020 19:11:17 10.2 C 20 %
405 02-04-2020 19:21:17 10 C 20 %
406 02-04-2020 19:31:17 9.6 C 20 %
407 02-04-2020 19:41:17 9.5 C 20 %
408 02-04-2020 19:51:17 8.7 C 20 %
409 02-04-2020 20:01:17 8.5 C 20 %
410 02-04-2020 20:11:17 8.5 C 20 %
411 02-04-2020 20:21:17 7.9 C 20 %
412 02-04-2020 20:31:17 7.8 C 20 %
413 02-04-2020 20:41:17 7.2 C 21 %
414 02-04-2020 20:51:17 6.9 C 25 %
415 02-04-2020 21:01:17 6.4 C 26 %
416 02-04-2020 21:11:17 6.3 C 27 %
417 02-04-2020 21:21:17 5.9 C 28 %
418 02-04-2020 21:31:18 5.7 C 29 %
419 02-04-2020 21:41:18 5.6 C 30 %
420 02-04-2020 21:51:17 5.3 C 30 %
421 02-04-2020 22:01:17 5.2 C 30 %
422 02-04-2020 22:11:17 5.5 C 30 %
423 02-04-2020 22:21:17 5 C 30 %
424 02-04-2020 22:31:18 5.3 C 31 %
425 02-04-2020 22:41:18 5.2 C 31 %
Sensor: Nr:Datum:Temp:Feuchte:
Aussen-T/F 426 02-04-2020 22:51:17 5.1 C 31 %
427 02-04-2020 23:01:17 4.8 C 32 %
428 02-04-2020 23:11:17 5 C 31 %
429 02-04-2020 23:21:17 5 C 31 %
430 02-04-2020 23:31:18 4.7 C 33 %
431 02-04-2020 23:41:18 3.9 C 35 %
432 02-04-2020 23:51:17 3.1 C 36 %
433 03-04-2020 00:01:18 2.7 C 38 %
434 03-04-2020 00:11:18 2.3 C 39 %
435 03-04-2020 00:21:17 2.6 C 40 %
436 03-04-2020 00:31:17 2.6 C 39 %
437 03-04-2020 00:41:17 3.2 C 38 %
438 03-04-2020 00:51:17 2.4 C 39 %
439 03-04-2020 01:01:18 2.4 C 39 %
440 03-04-2020 01:11:18 2.4 C 39 %
441 03-04-2020 01:21:17 2.6 C 39 %
442 03-04-2020 01:31:18 2.7 C 39 %
443 03-04-2020 01:41:18 2.5 C 39 %
444 03-04-2020 01:51:17 2.3 C 39 %
445 03-04-2020 02:01:18 2.2 C 39 %
446 03-04-2020 02:11:18 2.3 C 39 %
447 03-04-2020 02:21:18 3.1 C 38 %
448 03-04-2020 02:31:18 3.2 C 38 %
449 03-04-2020 02:41:18 2.6 C 39 %
450 03-04-2020 02:51:17 2.8 C 39 %
Sensor: Nr:Datum:Temp:Feuchte:
Aussen-T/F 451 03-04-2020 03:01:18 3 C 38 %
452 03-04-2020 03:11:18 3.6 C 38 %
453 03-04-2020 03:21:17 3.9 C 38 %
454 03-04-2020 03:31:17 4.4 C 36 %
455 03-04-2020 03:41:17 4.7 C 36 %
456 03-04-2020 03:51:17 4.6 C 36 %
457 03-04-2020 04:01:17 5 C 35 %
458 03-04-2020 04:11:17 5.6 C 35 %
459 03-04-2020 04:21:17 4.9 C 35 %
460 03-04-2020 04:31:18 4.7 C 36 %
461 03-04-2020 04:41:18 4.6 C 36 %
462 03-04-2020 04:51:18 4.4 C 36 %
463 03-04-2020 05:01:18 4.3 C 36 %
464 03-04-2020 05:11:18 4.5 C 36 %
465 03-04-2020 05:21:17 4.8 C 36 %
466 03-04-2020 05:31:17 4.8 C 36 %
467 03-04-2020 05:41:17 5.2 C 35 %
468 03-04-2020 05:51:17 5.3 C 35 %
469 03-04-2020 06:01:18 5.4 C 35 %
470 03-04-2020 06:11:18 5.4 C 35 %
471 03-04-2020 06:21:17 5.1 C 35 %
472 03-04-2020 06:31:17 5.1 C 36 %
473 03-04-2020 06:41:17 5.1 C 35 %
474 03-04-2020 06:51:17 5.2 C 35 %
475 03-04-2020 07:01:17 5.7 C 35 %
Sensor: Nr:Datum:Temp:Feuchte:
Aussen-T/F 476 03-04-2020 07:11:17 5.6 C 35 %
477 03-04-2020 07:21:18 5.5 C 35 %
478 03-04-2020 07:31:17 5.7 C 35 %
479 03-04-2020 07:41:17 5.6 C 35 %
480 03-04-2020 07:51:17 5.6 C 35 %
481 03-04-2020 08:01:17 5.7 C 35 %
482 03-04-2020 08:11:17 5.9 C 35 %
483 03-04-2020 08:21:18 5.9 C 35 %
484 03-04-2020 08:31:17 5.9 C 35 %
485 03-04-2020 08:41:17 6.1 C 35 %
486 03-04-2020 08:51:18 6.6 C 35 %
487 03-04-2020 09:01:17 7 C 34 %
488 03-04-2020 09:11:17 7.1 C 34 %
489 03-04-2020 09:21:18 7.6 C 34 %
490 03-04-2020 09:31:18 7.7 C 34 %
491 03-04-2020 09:41:18 8 C 33 %
492 03-04-2020 09:51:17 8.4 C 33 %
493 03-04-2020 10:01:18 8.6 C 32 %
494 03-04-2020 10:11:18 8.6 C 32 %
495 03-04-2020 10:21:17 9 C 32 %
496 03-04-2020 10:31:18 9.4 C 32 %
497 03-04-2020 10:41:18 9.2 C 32 %
498 03-04-2020 10:51:17 9.6 C 32 %
499 03-04-2020 11:01:17 10.6 C 31 %
500 03-04-2020 11:11:17 11.2 C 29 %
Sensor: Nr:Datum:Temp:Feuchte:
Aussen-T/F 501 03-04-2020 11:21:17 10.9 C 29 %
502 03-04-2020 11:31:17 11.1 C 28 %
503 03-04-2020 11:41:17 11.5 C 26 %
504 03-04-2020 11:51:17 11.4 C 26 %
505 03-04-2020 12:01:17 11.1 C 26 %
506 03-04-2020 12:11:17 11.2 C 26 %
507 03-04-2020 12:21:17 11.4 C 26 %
508 03-04-2020 12:31:17 11.6 C 25 %
509 03-04-2020 12:41:18 11.1 C 25 %
510 03-04-2020 12:51:17 11.1 C 25 %
511 03-04-2020 13:01:18 11.2 C 25 %
512 03-04-2020 13:11:18 11.7 C 25 %
513 03-04-2020 13:21:17 12.2 C 22 %
514 03-04-2020 13:31:17 11.8 C 22 %
515 03-04-2020 13:41:17 11.8 C 23 %
516 03-04-2020 13:51:17 12.2 C 22 %
517 03-04-2020 14:01:18 12.3 C 20 %
518 03-04-2020 14:11:18 11.6 C 21 %
519 03-04-2020 14:21:17 11.7 C 21 %
520 03-04-2020 14:31:17 11.6 C 21 %
521 03-04-2020 14:41:18 11.4 C 23 %
522 03-04-2020 14:51:17 11.7 C 21 %
523 03-04-2020 15:01:17 11.8 C 20 %
524 03-04-2020 15:11:17 11.7 C 20 %
525 03-04-2020 15:21:18 11.8 C 20 %
Sensor: Nr:Datum:Temp:Feuchte:
Aussen-T/F 526 03-04-2020 15:31:17 12.1 C 20 %
527 03-04-2020 15:41:17 12.5 C 20 %
528 03-04-2020 15:51:17 13.1 C 20 %
529 03-04-2020 16:01:17 12.6 C 20 %
530 03-04-2020 16:11:17 12.4 C 20 %
531 03-04-2020 16:21:17 12.4 C 20 %
532 03-04-2020 16:31:17 12.3 C 20 %
533 03-04-2020 16:41:17 12.4 C 20 %
534 03-04-2020 16:51:17 12.4 C 20 %
535 03-04-2020 17:01:17 12.2 C 20 %
536 03-04-2020 17:11:17 12.2 C 20 %
537 03-04-2020 17:21:17 12.2 C 20 %
538 03-04-2020 17:31:17 12.2 C 20 %
539 03-04-2020 17:41:17 12.4 C 20 %
540 03-04-2020 17:51:17 11.9 C 20 %
541 03-04-2020 18:01:17 11.5 C 20 %
542 03-04-2020 18:11:17 11.7 C 20 %
543 03-04-2020 18:21:17 11.5 C 20 %
544 03-04-2020 18:31:18 11.4 C 20 %
545 03-04-2020 18:41:18 11 C 20 %
546 03-04-2020 18:51:17 11 C 20 %
547 03-04-2020 19:01:18 10.8 C 20 %
548 03-04-2020 19:11:18 10.7 C 20 %
549 03-04-2020 19:21:17 10.5 C 20 %
550 03-04-2020 19:31:17 10.2 C 20 %
Sensor: Nr:Datum:Temp:Feuchte:
Aussen-T/F 551 03-04-2020 19:41:17 10.3 C 20 %
552 03-04-2020 19:51:17 9.9 C 20 %
553 03-04-2020 20:01:17 9.8 C 20 %
554 03-04-2020 20:11:17 9.5 C 20 %
555 03-04-2020 20:21:17 9.1 C 20 %
556 03-04-2020 20:31:18 9.5 C 20 %
557 03-04-2020 20:41:18 9.2 C 20 %
558 03-04-2020 20:51:18 9.1 C 20 %
559 03-04-2020 21:01:17 9.2 C 20 %
560 03-04-2020 21:11:17 9.1 C 20 %
561 03-04-2020 21:21:17 8.9 C 20 %
562 03-04-2020 21:31:17 8.7 C 20 %
563 03-04-2020 21:41:17 8.6 C 20 %
564 03-04-2020 21:51:17 8.3 C 20 %
565 03-04-2020 22:01:17 8.1 C 20 %
566 03-04-2020 22:11:17 7.9 C 20 %
567 03-04-2020 22:21:17 7.2 C 23 %
568 03-04-2020 22:31:18 6.8 C 25 %
569 03-04-2020 22:41:18 6.5 C 26 %
570 03-04-2020 22:51:17 6.3 C 26 %
571 03-04-2020 23:01:17 6.4 C 26 %
572 03-04-2020 23:11:18 6.4 C 25 %
573 03-04-2020 23:21:18 6.2 C 26 %
574 03-04-2020 23:31:17 5.2 C 28 %
575 03-04-2020 23:41:18 5 C 29 %
Sensor: Nr:Datum:Temp:Feuchte:
Aussen-T/F 576 03-04-2020 23:51:17 4.7 C 30 %
577 04-04-2020 00:01:17 4.8 C 30 %
578 04-04-2020 00:11:18 4.8 C 30 %
579 04-04-2020 00:21:17 4.7 C 30 %
580 04-04-2020 00:31:17 5.2 C 28 %
581 04-04-2020 00:41:17 4.5 C 29 %
582 04-04-2020 00:51:17 4 C 30 %
583 04-04-2020 01:01:17 4.6 C 30 %
584 04-04-2020 01:11:17 4.3 C 30 %
585 04-04-2020 01:21:18 3.9 C 31 %
586 04-04-2020 01:31:17 4 C 32 %
587 04-04-2020 01:41:17 3.1 C 35 %
588 04-04-2020 01:51:17 2.2 C 37 %
589 04-04-2020 02:01:18 1.7 C 39 %
590 04-04-2020 02:11:18 1.4 C 40 %
591 04-04-2020 02:21:17 1.2 C 40 %
592 04-04-2020 02:31:17 0.9 C 41 %
593 04-04-2020 02:41:17 0.8 C 41 %
594 04-04-2020 02:51:17 0.8 C 42 %
595 04-04-2020 03:01:18 0.6 C 42 %
596 04-04-2020 03:11:18 0.4 C 42 %
597 04-04-2020 03:21:17 0.3 C 43 %
598 04-04-2020 03:31:18 0.6 C 43 %
599 04-04-2020 03:41:18 0.5 C 42 %
600 04-04-2020 03:51:17 -0.1 C 43 %
Sensor: Nr:Datum:Temp:Feuchte:
Aussen-T/F 601 04-04-2020 04:01:17 -0.4 C 43 %
602 04-04-2020 04:11:17 -0.6 C 43 %
603 04-04-2020 04:21:17 -0.7 C 44 %
604 04-04-2020 04:31:17 -0.6 C 44 %
605 04-04-2020 04:41:17 -0.9 C 44 %
606 04-04-2020 04:51:17 -0.9 C 45 %
607 04-04-2020 05:01:18 -0.9 C 45 %
608 04-04-2020 05:11:18 -1.2 C 45 %
609 04-04-2020 05:21:18 -1.2 C 45 %
610 04-04-2020 05:31:17 -1 C 45 %
611 04-04-2020 05:41:17 -1.2 C 45 %
612 04-04-2020 05:51:17 -1.2 C 45 %
613 04-04-2020 06:01:18 -1.5 C 45 %
614 04-04-2020 06:11:18 -1.5 C 45 %
615 04-04-2020 06:21:17 -1.5 C 45 %
616 04-04-2020 06:31:17 -1.8 C 45 %
617 04-04-2020 06:41:17 -1.4 C 46 %
618 04-04-2020 06:51:17 -1.5 C 45 %
619 04-04-2020 07:01:18 -1.6 C 45 %
620 04-04-2020 07:11:18 -1.8 C 45 %
621 04-04-2020 07:21:17 -1.5 C 46 %
622 04-04-2020 07:31:18 -1.8 C 45 %
623 04-04-2020 07:41:18 -1.7 C 46 %
624 04-04-2020 07:51:17 -1.8 C 45 %
625 04-04-2020 08:01:17 -1.8 C 46 %
Sensor: Nr:Datum:Temp:Feuchte:
Aussen-T/F 626 04-04-2020 08:11:18 -1.7 C 46 %
627 04-04-2020 08:21:17 -1.5 C 46 %
628 04-04-2020 08:31:17 -1.1 C 46 %
629 04-04-2020 08:41:18 -1 C 46 %
630 04-04-2020 08:51:17 -0.7 C 45 %
631 04-04-2020 09:01:17 -0.3 C 45 %
632 04-04-2020 09:11:17 0 C 45 %
633 04-04-2020 09:21:17 -0.2 C 45 %
634 04-04-2020 09:31:18 0.2 C 45 %
635 04-04-2020 09:41:18 0.8 C 44 %
636 04-04-2020 09:51:17 1.1 C 43 %
637 04-04-2020 10:01:17 1.5 C 43 %
638 04-04-2020 10:11:18 1.8 C 43 %
639 04-04-2020 10:21:17 2.2 C 41 %
640 04-04-2020 10:31:17 2.9 C 41 %
641 04-04-2020 10:41:17 3.5 C 40 %
642 04-04-2020 10:51:17 4.5 C 37 %
643 04-04-2020 11:01:17 5.3 C 36 %
644 04-04-2020 11:11:17 6.4 C 35 %
645 04-04-2020 11:21:18 7.1 C 32 %
646 04-04-2020 11:31:18 7.9 C 32 %
647 04-04-2020 11:41:18 8.4 C 29 %
648 04-04-2020 11:51:18 8.7 C 29 %
649 04-04-2020 12:01:18 9.7 C 26 %
650 04-04-2020 12:11:18 9.7 C 26 %
Sensor: Nr:Datum:Temp:Feuchte:
Aussen-T/F 651 04-04-2020 12:21:17 10.6 C 22 %
652 04-04-2020 12:31:17 10.9 C 20 %
653 04-04-2020 12:41:17 11.4 C 20 %
654 04-04-2020 12:51:17 10.8 C 20 %
655 04-04-2020 13:01:17 11.1 C 20 %
656 04-04-2020 13:11:17 12.1 C 20 %
657 04-04-2020 13:21:17 11.6 C 20 %
658 04-04-2020 13:31:17 11.4 C 20 %
659 04-04-2020 13:41:17 12.2 C 20 %
660 04-04-2020 13:51:18 12.5 C 20 %
661 04-04-2020 14:01:17 12.1 C 20 %
662 04-04-2020 14:11:17 13.7 C 20 %
663 04-04-2020 14:21:17 14.6 C 20 %
664 04-04-2020 14:31:17 16.6 C 20 %
665 04-04-2020 14:41:17 17 C 20 %
666 04-04-2020 14:51:17 16.3 C 20 %
667 04-04-2020 15:01:18 18.1 C 20 %
668 04-04-2020 15:11:18 18.9 C 20 %
669 04-04-2020 15:21:17 16.9 C 20 %
670 04-04-2020 15:31:17 19.1 C 20 %
671 04-04-2020 15:41:17 19.8 C 20 %
672 04-04-2020 15:51:17 17.4 C 20 %
673 04-04-2020 16:01:17 19.9 C 20 %
674 04-04-2020 16:11:17 19.3 C 20 %
675 04-04-2020 16:21:17 18.7 C 20 %
Sensor: Nr:Datum:Temp:Feuchte:
Aussen-T/F 676 04-04-2020 16:31:17 19.3 C 20 %
677 04-04-2020 16:41:17 20.5 C 20 %
678 04-04-2020 16:51:17 20.4 C 20 %
679 04-04-2020 17:01:17 20.3 C 20 %
680 04-04-2020 17:11:17 20.1 C 20 %
681 04-04-2020 17:21:17 20.5 C 20 %
682 04-04-2020 17:31:17 19.2 C 20 %
683 04-04-2020 17:41:17 18.7 C 20 %
684 04-04-2020 17:51:18 17.8 C 20 %
685 04-04-2020 18:01:17 16.8 C 20 %
686 04-04-2020 18:11:17 16.2 C 20 %
687 04-04-2020 18:21:17 15.4 C 20 %
688 04-04-2020 18:31:17 15.4 C 20 %
689 04-04-2020 18:41:17 15.6 C 20 %
690 04-04-2020 18:51:17 15.1 C 20 %
691 04-04-2020 19:01:17 14.9 C 20 %
692 04-04-2020 19:11:17 14.4 C 20 %
693 04-04-2020 19:21:17 14 C 20 %
694 04-04-2020 19:31:17 13.9 C 20 %
695 04-04-2020 19:41:17 12.6 C 20 %
696 04-04-2020 19:51:17 11.5 C 20 %
697 04-04-2020 20:01:17 11.3 C 20 %
698 04-04-2020 20:11:17 10.7 C 20 %
699 04-04-2020 20:21:17 10.3 C 21 %
700 04-04-2020 20:31:17 9.8 C 25 %
Sensor: Nr:Datum:Temp:Feuchte:
Aussen-T/F 701 04-04-2020 20:41:17 9.5 C 23 %
702 04-04-2020 20:51:17 9.2 C 25 %
703 04-04-2020 21:01:17 9.2 C 21 %
704 04-04-2020 21:11:17 8.7 C 25 %
705 04-04-2020 21:21:17 8.8 C 25 %
706 04-04-2020 21:31:17 8.5 C 25 %
707 04-04-2020 21:41:17 8.2 C 25 %
708 04-04-2020 21:51:17 7.1 C 28 %
709 04-04-2020 22:01:18 5.8 C 31 %
710 04-04-2020 22:11:18 5.5 C 32 %
711 04-04-2020 22:21:18 5.1 C 32 %
712 04-04-2020 22:31:17 4.8 C 35 %
713 04-04-2020 22:41:17 4.7 C 34 %
714 04-04-2020 22:51:17 4.6 C 34 %
715 04-04-2020 23:01:17 4.4 C 34 %
716 04-04-2020 23:11:17 4.1 C 34 %
717 04-04-2020 23:21:17 3.9 C 35 %
718 04-04-2020 23:31:17 3.6 C 36 %
719 04-04-2020 23:41:17 3.5 C 36 %
720 04-04-2020 23:51:17 3.4 C 37 %
721 05-04-2020 00:01:17 3 C 37 %
722 05-04-2020 00:11:17 2.9 C 38 %
723 05-04-2020 00:21:17 2.8 C 39 %
724 05-04-2020 00:31:17 2.5 C 39 %
725 05-04-2020 00:41:17 2.5 C 40 %
Sensor: Nr:Datum:Temp:Feuchte:
Aussen-T/F 726 05-04-2020 00:51:18 2.4 C 40 %
727 05-04-2020 01:01:18 2.3 C 40 %
728 05-04-2020 01:11:18 2.3 C 40 %
729 05-04-2020 01:21:17 2.2 C 40 %
730 05-04-2020 01:31:18 2.1 C 41 %
731 05-04-2020 01:41:18 1.9 C 42 %
732 05-04-2020 01:51:17 1.8 C 42 %
733 05-04-2020 02:01:18 1.6 C 42 %
734 05-04-2020 02:11:18 1.3 C 42 %
735 05-04-2020 02:21:17 1.4 C 43 %
736 05-04-2020 02:31:18 1.4 C 43 %
737 05-04-2020 02:41:18 1.1 C 43 %
738 05-04-2020 02:51:17 1.1 C 43 %
739 05-04-2020 03:01:18 1.3 C 43 %
740 05-04-2020 03:11:18 1.1 C 43 %
741 05-04-2020 03:21:17 1 C 43 %
742 05-04-2020 03:31:17 0.7 C 45 %
743 05-04-2020 03:41:17 0.5 C 45 %
744 05-04-2020 03:51:17 0.7 C 45 %
745 05-04-2020 04:01:17 0.6 C 45 %
746 05-04-2020 04:11:17 0.4 C 45 %
747 05-04-2020 04:21:17 0.4 C 46 %
748 05-04-2020 04:31:17 0.2 C 46 %
749 05-04-2020 04:41:17 0.2 C 46 %
750 05-04-2020 04:51:17 0.2 C 46 %
Sensor: Nr:Datum:Temp:Feuchte:
Aussen-T/F 751 05-04-2020 05:01:17 0 C 46 %
752 05-04-2020 05:11:17 -0.3 C 46 %
753 05-04-2020 05:21:17 -0.2 C 47 %
754 05-04-2020 05:31:17 -0.3 C 46 %
755 05-04-2020 05:41:17 -0.4 C 47 %
756 05-04-2020 05:51:17 -0.5 C 47 %
757 05-04-2020 06:01:17 -0.4 C 47 %
758 05-04-2020 06:11:17 -0.5 C 47 %
759 05-04-2020 06:21:17 -0.6 C 47 %
760 05-04-2020 06:31:18 -0.8 C 48 %
761 05-04-2020 06:41:18 -0.8 C 47 %
762 05-04-2020 06:51:17 -0.8 C 47 %
763 05-04-2020 07:01:18 -0.9 C 47 %
764 05-04-2020 07:11:18 -0.7 C 48 %
765 05-04-2020 07:21:18 -0.6 C 48 %
766 05-04-2020 07:31:17 -0.5 C 48 %
767 05-04-2020 07:41:17 -0.5 C 48 %
768 05-04-2020 07:51:17 -0.4 C 48 %
769 05-04-2020 08:01:17 -0.3 C 48 %
770 05-04-2020 08:11:17 0 C 49 %
771 05-04-2020 08:21:17 0.1 C 48 %
772 05-04-2020 08:31:17 0.4 C 48 %
773 05-04-2020 08:41:17 0.5 C 49 %
774 05-04-2020 08:51:18 0.8 C 49 %
775 05-04-2020 09:01:17 1.1 C 47 %
Sensor: Nr:Datum:Temp:Feuchte:
Aussen-T/F 776 05-04-2020 09:11:17 1.4 C 47 %
777 05-04-2020 09:21:17 1.8 C 47 %
778 05-04-2020 09:31:17 2.4 C 46 %
779 05-04-2020 09:41:17 2.8 C 46 %
780 05-04-2020 09:51:18 3.4 C 44 %
781 05-04-2020 10:01:18 3.9 C 43 %
782 05-04-2020 10:11:18 4.5 C 41 %
783 05-04-2020 10:21:17 5.4 C 40 %
784 05-04-2020 10:31:17 5.9 C 40 %
785 05-04-2020 10:41:17 7 C 38 %
786 05-04-2020 10:51:17 7.9 C 37 %
787 05-04-2020 11:01:17 8.6 C 36 %
788 05-04-2020 11:11:17 10.7 C 32 %
789 05-04-2020 11:21:17 11.2 C 30 %
790 05-04-2020 11:31:17 13.1 C 21 %
791 05-04-2020 11:41:17 13.9 C 20 %
792 05-04-2020 11:51:17 14.8 C 20 %
793 05-04-2020 12:01:17 15.6 C 20 %
794 05-04-2020 12:11:17 15.9 C 20 %
795 05-04-2020 12:21:17 16.7 C 20 %
796 05-04-2020 12:31:18 17.6 C 20 %
797 05-04-2020 12:41:18 17.4 C 20 %
798 05-04-2020 12:51:17 17.4 C 20 %
799 05-04-2020 13:01:17 17.2 C 20 %
800 05-04-2020 13:11:17 18.4 C 20 %
Sensor: Nr:Datum:Temp:Feuchte:
Aussen-T/F 801 05-04-2020 13:21:17 17.5 C 20 %
802 05-04-2020 13:31:17 17.1 C 20 %
803 05-04-2020 13:41:17 17.9 C 20 %
804 05-04-2020 13:51:17 17.7 C 20 %
805 05-04-2020 14:01:17 17.9 C 20 %
806 05-04-2020 14:11:17 19 C 20 %
807 05-04-2020 14:21:17 19.8 C 20 %
808 05-04-2020 14:31:18 21.7 C 20 %
809 05-04-2020 14:41:18 23.4 C 20 %
810 05-04-2020 14:51:18 23.3 C 20 %
811 05-04-2020 15:01:17 24.7 C 20 %
812 05-04-2020 15:11:18 26.9 C 20 %
813 05-04-2020 15:21:17 24.5 C 20 %
814 05-04-2020 15:31:17 24.8 C 20 %
815 05-04-2020 15:41:17 25.1 C 20 %
816 05-04-2020 15:51:18 26.6 C 20 %
817 05-04-2020 16:01:17 25 C 20 %
818 05-04-2020 16:11:17 23.3 C 20 %
819 05-04-2020 16:21:17 25.5 C 20 %
820 05-04-2020 16:31:17 24.8 C 20 %
821 05-04-2020 16:41:17 23.1 C 20 %
822 05-04-2020 16:51:17 23.4 C 20 %
823 05-04-2020 17:01:17 23.5 C 20 %
824 05-04-2020 17:11:17 26.4 C 20 %
825 05-04-2020 17:21:17 25.9 C 20 %
Sensor: Nr:Datum:Temp:Feuchte:
Aussen-T/F 826 05-04-2020 17:31:17 24.4 C 20 %
827 05-04-2020 17:41:17 24.2 C 20 %
828 05-04-2020 17:51:17 23.6 C 20 %
829 05-04-2020 18:01:17 20.8 C 20 %
830 05-04-2020 18:11:17 19.7 C 20 %
831 05-04-2020 18:21:17 20 C 20 %
832 05-04-2020 18:31:17 19.7 C 20 %
833 05-04-2020 18:41:17 19.4 C 20 %
834 05-04-2020 18:51:17 18.9 C 20 %
835 05-04-2020 19:01:17 18.8 C 20 %
836 05-04-2020 19:11:17 18.4 C 20 %
837 05-04-2020 19:21:17 18 C 20 %
838 05-04-2020 19:31:18 17.5 C 20 %
839 05-04-2020 19:41:18 16.3 C 20 %
840 05-04-2020 19:51:17 15 C 20 %
841 05-04-2020 20:01:18 14.3 C 20 %
842 05-04-2020 20:11:18 14.1 C 20 %
843 05-04-2020 20:21:17 13.5 C 20 %
844 05-04-2020 20:31:17 13.3 C 20 %
845 05-04-2020 20:41:17 13 C 20 %
846 05-04-2020 20:51:17 12.7 C 20 %
847 05-04-2020 21:01:18 12.3 C 20 %
848 05-04-2020 21:11:18 12 C 20 %
849 05-04-2020 21:21:17 12.1 C 20 %
850 05-04-2020 21:31:17 11.7 C 20 %
Sensor: Nr:Datum:Temp:Feuchte:
Aussen-T/F 851 05-04-2020 21:41:17 11.5 C 20 %
852 05-04-2020 21:51:17 10.3 C 20 %
853 05-04-2020 22:01:17 10.5 C 20 %
854 05-04-2020 22:11:17 9.2 C 25 %
855 05-04-2020 22:21:17 8.9 C 26 %
856 05-04-2020 22:31:17 8.8 C 26 %
857 05-04-2020 22:41:17 8.4 C 27 %
858 05-04-2020 22:51:17 8.2 C 27 %
859 05-04-2020 23:01:17 8 C 28 %
860 05-04-2020 23:11:17 7.4 C 30 %
861 05-04-2020 23:21:17 7.4 C 29 %
862 05-04-2020 23:31:17 7 C 30 %
863 05-04-2020 23:41:17 6.7 C 31 %
864 05-04-2020 23:51:17 6.3 C 31 %
865 06-04-2020 00:01:17 6.2 C 32 %
866 06-04-2020 00:11:17 6.3 C 32 %
867 06-04-2020 00:21:17 6.3 C 32 %
868 06-04-2020 00:31:18 6 C 32 %
869 06-04-2020 00:41:18 5.6 C 33 %
870 06-04-2020 00:51:17 5.6 C 34 %
871 06-04-2020 01:01:18 5.4 C 35 %
872 06-04-2020 01:11:18 5.3 C 35 %
873 06-04-2020 01:21:17 5.1 C 35 %
874 06-04-2020 01:31:17 4.8 C 36 %
875 06-04-2020 01:41:17 4.7 C 36 %
Sensor: Nr:Datum:Temp:Feuchte:
Aussen-T/F 876 06-04-2020 01:51:17 4.6 C 36 %
877 06-04-2020 02:01:17 4.5 C 37 %
878 06-04-2020 02:11:17 4.1 C 37 %
879 06-04-2020 02:21:17 4.2 C 37 %
880 06-04-2020 02:31:17 4 C 37 %
881 06-04-2020 02:41:17 4.1 C 37 %
882 06-04-2020 02:51:17 3.8 C 38 %
883 06-04-2020 03:01:17 3.9 C 39 %
884 06-04-2020 03:11:17 3.6 C 39 %
885 06-04-2020 03:21:17 3.3 C 39 %
886 06-04-2020 03:31:18 3.3 C 40 %
887 06-04-2020 03:41:18 3.2 C 40 %
888 06-04-2020 03:51:17 3.3 C 40 %
889 06-04-2020 04:01:17 3.2 C 40 %
890 06-04-2020 04:11:17 3.3 C 40 %
891 06-04-2020 04:21:17 3.1 C 40 %
892 06-04-2020 04:31:17 2.8 C 40 %
893 06-04-2020 04:41:17 2.6 C 41 %
894 06-04-2020 04:51:17 2.5 C 41 %
895 06-04-2020 05:01:17 2.4 C 41 %
896 06-04-2020 05:11:17 2.3 C 41 %
897 06-04-2020 05:21:18 2.2 C 41 %
898 06-04-2020 05:31:17 1.9 C 42 %
899 06-04-2020 05:41:17 1.8 C 43 %
900 06-04-2020 05:51:17 1.7 C 43 %
Sensor: Nr:Datum:Temp:Feuchte:
Aussen-T/F 901 06-04-2020 06:01:17 1.6 C 44 %
902 06-04-2020 06:11:17 1.5 C 44 %
903 06-04-2020 06:21:18 1.3 C 45 %
904 06-04-2020 06:31:17 1.2 C 45 %
905 06-04-2020 06:41:18 1.3 C 45 %
906 06-04-2020 06:51:17 1.3 C 45 %
907 06-04-2020 07:01:17 1.4 C 45 %
908 06-04-2020 07:11:17 1.5 C 45 %
909 06-04-2020 07:21:17 1.6 C 45 %
910 06-04-2020 07:31:18 1.5 C 45 %
911 06-04-2020 07:41:18 1.6 C 45 %
912 06-04-2020 07:51:17 2 C 45 %
913 06-04-2020 08:01:17 1.9 C 45 %
914 06-04-2020 08:11:17 2.2 C 44 %
915 06-04-2020 08:21:17 2.5 C 44 %
916 06-04-2020 08:31:17 3 C 42 %
917 06-04-2020 08:41:17 3.2 C 42 %
918 06-04-2020 08:51:17 3.4 C 41 %
919 06-04-2020 09:01:18 3.5 C 41 %
920 06-04-2020 09:11:18 3.4 C 41 %
921 06-04-2020 09:21:17 3.9 C 41 %
922 06-04-2020 09:31:17 4.3 C 40 %
923 06-04-2020 09:41:17 4.8 C 40 %
924 06-04-2020 09:51:18 5.2 C 40 %
925 06-04-2020 10:01:18 6 C 38 %
Sensor: Nr:Datum:Temp:Feuchte:
Aussen-T/F 926 06-04-2020 10:11:18 6.5 C 37 %
927 06-04-2020 10:21:17 7.2 C 36 %
928 06-04-2020 10:31:17 7.9 C 36 %
929 06-04-2020 10:41:17 8.8 C 35 %
930 06-04-2020 10:51:17 9.8 C 34 %
931 06-04-2020 11:01:17 11.1 C 31 %
932 06-04-2020 11:11:18 12.2 C 29 %
933 06-04-2020 11:21:17 13.3 C 26 %
934 06-04-2020 11:31:17 16 C 20 %
935 06-04-2020 11:41:17 17.1 C 20 %
936 06-04-2020 11:51:18 17.6 C 20 %
937 06-04-2020 12:01:18 18.1 C 20 %
938 06-04-2020 12:11:18 18.6 C 20 %
939 06-04-2020 12:21:17 20.3 C 20 %
940 06-04-2020 12:31:17 21 C 20 %
941 06-04-2020 12:41:17 19.4 C 20 %
942 06-04-2020 12:51:17 20.2 C 20 %
943 06-04-2020 13:01:17 20.6 C 20 %
944 06-04-2020 13:11:17 20.8 C 20 %
945 06-04-2020 13:21:17 20.4 C 20 %
946 06-04-2020 13:31:18 20.3 C 20 %
947 06-04-2020 13:41:18 21.2 C 20 %
948 06-04-2020 13:51:17 21.3 C 20 %
949 06-04-2020 14:01:18 22.3 C 20 %
950 06-04-2020 14:11:18 22.3 C 20 %
Sensor: Nr:Datum:Temp:Feuchte:
Aussen-T/F 951 06-04-2020 14:21:17 23.7 C 20 %
952 06-04-2020 14:31:17 26.8 C 20 %
953 06-04-2020 14:41:17 27.4 C 20 %
954 06-04-2020 14:51:18 28.3 C 20 %
955 06-04-2020 15:01:17 28 C 20 %
956 06-04-2020 15:11:17 26.6 C 20 %
957 06-04-2020 15:21:17 27.1 C 20 %
958 06-04-2020 15:31:17 25.8 C 20 %
959 06-04-2020 15:41:17 26.9 C 20 %
960 06-04-2020 15:51:17 27.9 C 20 %
961 06-04-2020 16:01:17 29.7 C 20 %
962 06-04-2020 16:11:17 27.4 C 20 %
963 06-04-2020 16:21:18 27.4 C 20 %
964 06-04-2020 16:31:18 28.3 C 20 %
965 06-04-2020 16:41:18 28.5 C 20 %
966 06-04-2020 16:51:17 27.1 C 20 %
967 06-04-2020 17:01:17 27.6 C 20 %
968 06-04-2020 17:11:17 26 C 20 %
969 06-04-2020 17:21:17 26.7 C 20 %
970 06-04-2020 17:31:17 25.7 C 20 %
971 06-04-2020 17:41:17 25.5 C 20 %
972 06-04-2020 17:51:17 24.2 C 20 %
973 06-04-2020 18:01:17 23.3 C 20 %
974 06-04-2020 18:11:17 23.1 C 20 %
975 06-04-2020 18:21:17 22.6 C 20 %
Sensor: Nr:Datum:Temp:Feuchte:
Aussen-T/F 976 06-04-2020 18:31:18 22.6 C 20 %
977 06-04-2020 18:41:18 22.3 C 20 %
978 06-04-2020 18:51:17 22 C 20 %
979 06-04-2020 19:01:17 21.7 C 20 %
980 06-04-2020 19:11:17 21.1 C 20 %
981 06-04-2020 19:21:17 20.5 C 20 %
982 06-04-2020 19:31:17 20.2 C 20 %
983 06-04-2020 19:41:17 19.1 C 20 %
984 06-04-2020 19:51:17 18.3 C 20 %
985 06-04-2020 20:01:18 16.4 C 20 %
986 06-04-2020 20:11:18 16.3 C 20 %
987 06-04-2020 20:21:17 15.8 C 20 %
988 06-04-2020 20:31:17 15.3 C 20 %
989 06-04-2020 20:41:18 15.1 C 20 %
990 06-04-2020 20:51:17 13.7 C 20 %
991 06-04-2020 21:01:18 13.2 C 20 %
992 06-04-2020 21:11:18 12.9 C 20 %
993 06-04-2020 21:21:17 12 C 20 %
994 06-04-2020 21:31:18 11.8 C 22 %
995 06-04-2020 21:41:18 11.6 C 22 %
996 06-04-2020 21:51:17 11.1 C 22 %
997 06-04-2020 22:01:17 10.8 C 25 %
998 06-04-2020 22:11:17 10.6 C 25 %
999 06-04-2020 22:21:17 10.2 C 25 %
1000 06-04-2020 22:31:17 10 C 26 %
Sensor: Nr:Datum:Temp:Feuchte:
Aussen-T/F 1001 06-04-2020 22:41:17 10 C 26 %
1002 06-04-2020 22:51:17 9.9 C 26 %
1003 06-04-2020 23:01:18 9.8 C 26 %
1004 06-04-2020 23:11:18 9.6 C 26 %
1005 06-04-2020 23:21:17 9.5 C 27 %
1006 06-04-2020 23:31:17 9.4 C 27 %
1007 06-04-2020 23:41:17 9.2 C 27 %
1008 06-04-2020 23:51:17 9.5 C 29 %
1009 07-04-2020 00:01:17 10.2 C 26 %
1010 07-04-2020 00:11:17 9.1 C 29 %
1011 07-04-2020 00:21:18 8.7 C 30 %
1012 07-04-2020 00:31:17 8.8 C 30 %
1013 07-04-2020 00:41:17 9 C 30 %
1014 07-04-2020 00:51:17 8.6 C 30 %
1015 07-04-2020 01:01:17 8.7 C 30 %
1016 07-04-2020 01:11:17 9.1 C 30 %
1017 07-04-2020 01:21:17 9.4 C 30 %
1018 07-04-2020 01:31:17 9.8 C 30 %
1019 07-04-2020 01:41:17 10.1 C 30 %
1020 07-04-2020 01:51:18 10 C 29 %
1021 07-04-2020 02:01:18 9.2 C 30 %
1022 07-04-2020 02:11:18 8.8 C 31 %
1023 07-04-2020 02:21:17 8.2 C 33 %
1024 07-04-2020 02:31:17 7.9 C 34 %
1025 07-04-2020 02:41:17 7.5 C 34 %
Sensor: Nr:Datum:Temp:Feuchte:
Aussen-T/F 1026 07-04-2020 02:51:17 7.2 C 35 %
1027 07-04-2020 03:01:17 7.3 C 35 %
1028 07-04-2020 03:11:17 7.6 C 35 %
1029 07-04-2020 03:21:17 7.9 C 35 %
1030 07-04-2020 03:31:17 8 C 35 %
1031 07-04-2020 03:41:17 7.7 C 36 %
1032 07-04-2020 03:51:17 7.8 C 35 %
1033 07-04-2020 04:01:17 7.8 C 36 %
1034 07-04-2020 04:11:17 7.6 C 36 %
1035 07-04-2020 04:21:17 7.4 C 36 %
1036 07-04-2020 04:31:17 7.2 C 36 %
1037 07-04-2020 04:41:18 6.9 C 37 %
1038 07-04-2020 04:51:17 6.8 C 37 %
1039 07-04-2020 05:01:17 6.3 C 38 %
1040 07-04-2020 05:11:17 6.1 C 38 %
1041 07-04-2020 05:21:18 5.9 C 40 %
1042 07-04-2020 05:31:17 5.8 C 40 %
1043 07-04-2020 05:41:17 5.7 C 40 %
1044 07-04-2020 05:51:17 5.6 C 41 %
1045 07-04-2020 06:01:17 5.6 C 41 %
1046 07-04-2020 06:11:17 5.2 C 40 %
1047 07-04-2020 06:21:17 5.3 C 41 %
1048 07-04-2020 06:31:17 5.2 C 41 %
1049 07-04-2020 06:41:17 5 C 41 %
1050 07-04-2020 06:51:17 4.8 C 42 %
Sensor: Nr:Datum:Temp:Feuchte:
Aussen-T/F 1051 07-04-2020 07:01:18 4.8 C 43 %
1052 07-04-2020 07:11:18 4.7 C 43 %
1053 07-04-2020 07:21:18 4.8 C 44 %
1054 07-04-2020 07:31:17 5 C 43 %
1055 07-04-2020 07:41:18 5.7 C 43 %
1056 07-04-2020 07:51:17 5.8 C 42 %
1057 07-04-2020 08:01:17 5.7 C 41 %
1058 07-04-2020 08:11:18 5.8 C 41 %
1059 07-04-2020 08:21:17 6 C 41 %
1060 07-04-2020 08:31:17 6 C 41 %
1061 07-04-2020 08:41:17 6.3 C 41 %
1062 07-04-2020 08:51:17 6.6 C 41 %
1063 07-04-2020 09:01:17 7.1 C 40 %
1064 07-04-2020 09:11:17 7.3 C 40 %
1065 07-04-2020 09:21:17 7.5 C 40 %
1066 07-04-2020 09:31:17 8 C 39 %
1067 07-04-2020 09:41:18 8.9 C 39 %
1068 07-04-2020 09:51:17 9.3 C 37 %
1069 07-04-2020 10:01:17 9.4 C 38 %
1070 07-04-2020 10:11:18 10 C 37 %
1071 07-04-2020 10:21:17 10.7 C 37 %
1072 07-04-2020 10:31:18 11.4 C 36 %
1073 07-04-2020 10:41:18 12.3 C 35 %
1074 07-04-2020 10:51:17 13.1 C 33 %
1075 07-04-2020 11:01:17 14 C 31 %
Sensor: Nr:Datum:Temp:Feuchte:
Aussen-T/F 1076 07-04-2020 11:11:17 14.6 C 31 %
1077 07-04-2020 11:21:17 15.2 C 30 %
1078 07-04-2020 11:31:17 16 C 28 %
1079 07-04-2020 11:41:17 16.5 C 27 %
1080 07-04-2020 11:51:17 16.9 C 27 %
1081 07-04-2020 12:01:17 17.2 C 26 %
1082 07-04-2020 12:11:17 17.7 C 25 %
1083 07-04-2020 12:21:18 18.7 C 23 %
1084 07-04-2020 12:31:17 20.9 C 21 %
1085 07-04-2020 12:41:17 19.6 C 20 %
1086 07-04-2020 12:51:18 19.6 C 20 %
1087 07-04-2020 13:01:17 20.7 C 20 %
1088 07-04-2020 13:11:17 21.3 C 20 %
1089 07-04-2020 13:21:17 20.8 C 20 %
1090 07-04-2020 13:31:17 19.8 C 20 %
1091 07-04-2020 13:41:17 20.4 C 20 %
1092 07-04-2020 13:51:18 20.6 C 20 %
1093 07-04-2020 14:01:17 21.1 C 20 %
1094 07-04-2020 14:11:17 22 C 20 %
1095 07-04-2020 14:21:17 23.6 C 20 %
1096 07-04-2020 14:31:17 26.2 C 20 %
1097 07-04-2020 14:41:17 22.9 C 20 %
1098 07-04-2020 14:51:17 26.7 C 20 %
1099 07-04-2020 15:01:17 26.4 C 20 %
1100 07-04-2020 15:11:17 27.1 C 20 %
Sensor: Nr:Datum:Temp:Feuchte:
Aussen-T/F 1101 07-04-2020 15:21:17 30.1 C 20 %
1102 07-04-2020 15:31:17 28.4 C 20 %
1103 07-04-2020 15:41:18 27.2 C 20 %
1104 07-04-2020 15:51:17 26.6 C 20 %
1105 07-04-2020 16:01:17 27.4 C 20 %
1106 07-04-2020 16:11:17 25.1 C 20 %
1107 07-04-2020 16:21:17 27.8 C 20 %
1108 07-04-2020 16:31:17 23.9 C 20 %
1109 07-04-2020 16:41:18 24.3 C 20 %
1110 07-04-2020 16:51:18 29.2 C 20 %
1111 07-04-2020 17:01:17 31 C 20 %
1112 07-04-2020 17:11:17 25 C 20 %
1113 07-04-2020 17:21:17 24.2 C 20 %
1114 07-04-2020 17:31:18 24.2 C 20 %
1115 07-04-2020 17:41:18 26.9 C 20 %
1116 07-04-2020 17:51:18 24.6 C 20 %
1117 07-04-2020 18:01:17 23.7 C 20 %
1118 07-04-2020 18:11:17 23.7 C 20 %
1119 07-04-2020 18:21:17 22.9 C 20 %
1120 07-04-2020 18:31:17 22.7 C 20 %
1121 07-04-2020 18:41:17 22.3 C 20 %
1122 07-04-2020 18:51:17 22 C 20 %
1123 07-04-2020 19:01:17 21.8 C 20 %
1124 07-04-2020 19:11:18 21 C 20 %
1125 07-04-2020 19:21:17 20 C 20 %
Sensor: Nr:Datum:Temp:Feuchte:
Aussen-T/F 1126 07-04-2020 19:31:17 19.1 C 20 %
1127 07-04-2020 19:41:17 18.4 C 20 %
1128 07-04-2020 19:51:17 18.3 C 20 %
1129 07-04-2020 20:01:18 17.6 C 20 %
1130 07-04-2020 20:11:18 17.3 C 20 %
1131 07-04-2020 20:21:17 17.1 C 20 %
1132 07-04-2020 20:31:17 16.8 C 20 %
1133 07-04-2020 20:41:17 16.5 C 20 %
1134 07-04-2020 20:51:17 16.3 C 20 %
1135 07-04-2020 21:01:17 16.1 C 20 %
1136 07-04-2020 21:11:17 15.9 C 20 %
1137 07-04-2020 21:21:18 15.8 C 20 %
1138 07-04-2020 21:31:17 15.4 C 21 %
1139 07-04-2020 21:41:17 15.2 C 21 %
1140 07-04-2020 21:51:17 15.1 C 22 %
1141 07-04-2020 22:01:18 14.6 C 25 %
1142 07-04-2020 22:11:18 13.1 C 27 %
1143 07-04-2020 22:21:17 12.9 C 29 %
1144 07-04-2020 22:31:17 12.7 C 30 %
1145 07-04-2020 22:41:17 12.7 C 30 %
1146 07-04-2020 22:51:18 12.7 C 30 %
1147 07-04-2020 23:01:18 12.7 C 30 %
1148 07-04-2020 23:11:18 12.6 C 30 %
1149 07-04-2020 23:21:17 13.1 C 29 %
1150 07-04-2020 23:31:17 12.8 C 30 %
Sensor: Nr:Datum:Temp:Feuchte:
Aussen-T/F 1151 07-04-2020 23:41:17 12.8 C 30 %
1152 07-04-2020 23:51:17 12.3 C 31 %
1153 08-04-2020 00:01:17 11.7 C 33 %
1154 08-04-2020 00:11:17 11.7 C 33 %
1155 08-04-2020 00:21:17 11.5 C 33 %
1156 08-04-2020 00:31:17 11.5 C 33 %
1157 08-04-2020 00:41:17 11.2 C 34 %
1158 08-04-2020 00:51:18 10.8 C 35 %
1159 08-04-2020 01:01:17 10.8 C 36 %
1160 08-04-2020 01:11:17 10.9 C 35 %
1161 08-04-2020 01:21:17 10.4 C 36 %
1162 08-04-2020 01:31:18 10.2 C 36 %
1163 08-04-2020 01:41:18 9.9 C 37 %
1164 08-04-2020 01:51:17 9.6 C 38 %
1165 08-04-2020 02:01:18 9.2 C 38 %
1166 08-04-2020 02:11:18 8.7 C 39 %
1167 08-04-2020 02:21:17 8.5 C 40 %
1168 08-04-2020 02:31:17 8.2 C 40 %
1169 08-04-2020 02:41:18 8 C 40 %
1170 08-04-2020 02:51:17 7.7 C 41 %
1171 08-04-2020 03:01:18 7.4 C 41 %
1172 08-04-2020 03:11:18 7.1 C 41 %
1173 08-04-2020 03:21:17 7.1 C 42 %
1174 08-04-2020 03:31:17 7.1 C 42 %
1175 08-04-2020 03:41:17 6.8 C 43 %
Sensor: Nr:Datum:Temp:Feuchte:
Aussen-T/F 1176 08-04-2020 03:51:17 6.7 C 43 %
1177 08-04-2020 04:01:17 6.6 C 44 %
1178 08-04-2020 04:11:18 6.7 C 44 %
1179 08-04-2020 04:21:17 6.3 C 44 %
1180 08-04-2020 04:31:17 6.3 C 45 %
1181 08-04-2020 04:41:17 6.4 C 45 %
1182 08-04-2020 04:51:17 6.3 C 45 %
1183 08-04-2020 05:01:18 6.1 C 44 %
1184 08-04-2020 05:11:18 5.9 C 45 %
1185 08-04-2020 05:21:17 5.6 C 45 %
1186 08-04-2020 05:31:17 5.4 C 45 %
1187 08-04-2020 05:41:18 5.4 C 45 %
1188 08-04-2020 05:51:17 5.4 C 46 %
1189 08-04-2020 06:01:17 5.3 C 46 %
1190 08-04-2020 06:11:17 5.4 C 46 %
1191 08-04-2020 06:21:17 5.3 C 46 %
1192 08-04-2020 06:31:17 5.3 C 46 %
1193 08-04-2020 06:41:17 5.1 C 46 %
1194 08-04-2020 06:51:18 5 C 46 %
1195 08-04-2020 07:01:18 5 C 46 %
1196 08-04-2020 07:11:18 5.1 C 46 %
1197 08-04-2020 07:21:17 5.2 C 46 %
1198 08-04-2020 07:31:17 5.3 C 46 %
1199 08-04-2020 07:41:17 5.4 C 46 %
1200 08-04-2020 07:51:17 5.8 C 46 %
Sensor: Nr:Datum:Temp:Feuchte:
Aussen-T/F 1201 08-04-2020 08:01:17 5.7 C 46 %
1202 08-04-2020 08:11:17 6 C 46 %
1203 08-04-2020 08:21:17 6.3 C 46 %
1204 08-04-2020 08:31:18 6.3 C 46 %
1205 08-04-2020 08:41:18 6.5 C 46 %
1206 08-04-2020 08:51:18 6.7 C 46 %
1207 08-04-2020 09:01:18 7 C 45 %
1208 08-04-2020 09:11:18 7.1 C 45 %
1209 08-04-2020 09:21:17 7.6 C 45 %
1210 08-04-2020 09:31:17 7.9 C 45 %
1211 08-04-2020 09:41:17 8.3 C 45 %
1212 08-04-2020 09:51:17 8.7 C 44 %
1213 08-04-2020 10:01:17 9.1 C 43 %
1214 08-04-2020 10:11:17 9.7 C 43 %
1215 08-04-2020 10:21:17 10.2 C 41 %
1216 08-04-2020 10:31:18 11 C 40 %
1217 08-04-2020 10:41:18 11.8 C 39 %
1218 08-04-2020 10:51:18 12.6 C 38 %
1219 08-04-2020 11:01:18 13.7 C 36 %
1220 08-04-2020 11:11:18 14.5 C 35 %
1221 08-04-2020 11:21:17 15.5 C 34 %
1222 08-04-2020 11:31:18 16.2 C 32 %
1223 08-04-2020 11:41:18 17.6 C 27 %
1224 08-04-2020 11:51:17 18.6 C 25 %
1225 08-04-2020 12:01:18 19.2 C 22 %
Sensor: Nr:Datum:Temp:Feuchte:
Aussen-T/F 1226 08-04-2020 12:11:18 20.1 C 21 %
1227 08-04-2020 12:21:17 21.2 C 20 %
1228 08-04-2020 12:31:17 22.4 C 20 %
1229 08-04-2020 12:41:17 22.9 C 20 %
1230 08-04-2020 12:51:17 21.8 C 20 %
1231 08-04-2020 13:01:18 22.9 C 20 %
1232 08-04-2020 13:11:18 22.4 C 20 %
1233 08-04-2020 13:21:17 22.1 C 20 %
1234 08-04-2020 13:31:18 22.3 C 20 %
1235 08-04-2020 13:41:18 23.3 C 20 %
1236 08-04-2020 13:51:17 22.6 C 20 %
1237 08-04-2020 14:01:18 23 C 20 %
1238 08-04-2020 14:11:18 23.7 C 20 %
1239 08-04-2020 14:21:17 24.8 C 20 %
1240 08-04-2020 14:31:18 28.3 C 20 %
1241 08-04-2020 14:41:18 28.9 C 20 %
1242 08-04-2020 14:51:17 28.7 C 20 %
1243 08-04-2020 15:01:17 28.7 C 20 %
1244 08-04-2020 15:11:17 30.1 C 20 %
1245 08-04-2020 15:21:18 29.3 C 20 %
1246 08-04-2020 15:31:17 29.5 C 20 %
1247 08-04-2020 15:41:17 29.1 C 20 %
1248 08-04-2020 15:51:17 32.2 C 20 %
1249 08-04-2020 16:01:17 31.1 C 20 %
1250 08-04-2020 16:11:17 29.7 C 20 %
Sensor: Nr:Datum:Temp:Feuchte:
Aussen-T/F 1251 08-04-2020 16:21:18 30.7 C 20 %
1252 08-04-2020 16:31:17 29 C 20 %
1253 08-04-2020 16:41:17 32.6 C 20 %
1254 08-04-2020 16:51:17 29.7 C 20 %
1255 08-04-2020 17:01:17 29.4 C 20 %
1256 08-04-2020 17:11:17 29.7 C 20 %
1257 08-04-2020 17:21:17 30.1 C 20 %
1258 08-04-2020 17:31:17 30.1 C 20 %
1259 08-04-2020 17:41:17 29 C 20 %
1260 08-04-2020 17:51:17 28.1 C 20 %
1261 08-04-2020 18:01:17 26.6 C 20 %
1262 08-04-2020 18:11:17 25.2 C 20 %
1263 08-04-2020 18:21:17 24.7 C 20 %
1264 08-04-2020 18:31:18 24.3 C 20 %
1265 08-04-2020 18:41:18 24.1 C 20 %
1266 08-04-2020 18:51:17 23.8 C 20 %
1267 08-04-2020 19:01:17 23.2 C 20 %
1268 08-04-2020 19:11:17 22.6 C 20 %
1269 08-04-2020 19:21:17 21.4 C 20 %
1270 08-04-2020 19:31:17 20.1 C 20 %
1271 08-04-2020 19:41:17 19.7 C 20 %
1272 08-04-2020 19:51:17 19.2 C 20 %
1273 08-04-2020 20:01:17 18.5 C 20 %
1274 08-04-2020 20:11:17 18 C 20 %
1275 08-04-2020 20:21:18 17.5 C 20 %
Sensor: Nr:Datum:Temp:Feuchte:
Aussen-T/F 1276 08-04-2020 20:31:17 17 C 20 %
1277 08-04-2020 20:41:18 16.2 C 20 %
1278 08-04-2020 20:51:17 15.6 C 20 %
1279 08-04-2020 21:01:18 14.6 C 20 %
1280 08-04-2020 21:11:18 13.9 C 20 %
1281 08-04-2020 21:21:17 14.2 C 20 %
1282 08-04-2020 21:31:17 13.7 C 20 %
1283 08-04-2020 21:41:17 13.5 C 20 %
1284 08-04-2020 21:51:17 13.4 C 20 %
1285 08-04-2020 22:01:17 12.9 C 21 %
1286 08-04-2020 22:11:18 12.7 C 21 %
1287 08-04-2020 22:21:17 12.5 C 24 %
1288 08-04-2020 22:31:17 12.2 C 25 %
1289 08-04-2020 22:41:17 11.8 C 26 %
1290 08-04-2020 22:51:18 11.6 C 26 %
1291 08-04-2020 23:01:17 12 C 25 %
1292 08-04-2020 23:11:17 11.5 C 26 %
1293 08-04-2020 23:21:17 10.9 C 28 %
1294 08-04-2020 23:31:17 10.5 C 29 %
1295 08-04-2020 23:41:17 10.7 C 28 %
1296 08-04-2020 23:51:17 11.2 C 28 %
1297 09-04-2020 00:01:18 10.7 C 29 %
1298 09-04-2020 00:11:18 10.7 C 29 %
1299 09-04-2020 00:21:17 10.3 C 30 %
1300 09-04-2020 00:31:18 10 C 30 %
Sensor: Nr:Datum:Temp:Feuchte:
Aussen-T/F 1301 09-04-2020 00:41:18 10.5 C 30 %
1302 09-04-2020 00:51:17 10.5 C 30 %
1303 09-04-2020 01:01:17 10 C 30 %
1304 09-04-2020 01:11:17 9.6 C 31 %
1305 09-04-2020 01:21:17 9.2 C 32 %
1306 09-04-2020 01:31:17 9.9 C 33 %
1307 09-04-2020 01:41:17 9.3 C 33 %
1308 09-04-2020 01:51:17 9.6 C 33 %
1309 09-04-2020 02:01:17 8.8 C 35 %
1310 09-04-2020 02:11:17 9.1 C 34 %
1311 09-04-2020 02:21:18 9 C 34 %
1312 09-04-2020 02:31:18 8.8 C 35 %
1313 09-04-2020 02:41:18 8.7 C 35 %
1314 09-04-2020 02:51:17 8.8 C 35 %
1315 09-04-2020 03:01:17 9.2 C 34 %
1316 09-04-2020 03:11:17 9.7 C 33 %
1317 09-04-2020 03:21:17 9.5 C 33 %
1318 09-04-2020 03:31:17 9.4 C 34 %
1319 09-04-2020 03:41:17 9.5 C 34 %
1320 09-04-2020 03:51:17 10.2 C 32 %
1321 09-04-2020 04:01:17 9.9 C 34 %
1322 09-04-2020 04:11:17 10.1 C 33 %
1323 09-04-2020 04:21:17 10 C 33 %
1324 09-04-2020 04:31:18 9.4 C 34 %
1325 09-04-2020 04:41:18 9.3 C 35 %
Sensor: Nr:Datum:Temp:Feuchte:
Aussen-T/F 1326 09-04-2020 04:51:17 8.9 C 35 %
1327 09-04-2020 05:01:17 8.7 C 36 %
1328 09-04-2020 05:11:17 8.6 C 35 %
1329 09-04-2020 05:21:17 8.5 C 36 %
1330 09-04-2020 05:31:18 8.2 C 36 %
1331 09-04-2020 05:41:18 8.1 C 36 %
1332 09-04-2020 05:51:17 8.1 C 37 %
1333 09-04-2020 06:01:18 8.1 C 37 %
1334 09-04-2020 06:11:18 7.7 C 38 %
1335 09-04-2020 06:21:17 7.1 C 38 %
1336 09-04-2020 06:31:17 7 C 38 %
1337 09-04-2020 06:41:17 6.6 C 39 %
1338 09-04-2020 06:51:17 6.8 C 40 %
1339 09-04-2020 07:01:17 6.9 C 40 %
1340 09-04-2020 07:11:17 7.3 C 39 %
1341 09-04-2020 07:21:17 7.3 C 39 %
1342 09-04-2020 07:31:17 7 C 39 %
1343 09-04-2020 07:41:17 6.9 C 40 %
1344 09-04-2020 07:51:17 7 C 40 %
1345 09-04-2020 08:01:17 7 C 40 %
1346 09-04-2020 08:11:17 7.3 C 40 %
1347 09-04-2020 08:21:18 7.4 C 40 %
1348 09-04-2020 08:31:17 7.6 C 40 %
1349 09-04-2020 08:41:17 8 C 39 %
1350 09-04-2020 08:51:17 8.3 C 39 %
Sensor: Nr:Datum:Temp:Feuchte:
Aussen-T/F 1351 09-04-2020 09:01:17 8.5 C 38 %
1352 09-04-2020 09:11:17 8.7 C 39 %
1353 09-04-2020 09:21:17 9 C 38 %
1354 09-04-2020 09:31:17 9.3 C 38 %
1355 09-04-2020 09:41:17 9.8 C 37 %
1356 09-04-2020 09:51:17 10.4 C 36 %
1357 09-04-2020 10:01:17 10.8 C 36 %
1358 09-04-2020 10:11:17 11.2 C 35 %
1359 09-04-2020 10:21:17 11.8 C 35 %
1360 09-04-2020 10:31:17 12.6 C 34 %
1361 09-04-2020 10:41:17 13.3 C 32 %
1362 09-04-2020 10:51:18 14.6 C 31 %
1363 09-04-2020 11:01:17 15.4 C 30 %
1364 09-04-2020 11:11:18 16.2 C 28 %
1365 09-04-2020 11:21:17 17 C 25 %
1366 09-04-2020 11:31:17 17.9 C 23 %
1367 09-04-2020 11:41:17 18.5 C 21 %
1368 09-04-2020 11:51:18 19 C 20 %
1369 09-04-2020 12:01:17 19.3 C 20 %
1370 09-04-2020 12:11:17 19.8 C 20 %
1371 09-04-2020 12:21:17 20.7 C 20 %
1372 09-04-2020 12:31:17 22 C 20 %
1373 09-04-2020 12:41:17 23 C 20 %
1374 09-04-2020 12:51:18 22.3 C 20 %
1375 09-04-2020 13:01:17 23.2 C 20 %
Sensor: Nr:Datum:Temp:Feuchte:
Aussen-T/F 1376 09-04-2020 13:11:17 23.3 C 20 %
1377 09-04-2020 13:21:17 22.9 C 20 %
1378 09-04-2020 13:31:17 22.4 C 20 %
1379 09-04-2020 13:41:18 22.6 C 20 %
1380 09-04-2020 13:51:17 22.8 C 20 %
1381 09-04-2020 14:01:17 24.1 C 20 %
1382 09-04-2020 14:11:17 23.8 C 20 %
1383 09-04-2020 14:21:17 24.3 C 20 %
1384 09-04-2020 14:31:17 26.8 C 20 %
1385 09-04-2020 14:41:17 28 C 20 %
1386 09-04-2020 14:51:17 29.2 C 20 %
1387 09-04-2020 15:01:17 28.6 C 20 %
1388 09-04-2020 15:11:17 31.7 C 20 %
1389 09-04-2020 15:21:17 28.2 C 20 %
1390 09-04-2020 15:31:18 28.7 C 20 %
1391 09-04-2020 15:41:18 28.4 C 20 %
1392 09-04-2020 15:51:17 30.1 C 20 %
1393 09-04-2020 16:01:18 29.2 C 20 %
1394 09-04-2020 16:11:18 29.3 C 20 %
1395 09-04-2020 16:21:17 31.4 C 20 %
1396 09-04-2020 16:31:17 28.8 C 20 %
1397 09-04-2020 16:41:17 28.8 C 20 %
1398 09-04-2020 16:51:17 29.2 C 20 %
1399 09-04-2020 17:01:17 28.7 C 20 %
1400 09-04-2020 17:11:17 28.4 C 20 %
Sensor: Nr:Datum:Temp:Feuchte:
Aussen-T/F 1401 09-04-2020 17:21:17 29.8 C 20 %
1402 09-04-2020 17:31:17 28 C 20 %
1403 09-04-2020 17:41:17 27.6 C 20 %
1404 09-04-2020 17:51:18 27.1 C 20 %
1405 09-04-2020 18:01:18 25.2 C 20 %
1406 09-04-2020 18:11:18 24 C 20 %
1407 09-04-2020 18:21:17 23.7 C 20 %
1408 09-04-2020 18:31:17 23.4 C 20 %
1409 09-04-2020 18:41:17 23.5 C 20 %
1410 09-04-2020 18:51:17 22.9 C 20 %
1411 09-04-2020 19:01:18 22.7 C 20 %
1412 09-04-2020 19:11:18 22.4 C 20 %
1413 09-04-2020 19:21:17 21.8 C 20 %
1414 09-04-2020 19:31:17 21.1 C 20 %
1415 09-04-2020 19:41:17 20.6 C 20 %
1416 09-04-2020 19:51:17 20.1 C 20 %
1417 09-04-2020 20:01:17 19.7 C 20 %
1418 09-04-2020 20:11:17 17.9 C 20 %
1419 09-04-2020 20:21:17 16.6 C 20 %
1420 09-04-2020 20:31:17 16.6 C 20 %
1421 09-04-2020 20:41:17 16.1 C 21 %
1422 09-04-2020 20:51:17 16.4 C 20 %
1423 09-04-2020 21:01:17 16.2 C 20 %
1424 09-04-2020 21:11:17 16.4 C 20 %
1425 09-04-2020 21:21:17 16.5 C 20 %
Sensor: Nr:Datum:Temp:Feuchte:
Aussen-T/F 1426 09-04-2020 21:31:17 15.9 C 21 %
1427 09-04-2020 21:41:17 15.4 C 22 %
1428 09-04-2020 21:51:17 15.5 C 22 %
1429 09-04-2020 22:01:17 15.5 C 22 %
1430 09-04-2020 22:11:17 15.2 C 22 %
1431 09-04-2020 22:21:17 15.1 C 22 %
1432 09-04-2020 22:31:18 14.8 C 24 %
1433 09-04-2020 22:41:18 14.6 C 25 %
1434 09-04-2020 22:51:17 14.3 C 25 %
1435 09-04-2020 23:01:18 14.2 C 25 %
1436 09-04-2020 23:11:18 14.2 C 25 %
1437 09-04-2020 23:21:17 13.6 C 26 %
1438 09-04-2020 23:31:17 13.8 C 26 %
1439 09-04-2020 23:41:18 13.7 C 26 %
1440 09-04-2020 23:51:17 12.7 C 28 %
1441 10-04-2020 00:01:17 12.7 C 29 %
1442 10-04-2020 00:11:17 11.7 C 31 %
1443 10-04-2020 00:21:18 11.8 C 31 %
1444 10-04-2020 00:31:18 11.1 C 32 %
1445 10-04-2020 00:41:18 10.7 C 34 %
1446 10-04-2020 00:51:17 10.5 C 34 %
1447 10-04-2020 01:01:17 10.1 C 35 %
1448 10-04-2020 01:11:17 10 C 35 %
1449 10-04-2020 01:21:17 9.7 C 36 %
1450 10-04-2020 01:31:17 9.6 C 36 %
Sensor: Nr:Datum:Temp:Feuchte:
Aussen-T/F 1451 10-04-2020 01:41:17 9.5 C 36 %
1452 10-04-2020 01:51:17 9 C 36 %
1453 10-04-2020 02:01:17 9.2 C 36 %
1454 10-04-2020 02:11:17 8.9 C 37 %
1455 10-04-2020 02:21:18 8.7 C 37 %
1456 10-04-2020 02:31:18 8.6 C 37 %
1457 10-04-2020 02:41:18 8.3 C 38 %
1458 10-04-2020 02:51:17 8.2 C 38 %
1459 10-04-2020 03:01:18 8.3 C 38 %
1460 10-04-2020 03:11:18 7.9 C 39 %
1461 10-04-2020 03:21:17 7.6 C 39 %
1462 10-04-2020 03:31:17 7.4 C 40 %
1463 10-04-2020 03:41:17 7.2 C 40 %
1464 10-04-2020 03:51:17 7.1 C 40 %
1465 10-04-2020 04:01:18 7 C 40 %
1466 10-04-2020 04:11:18 6.8 C 41 %
1467 10-04-2020 04:21:17 6.9 C 41 %
1468 10-04-2020 04:31:17 6.6 C 41 %
1469 10-04-2020 04:41:17 6.6 C 41 %
1470 10-04-2020 04:51:18 6.6 C 41 %
1471 10-04-2020 05:01:17 6.3 C 41 %
1472 10-04-2020 05:11:17 6.3 C 42 %
1473 10-04-2020 05:21:18 6.4 C 42 %
1474 10-04-2020 05:31:17 6.2 C 42 %
1475 10-04-2020 05:41:17 5.9 C 43 %
Sensor: Nr:Datum:Temp:Feuchte:
Aussen-T/F 1476 10-04-2020 05:51:17 5.7 C 43 %
1477 10-04-2020 06:01:17 5.8 C 44 %
1478 10-04-2020 06:11:17 5.8 C 44 %
1479 10-04-2020 06:21:17 5.6 C 44 %
1480 10-04-2020 06:31:18 5.4 C 44 %
1481 10-04-2020 06:41:18 5.4 C 44 %
1482 10-04-2020 06:51:17 5.4 C 44 %
1483 10-04-2020 07:01:18 5.3 C 44 %
1484 10-04-2020 07:11:18 5.3 C 45 %
1485 10-04-2020 07:21:17 5.3 C 45 %
1486 10-04-2020 07:31:18 5.3 C 45 %
1487 10-04-2020 07:41:18 5.3 C 45 %
1488 10-04-2020 07:51:17 5.9 C 46 %
1489 10-04-2020 08:01:17 5.8 C 45 %
1490 10-04-2020 08:11:17 5.8 C 45 %
1491 10-04-2020 08:21:17 6 C 44 %
1492 10-04-2020 08:31:17 6.1 C 45 %
1493 10-04-2020 08:41:17 6.2 C 44 %
1494 10-04-2020 08:51:17 6.5 C 45 %
1495 10-04-2020 09:01:17 6.9 C 45 %
1496 10-04-2020 09:11:17 7.8 C 42 %
1497 10-04-2020 09:21:18 8.2 C 41 %
1498 10-04-2020 09:31:18 8.5 C 40 %
1499 10-04-2020 09:41:18 9.1 C 39 %
1500 10-04-2020 09:51:17 9.4 C 39 %
Sensor: Nr:Datum:Temp:Feuchte:
Aussen-T/F 1501 10-04-2020 10:01:17 9.9 C 38 %
1502 10-04-2020 10:11:17 10.2 C 37 %
1503 10-04-2020 10:21:17 10.8 C 37 %
1504 10-04-2020 10:31:17 11.6 C 36 %
1505 10-04-2020 10:41:17 12.3 C 35 %
1506 10-04-2020 10:51:17 13.4 C 33 %
1507 10-04-2020 11:01:17 14 C 31 %
1508 10-04-2020 11:11:17 14.7 C 31 %
1509 10-04-2020 11:21:17 15.9 C 28 %
1510 10-04-2020 11:31:17 16.3 C 27 %
1511 10-04-2020 11:41:17 16.8 C 26 %
1512 10-04-2020 11:51:17 17.5 C 25 %
1513 10-04-2020 12:01:17 17.9 C 24 %
1514 10-04-2020 12:11:17 18.4 C 21 %
1515 10-04-2020 12:21:17 19.2 C 20 %
1516 10-04-2020 12:31:17 19.7 C 20 %
1517 10-04-2020 12:41:17 20.6 C 20 %
1518 10-04-2020 12:51:17 20.4 C 20 %
1519 10-04-2020 13:01:17 20.8 C 20 %
1520 10-04-2020 13:11:17 20.2 C 20 %
1521 10-04-2020 13:21:17 20.4 C 20 %
1522 10-04-2020 13:31:17 20.2 C 20 %
1523 10-04-2020 13:41:17 20.4 C 20 %
1524 10-04-2020 13:51:17 20.7 C 20 %
1525 10-04-2020 14:01:17 21.7 C 20 %
Sensor: Nr:Datum:Temp:Feuchte:
Aussen-T/F 1526 10-04-2020 14:11:17 21.6 C 20 %
1527 10-04-2020 14:21:18 22 C 20 %
1528 10-04-2020 14:31:18 25.1 C 20 %
1529 10-04-2020 14:41:18 29.1 C 20 %
1530 10-04-2020 14:51:17 27.6 C 20 %
1531 10-04-2020 15:01:17 27.9 C 20 %
1532 10-04-2020 15:11:17 31.6 C 20 %
1533 10-04-2020 15:21:17 30.1 C 20 %
1534 10-04-2020 15:31:17 30.5 C 20 %
1535 10-04-2020 15:41:17 30.2 C 20 %
1536 10-04-2020 15:51:17 29.1 C 20 %
1537 10-04-2020 16:01:17 29.8 C 20 %
1538 10-04-2020 16:11:17 30.3 C 20 %
1539 10-04-2020 16:21:17 28.8 C 20 %
1540 10-04-2020 16:31:17 29.1 C 20 %
1541 10-04-2020 16:41:17 28.3 C 20 %
1542 10-04-2020 16:51:17 30.8 C 20 %
1543 10-04-2020 17:01:17 29.6 C 20 %
1544 10-04-2020 17:11:17 28.8 C 20 %
1545 10-04-2020 17:21:17 26.8 C 20 %
1546 10-04-2020 17:31:17 28.5 C 20 %
1547 10-04-2020 17:41:17 27.6 C 20 %
1548 10-04-2020 17:51:18 26.4 C 20 %
1549 10-04-2020 18:01:17 23.6 C 20 %
1550 10-04-2020 18:11:17 23 C 20 %
Sensor: Nr:Datum:Temp:Feuchte:
Aussen-T/F 1551 10-04-2020 18:21:18 22.5 C 20 %
1552 10-04-2020 18:31:18 22.2 C 20 %
1553 10-04-2020 18:41:18 22.3 C 20 %
1554 10-04-2020 18:51:17 22 C 20 %
1555 10-04-2020 19:01:17 21.6 C 20 %
1556 10-04-2020 19:11:17 21.4 C 20 %
1557 10-04-2020 19:21:17 21.1 C 20 %
1558 10-04-2020 19:31:17 20.9 C 20 %
1559 10-04-2020 19:41:17 20.7 C 20 %
1560 10-04-2020 19:51:18 20.2 C 20 %
1561 10-04-2020 20:01:17 19.6 C 20 %
1562 10-04-2020 20:11:17 18.5 C 20 %
1563 10-04-2020 20:21:18 16 C 20 %
1564 10-04-2020 20:31:17 15.9 C 20 %
1565 10-04-2020 20:41:17 15.3 C 20 %
1566 10-04-2020 20:51:17 15 C 20 %
1567 10-04-2020 21:01:17 15.3 C 20 %
1568 10-04-2020 21:11:17 14.7 C 20 %
1569 10-04-2020 21:21:17 14.3 C 21 %
1570 10-04-2020 21:31:17 13.8 C 21 %
1571 10-04-2020 21:41:17 14.2 C 21 %
1572 10-04-2020 21:51:17 14.3 C 21 %
1573 10-04-2020 22:01:18 14.5 C 21 %
1574 10-04-2020 22:11:18 14.9 C 20 %
1575 10-04-2020 22:21:18 14.5 C 22 %
Sensor: Nr:Datum:Temp:Feuchte:
Aussen-T/F 1576 10-04-2020 22:31:17 14.5 C 22 %
1577 10-04-2020 22:41:17 13.9 C 24 %
1578 10-04-2020 22:51:17 13.1 C 25 %
1579 10-04-2020 23:01:17 12.7 C 25 %
1580 10-04-2020 23:11:17 12.8 C 25 %
1581 10-04-2020 23:21:17 12 C 26 %
1582 10-04-2020 23:31:17 12.2 C 26 %
1583 10-04-2020 23:41:17 11.2 C 28 %
1584 10-04-2020 23:51:17 11.1 C 29 %
1585 11-04-2020 00:01:18 10.5 C 30 %
1586 11-04-2020 00:11:18 10.8 C 30 %
1587 11-04-2020 00:21:17 10.8 C 30 %
1588 11-04-2020 00:31:17 10.1 C 31 %
1589 11-04-2020 00:41:18 9.9 C 32 %
1590 11-04-2020 00:51:18 10 C 31 %
1591 11-04-2020 01:01:17 9.6 C 31 %
1592 11-04-2020 01:11:17 9.6 C 32 %
1593 11-04-2020 01:21:17 9.1 C 32 %
1594 11-04-2020 01:31:18 9.2 C 32 %
1595 11-04-2020 01:41:18 9 C 32 %
1596 11-04-2020 01:51:18 8.7 C 32 %
1597 11-04-2020 02:01:17 8.4 C 32 %
1598 11-04-2020 02:11:17 8.2 C 32 %
1599 11-04-2020 02:21:18 8.1 C 32 %
1600 11-04-2020 02:31:17 8.3 C 32 %
Sensor: Nr:Datum:Temp:Feuchte:
Aussen-T/F 1601 11-04-2020 02:41:17 8.1 C 32 %
1602 11-04-2020 02:51:17 7.9 C 33 %
1603 11-04-2020 03:01:17 8.5 C 31 %
1604 11-04-2020 03:11:17 8.7 C 31 %
1605 11-04-2020 03:21:17 8.8 C 30 %
1606 11-04-2020 03:31:18 8.8 C 30 %
1607 11-04-2020 03:41:18 8.2 C 30 %
1608 11-04-2020 03:51:17 8.6 C 30 %
1609 11-04-2020 04:01:17 8.3 C 30 %
1610 11-04-2020 04:11:17 8.3 C 30 %
1611 11-04-2020 04:21:17 7.7 C 30 %
1612 11-04-2020 04:31:17 7.4 C 30 %
1613 11-04-2020 04:41:17 7.5 C 30 %
1614 11-04-2020 04:51:17 7.6 C 29 %
1615 11-04-2020 05:01:17 7.4 C 29 %
1616 11-04-2020 05:11:17 6.9 C 30 %
1617 11-04-2020 05:21:17 6.8 C 30 %
1618 11-04-2020 05:31:18 6.1 C 31 %
1619 11-04-2020 05:41:18 5.8 C 32 %
1620 11-04-2020 05:51:17 5.7 C 32 %
1621 11-04-2020 06:01:17 5.6 C 32 %
1622 11-04-2020 06:11:17 5 C 33 %
1623 11-04-2020 06:21:17 4.9 C 35 %
1624 11-04-2020 06:31:18 5 C 33 %
1625 11-04-2020 06:41:18 4.6 C 35 %
Sensor: Nr:Datum:Temp:Feuchte:
Aussen-T/F 1626 11-04-2020 06:51:17 4.6 C 35 %
1627 11-04-2020 07:01:18 4.4 C 35 %
1628 11-04-2020 07:11:18 4.5 C 35 %
1629 11-04-2020 07:21:17 4.4 C 35 %
1630 11-04-2020 07:31:18 4.4 C 36 %
1631 11-04-2020 07:41:18 4.7 C 35 %
1632 11-04-2020 07:51:17 5 C 34 %
1633 11-04-2020 08:01:18 5 C 34 %
1634 11-04-2020 08:11:18 5 C 35 %
1635 11-04-2020 08:21:18 5.1 C 35 %
1636 11-04-2020 08:31:18 5.5 C 34 %
1637 11-04-2020 08:41:18 6 C 33 %
1638 11-04-2020 08:51:18 6.4 C 32 %
1639 11-04-2020 09:01:17 6.5 C 33 %
1640 11-04-2020 09:11:18 7.1 C 31 %
1641 11-04-2020 09:21:17 7.3 C 31 %
1642 11-04-2020 09:31:18 7.8 C 31 %
1643 11-04-2020 09:41:18 8.2 C 30 %
1644 11-04-2020 09:51:17 8.6 C 30 %
1645 11-04-2020 10:01:17 9.1 C 29 %
1646 11-04-2020 10:11:17 9.5 C 29 %
1647 11-04-2020 10:21:17 10.2 C 26 %
1648 11-04-2020 10:31:17 10.7 C 27 %
1649 11-04-2020 10:41:17 11.5 C 25 %
1650 11-04-2020 10:51:17 12.3 C 21 %
Sensor: Nr:Datum:Temp:Feuchte:
Aussen-T/F 1651 11-04-2020 11:01:18 12.9 C 20 %
1652 11-04-2020 11:11:18 13.7 C 20 %
1653 11-04-2020 11:21:17 14.5 C 20 %
1654 11-04-2020 11:31:17 15.3 C 20 %
1655 11-04-2020 11:41:18 16 C 20 %
1656 11-04-2020 11:51:17 16.5 C 20 %
1657 11-04-2020 12:01:17 17.2 C 20 %
1658 11-04-2020 12:11:17 17.5 C 20 %
1659 11-04-2020 12:21:18 18.1 C 20 %
1660 11-04-2020 12:31:17 19.1 C 20 %
1661 11-04-2020 12:41:17 19.4 C 20 %
1662 11-04-2020 12:51:17 19.5 C 20 %
1663 11-04-2020 13:01:17 19.6 C 20 %
1664 11-04-2020 13:11:17 19.5 C 20 %
1665 11-04-2020 13:21:17 19.5 C 20 %
1666 11-04-2020 13:31:17 19.6 C 20 %
1667 11-04-2020 13:41:17 19.9 C 20 %
1668 11-04-2020 13:51:17 20.2 C 20 %
1669 11-04-2020 14:01:18 20.9 C 20 %
1670 11-04-2020 14:11:18 21.3 C 20 %
1671 11-04-2020 14:21:17 21.5 C 20 %
1672 11-04-2020 14:31:17 24.4 C 20 %
1673 11-04-2020 14:41:17 27.5 C 20 %
1674 11-04-2020 14:51:18 27.4 C 20 %
1675 11-04-2020 15:01:18 28.6 C 20 %
Sensor: Nr:Datum:Temp:Feuchte:
Aussen-T/F 1676 11-04-2020 15:11:18 30.4 C 20 %
1677 11-04-2020 15:21:17 29.9 C 20 %
1678 11-04-2020 15:31:17 30.4 C 20 %
1679 11-04-2020 15:41:17 31.2 C 20 %
1680 11-04-2020 15:51:18 31.8 C 20 %
1681 11-04-2020 16:01:17 28.5 C 20 %
1682 11-04-2020 16:11:17 31.4 C 20 %
1683 11-04-2020 16:21:18 30.7 C 20 %
1684 11-04-2020 16:31:17 31.5 C 20 %
1685 11-04-2020 16:41:17 31.3 C 20 %
1686 11-04-2020 16:51:17 32.1 C 20 %
1687 11-04-2020 17:01:17 31.8 C 20 %
1688 11-04-2020 17:11:17 29.5 C 20 %
1689 11-04-2020 17:21:17 29.8 C 20 %
1690 11-04-2020 17:31:17 28.7 C 20 %
1691 11-04-2020 17:41:17 26.5 C 20 %
1692 11-04-2020 17:51:17 27.5 C 20 %
1693 11-04-2020 18:01:17 24.2 C 20 %
1694 11-04-2020 18:11:17 23.4 C 20 %
1695 11-04-2020 18:21:17 23.6 C 20 %
1696 11-04-2020 18:31:17 23.6 C 20 %
1697 11-04-2020 18:41:17 23.3 C 20 %
1698 11-04-2020 18:51:17 22.9 C 20 %
1699 11-04-2020 19:01:17 22.9 C 20 %
1700 11-04-2020 19:11:17 22.7 C 20 %
Sensor: Nr:Datum:Temp:Feuchte:
Aussen-T/F 1701 11-04-2020 19:21:18 22 C 20 %
1702 11-04-2020 19:31:17 21.7 C 20 %
1703 11-04-2020 19:41:17 21.2 C 20 %
1704 11-04-2020 19:51:17 18.9 C 20 %
1705 11-04-2020 20:01:17 18 C 20 %
1706 11-04-2020 20:11:17 17.1 C 20 %
1707 11-04-2020 20:21:17 16.6 C 20 %
1708 11-04-2020 20:31:17 16.5 C 20 %
1709 11-04-2020 20:41:17 16.5 C 20 %
1710 11-04-2020 20:51:17 16.2 C 20 %
1711 11-04-2020 21:01:18 16 C 20 %
1712 11-04-2020 21:11:18 15.5 C 20 %
1713 11-04-2020 21:21:18 15.4 C 20 %
1714 11-04-2020 21:31:17 15.1 C 20 %
1715 11-04-2020 21:41:17 14.8 C 20 %
1716 11-04-2020 21:51:17 14.5 C 20 %
1717 11-04-2020 22:01:17 14.3 C 20 %
1718 11-04-2020 22:11:17 14.4 C 20 %
1719 11-04-2020 22:21:17 14 C 20 %
1720 11-04-2020 22:31:18 14 C 21 %
1721 11-04-2020 22:41:18 14.4 C 21 %
1722 11-04-2020 22:51:17 14.4 C 22 %
1723 11-04-2020 23:01:17 13.7 C 23 %
1724 11-04-2020 23:11:17 13 C 24 %
1725 11-04-2020 23:21:18 12.3 C 26 %
Sensor: Nr:Datum:Temp:Feuchte:
Aussen-T/F 1726 11-04-2020 23:31:18 12.1 C 26 %
1727 11-04-2020 23:41:18 11.8 C 27 %
1728 11-04-2020 23:51:17 11.7 C 28 %
1729 12-04-2020 00:01:17 11.6 C 29 %
1730 12-04-2020 00:11:17 11.3 C 28 %
1731 12-04-2020 00:21:17 11.3 C 29 %
1732 12-04-2020 00:31:17 11.5 C 29 %
1733 12-04-2020 00:41:17 11.6 C 29 %
1734 12-04-2020 00:51:17 11.4 C 28 %
1735 12-04-2020 01:01:17 11.3 C 28 %
1736 12-04-2020 01:11:17 11 C 28 %
1737 12-04-2020 01:21:17 10.6 C 29 %
1738 12-04-2020 01:31:18 10.3 C 29 %
1739 12-04-2020 01:41:18 10.2 C 30 %
1740 12-04-2020 01:51:17 10.6 C 29 %
1741 12-04-2020 02:01:18 10.8 C 30 %
1742 12-04-2020 02:11:18 10.7 C 31 %
1743 12-04-2020 02:21:18 10.3 C 31 %
1744 12-04-2020 02:31:17 10.4 C 30 %
1745 12-04-2020 02:41:17 10.2 C 31 %
1746 12-04-2020 02:51:17 10.1 C 31 %
1747 12-04-2020 03:01:17 10.3 C 31 %
1748 12-04-2020 03:11:17 10.2 C 31 %
1749 12-04-2020 03:21:17 10.1 C 32 %
1750 12-04-2020 03:31:17 10 C 32 %
Sensor: Nr:Datum:Temp:Feuchte:
Aussen-T/F 1751 12-04-2020 03:41:18 9.9 C 33 %
1752 12-04-2020 03:51:17 10 C 32 %
1753 12-04-2020 04:01:17 9.8 C 33 %
1754 12-04-2020 04:11:17 9.7 C 33 %
1755 12-04-2020 04:21:17 8.9 C 35 %
1756 12-04-2020 04:31:17 8.8 C 34 %
1757 12-04-2020 04:41:17 8.9 C 35 %
1758 12-04-2020 04:51:17 8.5 C 35 %
1759 12-04-2020 05:01:18 8.2 C 36 %
1760 12-04-2020 05:11:18 8.4 C 36 %
1761 12-04-2020 05:21:17 8.5 C 36 %
1762 12-04-2020 05:31:17 8.2 C 36 %
1763 12-04-2020 05:41:17 8 C 36 %
1764 12-04-2020 05:51:17 7.6 C 37 %
1765 12-04-2020 06:01:17 7.7 C 37 %
1766 12-04-2020 06:11:17 7.5 C 38 %
1767 12-04-2020 06:21:17 7.2 C 38 %
1768 12-04-2020 06:31:17 7.1 C 39 %
1769 12-04-2020 06:41:17 7.2 C 39 %
1770 12-04-2020 06:51:17 7.3 C 39 %
1771 12-04-2020 07:01:17 6.9 C 39 %
1772 12-04-2020 07:11:17 6.7 C 40 %
1773 12-04-2020 07:21:17 6.5 C 40 %
1774 12-04-2020 07:31:17 6.7 C 40 %
1775 12-04-2020 07:41:17 7.1 C 40 %
Sensor: Nr:Datum:Temp:Feuchte:
Aussen-T/F 1776 12-04-2020 07:51:18 7 C 40 %
1777 12-04-2020 08:01:17 7.3 C 40 %
1778 12-04-2020 08:11:17 7.5 C 40 %
1779 12-04-2020 08:21:17 7.5 C 40 %
1780 12-04-2020 08:31:17 7.6 C 40 %
1781 12-04-2020 08:41:18 7.9 C 40 %
1782 12-04-2020 08:51:17 8.2 C 40 %
1783 12-04-2020 09:01:18 8.8 C 39 %
1784 12-04-2020 09:11:18 9.2 C 38 %
1785 12-04-2020 09:21:17 9.5 C 38 %
1786 12-04-2020 09:31:17 10 C 37 %
1787 12-04-2020 09:41:17 10.1 C 37 %
1788 12-04-2020 09:51:17 11 C 36 %
1789 12-04-2020 10:01:17 11.3 C 36 %
1790 12-04-2020 10:11:17 11.7 C 35 %
1791 12-04-2020 10:21:17 12.2 C 35 %
1792 12-04-2020 10:31:18 13.2 C 33 %
1793 12-04-2020 10:41:18 14.4 C 31 %
1794 12-04-2020 10:51:17 14.9 C 31 %
1795 12-04-2020 11:01:17 15.6 C 30 %
1796 12-04-2020 11:11:17 17 C 27 %
1797 12-04-2020 11:21:17 17.6 C 27 %
1798 12-04-2020 11:31:17 18 C 26 %
1799 12-04-2020 11:41:17 18.5 C 24 %
1800 12-04-2020 11:51:17 19.1 C 20 %
Sensor: Nr:Datum:Temp:Feuchte:
Aussen-T/F 1801 12-04-2020 12:01:17 20.6 C 20 %
1802 12-04-2020 12:11:17 20.8 C 20 %
1803 12-04-2020 12:21:17 21.7 C 20 %
1804 12-04-2020 12:31:17 21.6 C 20 %
1805 12-04-2020 12:41:17 21.8 C 20 %
1806 12-04-2020 12:51:18 21.2 C 20 %
1807 12-04-2020 13:01:17 21.7 C 20 %
1808 12-04-2020 13:11:17 21.7 C 20 %
1809 12-04-2020 13:21:17 22 C 20 %
1810 12-04-2020 13:31:17 21.7 C 20 %
1811 12-04-2020 13:41:17 22 C 20 %
1812 12-04-2020 13:51:17 22.1 C 20 %
1813 12-04-2020 14:01:17 22.4 C 20 %
1814 12-04-2020 14:11:17 22.8 C 20 %
1815 12-04-2020 14:21:17 22.9 C 20 %
1816 12-04-2020 14:31:17 26.2 C 20 %
1817 12-04-2020 14:41:17 28.6 C 20 %
1818 12-04-2020 14:51:17 28.5 C 20 %
1819 12-04-2020 15:01:17 30.3 C 20 %
1820 12-04-2020 15:11:17 27.7 C 20 %
1821 12-04-2020 15:21:17 27.9 C 20 %
1822 12-04-2020 15:31:18 30.7 C 20 %
1823 12-04-2020 15:41:18 30.5 C 20 %
1824 12-04-2020 15:51:18 28.3 C 20 %
1825 12-04-2020 16:01:17 30.5 C 20 %
Sensor: Nr:Datum:Temp:Feuchte:
Aussen-T/F 1826 12-04-2020 16:11:17 33.2 C 20 %
1827 12-04-2020 16:21:17 32.8 C 20 %
1828 12-04-2020 16:31:17 27.8 C 20 %
1829 12-04-2020 16:41:17 26 C 20 %
1830 12-04-2020 16:51:17 24.7 C 20 %
1831 12-04-2020 17:01:17 29.6 C 20 %
1832 12-04-2020 17:11:18 29.6 C 20 %
1833 12-04-2020 17:21:17 29.5 C 20 %
1834 12-04-2020 17:31:17 26.5 C 20 %
1835 12-04-2020 17:41:17 29.3 C 20 %
1836 12-04-2020 17:51:17 29.8 C 20 %
1837 12-04-2020 18:01:18 24.6 C 20 %
1838 12-04-2020 18:11:18 24 C 20 %
1839 12-04-2020 18:21:17 24 C 20 %
1840 12-04-2020 18:31:17 23.6 C 20 %
1841 12-04-2020 18:41:17 22.9 C 20 %
1842 12-04-2020 18:51:17 22.4 C 20 %
1843 12-04-2020 19:01:17 22.5 C 20 %
1844 12-04-2020 19:11:17 22.4 C 20 %
1845 12-04-2020 19:21:17 22 C 20 %
1846 12-04-2020 19:31:17 21.6 C 20 %
1847 12-04-2020 19:41:17 20.3 C 20 %
1848 12-04-2020 19:51:18 19.1 C 20 %
1849 12-04-2020 20:01:18 18.2 C 20 %
1850 12-04-2020 20:11:18 17.9 C 20 %
Sensor: Nr:Datum:Temp:Feuchte:
Aussen-T/F 1851 12-04-2020 20:21:17 17.5 C 20 %
1852 12-04-2020 20:31:18 17 C 20 %
1853 12-04-2020 20:41:18 16.8 C 20 %
1854 12-04-2020 20:51:17 16 C 20 %
1855 12-04-2020 21:01:17 15.5 C 20 %
1856 12-04-2020 21:11:17 14 C 20 %
1857 12-04-2020 21:22:17 13.5 C 20 %
1858 12-04-2020 21:31:17 13.2 C 21 %
1859 12-04-2020 21:41:17 13.2 C 20 %
1860 12-04-2020 21:51:17 13.3 C 21 %
1861 12-04-2020 22:01:17 13.4 C 20 %
1862 12-04-2020 22:11:17 13 C 21 %
1863 12-04-2020 22:22:17 12.9 C 22 %
1864 12-04-2020 22:32:17 12.2 C 23 %
1865 12-04-2020 22:42:17 11.8 C 26 %
1866 12-04-2020 22:51:17 11.7 C 25 %
1867 12-04-2020 23:01:18 11.5 C 25 %
1868 12-04-2020 23:11:18 11.1 C 26 %
1869 12-04-2020 23:21:17 10.9 C 27 %
1870 12-04-2020 23:32:17 10.7 C 28 %
1871 12-04-2020 23:41:17 10.3 C 28 %
1872 12-04-2020 23:52:17 10.5 C 28 %
1873 13-04-2020 00:01:17 10.6 C 28 %
1874 13-04-2020 00:11:17 10.4 C 29 %
1875 13-04-2020 00:21:18 10.4 C 30 %
Sensor: Nr:Datum:Temp:Feuchte:
Aussen-T/F 1876 13-04-2020 00:31:17 10.1 C 30 %
1877 13-04-2020 00:41:17 9.9 C 31 %
1878 13-04-2020 00:51:17 9.7 C 31 %
1879 13-04-2020 01:01:18 9.5 C 31 %
1880 13-04-2020 01:11:18 9.4 C 32 %
1881 13-04-2020 01:21:18 9 C 32 %
1882 13-04-2020 01:31:18 9.3 C 32 %
1883 13-04-2020 01:41:18 9.2 C 32 %
1884 13-04-2020 01:51:18 9.3 C 32 %
1885 13-04-2020 02:02:17 9.2 C 32 %
1886 13-04-2020 02:12:17 9.2 C 32 %
1887 13-04-2020 02:21:17 9.1 C 32 %
1888 13-04-2020 02:31:18 9 C 33 %
1889 13-04-2020 02:41:18 8.6 C 34 %
1890 13-04-2020 02:51:17 8.6 C 34 %
1891 13-04-2020 03:01:18 8.4 C 34 %
1892 13-04-2020 03:11:18 8.2 C 35 %
1893 13-04-2020 03:22:17 7.9 C 35 %
1894 13-04-2020 03:32:17 8.1 C 35 %
1895 13-04-2020 03:42:17 8 C 35 %
1896 13-04-2020 03:51:17 7.8 C 35 %
1897 13-04-2020 04:02:17 7.5 C 36 %
1898 13-04-2020 04:12:17 7.2 C 36 %
1899 13-04-2020 04:21:18 6.8 C 38 %
1900 13-04-2020 04:32:17 6.8 C 38 %
Sensor: Nr:Datum:Temp:Feuchte:
Aussen-T/F 1901 13-04-2020 04:41:17 6.7 C 39 %
1902 13-04-2020 04:52:17 7.7 C 37 %
1903 13-04-2020 05:02:17 7.3 C 37 %
1904 13-04-2020 05:12:17 7.5 C 38 %
1905 13-04-2020 05:22:17 7.8 C 38 %
1906 13-04-2020 05:32:17 7.6 C 37 %
1907 13-04-2020 05:42:17 7.4 C 37 %
1908 13-04-2020 05:52:17 7.2 C 38 %
1909 13-04-2020 06:02:17 7.2 C 38 %
1910 13-04-2020 06:12:17 6.6 C 39 %
1911 13-04-2020 06:22:17 6.2 C 39 %
1912 13-04-2020 06:32:17 6.3 C 40 %
1913 13-04-2020 06:42:17 6.3 C 40 %
1914 13-04-2020 06:52:17 6.4 C 40 %
1915 13-04-2020 07:02:17 6.5 C 40 %
1916 13-04-2020 07:12:17 7.2 C 39 %
1917 13-04-2020 07:22:17 7.6 C 38 %
1918 13-04-2020 07:32:17 8.1 C 37 %
1919 13-04-2020 07:42:17 8.3 C 37 %
1920 13-04-2020 07:52:17 8.5 C 37 %
1921 13-04-2020 08:02:17 8.6 C 36 %
1922 13-04-2020 08:12:18 8.9 C 36 %
1923 13-04-2020 08:22:17 9 C 36 %
1924 13-04-2020 08:32:17 9.4 C 36 %
1925 13-04-2020 08:42:17 10.7 C 37 %
Sensor: Nr:Datum:Temp:Feuchte:
Aussen-T/F 1926 13-04-2020 08:52:17 11.1 C 36 %
1927 13-04-2020 09:02:17 10.7 C 37 %
1928 13-04-2020 09:12:17 10.7 C 37 %
1929 13-04-2020 09:22:17 11 C 36 %
1930 13-04-2020 09:32:17 11.5 C 36 %
1931 13-04-2020 09:42:17 11.9 C 35 %
1932 13-04-2020 09:52:17 11.4 C 35 %
1933 13-04-2020 10:02:17 11.2 C 35 %
1934 13-04-2020 10:12:17 11.1 C 35 %
1935 13-04-2020 10:22:17 11 C 34 %
1936 13-04-2020 10:32:17 11.1 C 34 %
1937 13-04-2020 10:42:17 11.3 C 34 %
1938 13-04-2020 10:52:17 11.6 C 33 %
1939 13-04-2020 11:02:17 11.6 C 33 %
1940 13-04-2020 11:12:17 11.4 C 32 %
1941 13-04-2020 11:22:17 11.8 C 32 %
1942 13-04-2020 11:32:17 11.5 C 31 %
1943 13-04-2020 11:42:17 11.1 C 31 %
1944 13-04-2020 11:52:16 10.8 C 32 %
1945 13-04-2020 12:02:17 10.9 C 32 %
1946 13-04-2020 12:12:17 10.5 C 33 %
1947 13-04-2020 12:22:17 10.4 C 33 %
1948 13-04-2020 12:32:17 10.7 C 32 %
1949 13-04-2020 12:42:17 11.1 C 32 %
1950 13-04-2020 12:52:17 10.6 C 32 %
Sensor: Nr:Datum:Temp:Feuchte:
Aussen-T/F 1951 13-04-2020 13:02:16 10.3 C 32 %
1952 13-04-2020 13:12:16 10.2 C 32 %
1953 13-04-2020 13:22:17 10.2 C 32 %
1954 13-04-2020 13:32:17 9.6 C 33 %
1955 13-04-2020 13:42:17 8.6 C 35 %
1956 13-04-2020 13:52:17 7.6 C 39 %
1957 13-04-2020 14:02:17 7.5 C 40 %
1958 13-04-2020 14:12:17 7.7 C 38 %
1959 13-04-2020 14:22:16 8.7 C 36 %
1960 13-04-2020 14:32:17 9.2 C 35 %
1961 13-04-2020 14:42:17 9.6 C 34 %
1962 13-04-2020 14:52:16 10.9 C 31 %
1963 13-04-2020 15:02:17 12.4 C 26 %
1964 13-04-2020 15:12:17 12.3 C 25 %
1965 13-04-2020 15:22:17 12.7 C 20 %
1966 13-04-2020 15:32:17 11.8 C 20 %
1967 13-04-2020 15:42:17 12.4 C 20 %
1968 13-04-2020 15:52:16 13.2 C 20 %
1969 13-04-2020 16:02:16 12.2 C 20 %
1970 13-04-2020 16:12:16 14.4 C 20 %
1971 13-04-2020 16:22:16 15 C 20 %
1972 13-04-2020 16:32:17 16 C 20 %
1973 13-04-2020 16:42:17 14.9 C 20 %
1974 13-04-2020 16:52:16 16.5 C 20 %
1975 13-04-2020 17:02:17 15.2 C 20 %
Sensor: Nr:Datum:Temp:Feuchte:
Aussen-T/F 1976 13-04-2020 17:12:17 15.6 C 20 %
1977 13-04-2020 17:22:16 15 C 20 %
1978 13-04-2020 17:32:16 15 C 20 %
1979 13-04-2020 17:42:16 14.5 C 20 %
1980 13-04-2020 17:52:16 15.4 C 20 %
1981 13-04-2020 18:02:16 13.2 C 20 %
1982 13-04-2020 18:12:16 12.5 C 20 %
1983 13-04-2020 18:22:17 12.1 C 20 %
1984 13-04-2020 18:32:17 11.9 C 20 %
1985 13-04-2020 18:42:18 11.1 C 20 %
1986 13-04-2020 18:52:16 11.1 C 20 %
1987 13-04-2020 19:02:16 10.8 C 20 %
1988 13-04-2020 19:12:16 10.5 C 20 %
1989 13-04-2020 19:22:16 10.2 C 20 %
1990 13-04-2020 19:32:17 10 C 20 %
1991 13-04-2020 19:42:17 9.8 C 20 %
1992 13-04-2020 19:52:16 9.6 C 20 %
1993 13-04-2020 20:02:16 9 C 20 %
1994 13-04-2020 20:12:16 8.6 C 20 %
1995 13-04-2020 20:22:16 8.5 C 20 %
1996 13-04-2020 20:32:16 8.4 C 20 %
1997 13-04-2020 20:42:16 8.2 C 20 %
1998 13-04-2020 20:52:16 7.5 C 20 %
1999 13-04-2020 21:02:16 7.5 C 20 %
2000 13-04-2020 21:12:16 7.4 C 20 %
Sensor: Nr:Datum:Temp:Feuchte:
Aussen-T/F 2001 13-04-2020 21:22:16 7.3 C 20 %
2002 13-04-2020 21:32:17 7.2 C 20 %
2003 13-04-2020 21:42:17 6.7 C 20 %
2004 13-04-2020 21:52:16 6.5 C 20 %
2005 13-04-2020 22:02:16 6.1 C 20 %
2006 13-04-2020 22:12:16 5.5 C 20 %
2007 13-04-2020 22:22:16 5.1 C 20 %
2008 13-04-2020 22:32:16 4.6 C 23 %
2009 13-04-2020 22:42:16 4.4 C 25 %
2010 13-04-2020 22:52:16 4.1 C 25 %
2011 13-04-2020 23:02:16 3.9 C 26 %
2012 13-04-2020 23:12:16 3.8 C 27 %
2013 13-04-2020 23:22:16 3.5 C 30 %
2014 13-04-2020 23:32:17 3.3 C 29 %
2015 13-04-2020 23:42:17 4 C 26 %
2016 13-04-2020 23:52:16 4 C 25 %
2017 14-04-2020 00:02:16 3.3 C 28 %
2018 14-04-2020 00:12:16 4.1 C 25 %
2019 14-04-2020 00:22:16 3.2 C 27 %
2020 14-04-2020 00:32:16 3.3 C 27 %
2021 14-04-2020 00:42:16 2.8 C 29 %
2022 14-04-2020 00:52:16 2.9 C 29 %
2023 14-04-2020 01:02:16 3.1 C 27 %
2024 14-04-2020 01:12:16 3.4 C 27 %
2025 14-04-2020 01:22:16 2.8 C 28 %
Sensor: Nr:Datum:Temp:Feuchte:
Aussen-T/F 2026 14-04-2020 01:32:16 2.1 C 30 %
2027 14-04-2020 01:42:16 1.9 C 33 %
2028 14-04-2020 01:52:16 1.2 C 35 %
2029 14-04-2020 02:02:16 1.6 C 35 %
2030 14-04-2020 02:12:16 1.3 C 35 %
2031 14-04-2020 02:22:16 0.9 C 36 %
2032 14-04-2020 02:32:16 0.8 C 36 %
2033 14-04-2020 02:42:16 1.1 C 35 %
2034 14-04-2020 02:52:18 1 C 35 %
2035 14-04-2020 03:02:18 1.1 C 35 %
2036 14-04-2020 03:12:18 1.1 C 35 %
2037 14-04-2020 03:22:17 0.7 C 36 %
2038 14-04-2020 03:32:18 1.1 C 36 %
2039 14-04-2020 03:42:18 0.9 C 36 %
2040 14-04-2020 03:52:17 1 C 35 %
2041 14-04-2020 04:02:18 0.9 C 36 %
2042 14-04-2020 04:12:18 0.9 C 36 %
2043 14-04-2020 04:22:17 0.6 C 36 %
2044 14-04-2020 04:32:17 0.7 C 36 %
2045 14-04-2020 04:42:17 0.7 C 36 %
2046 14-04-2020 04:52:18 0.6 C 36 %
2047 14-04-2020 05:02:17 0 C 37 %
2048 14-04-2020 05:12:17 0 C 38 %
2049 14-04-2020 05:22:17 0.6 C 38 %
2050 14-04-2020 05:32:17 0.6 C 39 %
Sensor: Nr:Datum:Temp:Feuchte:
Aussen-T/F 2051 14-04-2020 05:42:17 0.7 C 39 %
2052 14-04-2020 05:52:17 0 C 39 %
2053 14-04-2020 06:02:17 -0.2 C 40 %
2054 14-04-2020 06:12:17 -0.7 C 41 %
2055 14-04-2020 06:22:17 -0.9 C 41 %
2056 14-04-2020 06:32:17 -0.4 C 41 %
2057 14-04-2020 06:42:17 -0.1 C 41 %
2058 14-04-2020 06:52:17 0.5 C 41 %
2059 14-04-2020 07:02:17 0.7 C 41 %
2060 14-04-2020 07:12:17 1.1 C 40 %
2061 14-04-2020 07:22:17 1.3 C 39 %
2062 14-04-2020 07:32:17 1.6 C 39 %
2063 14-04-2020 07:42:17 1.8 C 39 %
2064 14-04-2020 07:52:18 2.1 C 37 %
2065 14-04-2020 08:02:17 2.2 C 38 %
2066 14-04-2020 08:12:17 2.3 C 37 %
2067 14-04-2020 08:22:18 1.7 C 39 %
2068 14-04-2020 08:32:17 1.7 C 40 %
2069 14-04-2020 08:42:17 2.2 C 38 %
2070 14-04-2020 08:52:17 2.4 C 38 %
2071 14-04-2020 09:02:18 3 C 37 %
2072 14-04-2020 09:12:18 3.8 C 36 %
2073 14-04-2020 09:22:17 4.7 C 34 %
2074 14-04-2020 09:32:18 5.7 C 32 %
2075 14-04-2020 09:42:18 5.3 C 31 %
Sensor: Nr:Datum:Temp:Feuchte:
Aussen-T/F 2076 14-04-2020 09:52:17 6 C 31 %
2077 14-04-2020 10:02:17 6.6 C 30 %
2078 14-04-2020 10:12:17 5.8 C 30 %
2079 14-04-2020 10:22:17 5.9 C 30 %
2080 14-04-2020 10:32:17 6.7 C 30 %
2081 14-04-2020 10:42:17 7.4 C 26 %
2082 14-04-2020 10:52:18 8.4 C 23 %
2083 14-04-2020 11:02:17 8.2 C 21 %
2084 14-04-2020 11:12:17 8 C 20 %
2085 14-04-2020 11:22:17 7.9 C 20 %
2086 14-04-2020 11:32:17 8.2 C 20 %
2087 14-04-2020 11:42:17 9.1 C 20 %
2088 14-04-2020 11:52:18 8.4 C 20 %
2089 14-04-2020 12:02:17 8.5 C 20 %
2090 14-04-2020 12:12:17 8.6 C 20 %
2091 14-04-2020 12:22:17 8.9 C 20 %
2092 14-04-2020 12:32:17 8.6 C 20 %
2093 14-04-2020 12:42:17 9.8 C 20 %
2094 14-04-2020 12:52:17 10.6 C 20 %
2095 14-04-2020 13:02:18 10.2 C 20 %
2096 14-04-2020 13:12:18 10 C 20 %
2097 14-04-2020 13:22:17 10.4 C 20 %
2098 14-04-2020 13:32:17 10.7 C 20 %
2099 14-04-2020 13:42:17 10 C 20 %
2100 14-04-2020 13:52:18 9.5 C 20 %
Sensor: Nr:Datum:Temp:Feuchte:
Aussen-T/F 2101 14-04-2020 14:02:17 9.8 C 20 %
2102 14-04-2020 14:12:18 10.3 C 20 %
2103 14-04-2020 14:22:18 11.8 C 20 %
2104 14-04-2020 14:32:18 14.5 C 20 %
2105 14-04-2020 14:42:18 17.4 C 20 %
2106 14-04-2020 14:52:17 16.8 C 20 %
2107 14-04-2020 15:02:17 17.6 C 20 %
2108 14-04-2020 15:12:18 21 C 20 %
2109 14-04-2020 15:22:17 14.7 C 20 %
2110 14-04-2020 15:32:17 16.7 C 20 %
2111 14-04-2020 15:42:17 14 C 20 %
2112 14-04-2020 15:52:17 14 C 20 %
2113 14-04-2020 16:02:17 15 C 20 %
2114 14-04-2020 16:12:17 17.2 C 20 %
2115 14-04-2020 16:22:17 17.7 C 20 %
2116 14-04-2020 16:32:18 16.3 C 20 %
2117 14-04-2020 16:42:18 14 C 20 %
2118 14-04-2020 16:52:17 14.5 C 20 %
2119 14-04-2020 17:02:18 12.2 C 20 %
2120 14-04-2020 17:12:18 14.2 C 20 %
2121 14-04-2020 17:22:17 19.2 C 20 %
2122 14-04-2020 17:32:17 16.8 C 20 %
2123 14-04-2020 17:42:18 15.5 C 20 %
2124 14-04-2020 17:52:17 16 C 20 %
2125 14-04-2020 18:02:18 13.4 C 20 %
Sensor: Nr:Datum:Temp:Feuchte:
Aussen-T/F 2126 14-04-2020 18:12:18 12.4 C 20 %
2127 14-04-2020 18:22:17 12.1 C 20 %
2128 14-04-2020 18:32:18 11.9 C 20 %
2129 14-04-2020 18:42:18 11.7 C 20 %
2130 14-04-2020 18:52:17 11.3 C 20 %
2131 14-04-2020 19:02:17 11.2 C 20 %
2132 14-04-2020 19:12:18 11 C 20 %
2133 14-04-2020 19:22:18 10.6 C 20 %
2134 14-04-2020 19:32:18 10.3 C 20 %
2135 14-04-2020 19:42:18 10.1 C 20 %
2136 14-04-2020 19:52:17 9.7 C 20 %
2137 14-04-2020 20:02:17 9.3 C 20 %
2138 14-04-2020 20:12:17 8.9 C 20 %
2139 14-04-2020 20:22:17 7.7 C 20 %
2140 14-04-2020 20:32:17 7 C 23 %
2141 14-04-2020 20:42:18 6.7 C 25 %
2142 14-04-2020 20:52:17 6.8 C 25 %
2143 14-04-2020 21:02:17 6.5 C 25 %
2144 14-04-2020 21:12:17 6.3 C 25 %
2145 14-04-2020 21:22:17 6 C 26 %
2146 14-04-2020 21:32:17 6.1 C 26 %
2147 14-04-2020 21:42:17 5.8 C 27 %
2148 14-04-2020 21:52:17 5.6 C 27 %
2149 14-04-2020 22:02:18 5.6 C 27 %
2150 14-04-2020 22:12:18 5.1 C 29 %
Sensor: Nr:Datum:Temp:Feuchte:
Aussen-T/F 2151 14-04-2020 22:22:17 5.2 C 28 %
2152 14-04-2020 22:32:18 5 C 29 %
2153 14-04-2020 22:42:18 4.7 C 30 %
2154 14-04-2020 22:52:18 4.7 C 30 %
2155 14-04-2020 23:02:18 4.3 C 32 %
2156 14-04-2020 23:12:18 3.6 C 34 %
2157 14-04-2020 23:22:17 3.2 C 35 %
2158 14-04-2020 23:32:17 3 C 35 %
2159 14-04-2020 23:42:17 2.8 C 36 %
2160 14-04-2020 23:52:17 2.6 C 36 %
2161 15-04-2020 00:02:18 2.4 C 37 %
2162 15-04-2020 00:12:18 2.1 C 37 %
2163 15-04-2020 00:22:17 1.7 C 39 %
2164 15-04-2020 00:32:18 1.6 C 39 %
2165 15-04-2020 00:42:18 1.6 C 40 %
2166 15-04-2020 00:52:17 1.6 C 39 %
2167 15-04-2020 01:02:17 1.5 C 40 %
2168 15-04-2020 01:12:17 1.3 C 40 %
2169 15-04-2020 01:22:17 1.2 C 40 %
2170 15-04-2020 01:32:17 1.3 C 40 %
2171 15-04-2020 01:42:17 1.2 C 40 %
2172 15-04-2020 01:52:17 1 C 40 %
2173 15-04-2020 02:02:17 0.8 C 41 %
2174 15-04-2020 02:12:17 0.8 C 42 %
2175 15-04-2020 02:22:17 0.8 C 42 %
Sensor: Nr:Datum:Temp:Feuchte:
Aussen-T/F 2176 15-04-2020 02:32:17 0.7 C 42 %
2177 15-04-2020 02:42:17 0.6 C 42 %
2178 15-04-2020 02:52:17 0.1 C 42 %
2179 15-04-2020 03:02:17 0.2 C 43 %
2180 15-04-2020 03:12:17 0.3 C 43 %
2181 15-04-2020 03:22:17 0.2 C 43 %
2182 15-04-2020 03:32:18 0.5 C 43 %
2183 15-04-2020 03:42:18 0.1 C 43 %
2184 15-04-2020 03:52:18 0 C 43 %
2185 15-04-2020 04:02:18 0.2 C 43 %
2186 15-04-2020 04:12:18 -0.2 C 43 %
2187 15-04-2020 04:22:17 0 C 44 %
2188 15-04-2020 04:32:18 -0.2 C 43 %
2189 15-04-2020 04:42:18 -0.3 C 44 %
2190 15-04-2020 04:52:17 -0.4 C 44 %
2191 15-04-2020 05:02:18 -0.4 C 44 %
2192 15-04-2020 05:12:18 -0.3 C 44 %
2193 15-04-2020 05:22:17 -0.4 C 45 %
2194 15-04-2020 05:32:17 -0.5 C 45 %
2195 15-04-2020 05:42:17 -0.4 C 45 %
2196 15-04-2020 05:52:17 -0.7 C 45 %
2197 15-04-2020 06:02:17 -0.7 C 45 %
2198 15-04-2020 06:12:17 -0.7 C 45 %
2199 15-04-2020 06:22:17 -0.7 C 45 %
2200 15-04-2020 06:32:17 -0.6 C 45 %
Sensor: Nr:Datum:Temp:Feuchte:
Aussen-T/F 2201 15-04-2020 06:42:17 -0.7 C 45 %
2202 15-04-2020 06:52:17 -0.9 C 45 %
2203 15-04-2020 07:02:17 -0.7 C 45 %
2204 15-04-2020 07:12:17 -0.6 C 45 %
2205 15-04-2020 07:22:17 -0.5 C 45 %
2206 15-04-2020 07:32:17 -0.1 C 46 %
2207 15-04-2020 07:42:17 0.1 C 45 %
2208 15-04-2020 07:52:18 0.4 C 45 %
2209 15-04-2020 08:02:17 0.7 C 45 %
2210 15-04-2020 08:12:17 1 C 43 %
2211 15-04-2020 08:22:18 1.4 C 42 %
2212 15-04-2020 08:32:18 1.6 C 41 %
2213 15-04-2020 08:42:18 1.9 C 41 %
2214 15-04-2020 08:52:18 2.4 C 40 %
2215 15-04-2020 09:02:17 2.8 C 40 %
2216 15-04-2020 09:12:17 3 C 38 %
2217 15-04-2020 09:22:18 3.4 C 38 %
2218 15-04-2020 09:32:18 3.5 C 37 %
2219 15-04-2020 09:42:18 4.2 C 36 %
2220 15-04-2020 09:52:17 4.4 C 36 %
2221 15-04-2020 10:02:18 4.9 C 35 %
2222 15-04-2020 10:12:18 5.4 C 35 %
2223 15-04-2020 10:22:18 6.2 C 34 %
2224 15-04-2020 10:32:18 6.9 C 33 %
2225 15-04-2020 10:42:18 7.4 C 31 %
Sensor: Nr:Datum:Temp:Feuchte:
Aussen-T/F 2226 15-04-2020 10:52:18 8.1 C 30 %
2227 15-04-2020 11:02:17 8.5 C 30 %
2228 15-04-2020 11:12:17 9.2 C 29 %
2229 15-04-2020 11:22:18 9.9 C 28 %
2230 15-04-2020 11:32:17 10.4 C 26 %
2231 15-04-2020 11:42:17 11 C 22 %
2232 15-04-2020 11:52:18 11.6 C 20 %
2233 15-04-2020 12:02:17 12.3 C 20 %
2234 15-04-2020 12:12:17 12.2 C 20 %
2235 15-04-2020 12:22:18 13.3 C 20 %
2236 15-04-2020 12:32:18 13.2 C 20 %
2237 15-04-2020 12:42:18 13.3 C 20 %
2238 15-04-2020 12:52:17 13.2 C 20 %
2239 15-04-2020 13:02:17 13.4 C 20 %
2240 15-04-2020 13:12:17 13.5 C 20 %
2241 15-04-2020 13:22:18 13.4 C 20 %
2242 15-04-2020 13:32:18 14.2 C 20 %
2243 15-04-2020 13:42:18 14.4 C 20 %
2244 15-04-2020 13:52:17 14.7 C 20 %
2245 15-04-2020 14:02:17 15.2 C 20 %
2246 15-04-2020 14:12:17 15.5 C 20 %
2247 15-04-2020 14:22:17 16.9 C 20 %
2248 15-04-2020 14:32:17 21.6 C 20 %
2249 15-04-2020 14:42:17 23.9 C 20 %
2250 15-04-2020 14:52:17 25.2 C 20 %
Sensor: Nr:Datum:Temp:Feuchte:
Aussen-T/F 2251 15-04-2020 15:02:18 24.8 C 20 %
2252 15-04-2020 15:12:18 23.5 C 20 %
2253 15-04-2020 15:22:18 24.4 C 20 %
2254 15-04-2020 15:32:18 23.9 C 20 %
2255 15-04-2020 15:42:18 24.5 C 20 %
2256 15-04-2020 15:52:17 24.4 C 20 %
2257 15-04-2020 16:02:18 24.8 C 20 %
2258 15-04-2020 16:12:18 24.6 C 20 %
2259 15-04-2020 16:22:17 23.3 C 20 %
2260 15-04-2020 16:32:18 23.7 C 20 %
2261 15-04-2020 16:42:18 25.4 C 20 %
2262 15-04-2020 16:52:18 25.9 C 20 %
2263 15-04-2020 17:02:17 25.4 C 20 %
2264 15-04-2020 17:12:17 26.8 C 20 %
2265 15-04-2020 17:22:18 24.8 C 20 %
2266 15-04-2020 17:32:17 24 C 20 %
2267 15-04-2020 17:42:17 22.4 C 20 %
2268 15-04-2020 17:52:18 24.4 C 20 %
2269 15-04-2020 18:02:18 20.6 C 20 %
2270 15-04-2020 18:12:18 20.2 C 20 %
2271 15-04-2020 18:22:18 19.7 C 20 %
2272 15-04-2020 18:32:18 19.1 C 20 %
2273 15-04-2020 18:42:18 19.4 C 20 %
2274 15-04-2020 18:52:17 19.4 C 20 %
2275 15-04-2020 19:02:17 18.8 C 20 %
Sensor: Nr:Datum:Temp:Feuchte:
Aussen-T/F 2276 15-04-2020 19:12:17 18.7 C 20 %
2277 15-04-2020 19:22:17 18.2 C 20 %
2278 15-04-2020 19:32:17 18 C 20 %
2279 15-04-2020 19:42:18 17.3 C 20 %
2280 15-04-2020 19:52:17 15.3 C 20 %
2281 15-04-2020 20:02:18 14 C 20 %
2282 15-04-2020 20:12:18 13.6 C 20 %
2283 15-04-2020 20:22:18 13.4 C 20 %
2284 15-04-2020 20:32:17 13.1 C 20 %
2285 15-04-2020 20:42:18 12.7 C 20 %
2286 15-04-2020 20:52:17 12 C 20 %
2287 15-04-2020 21:02:18 12 C 20 %
2288 15-04-2020 21:12:18 11 C 20 %
2289 15-04-2020 21:22:17 11 C 20 %
2290 15-04-2020 21:32:17 10.5 C 20 %
2291 15-04-2020 21:42:17 9.4 C 25 %
2292 15-04-2020 21:52:17 9 C 26 %
2293 15-04-2020 22:02:17 8.9 C 27 %
2294 15-04-2020 22:12:17 8.6 C 28 %
2295 15-04-2020 22:22:17 8.8 C 28 %
2296 15-04-2020 22:32:18 8.1 C 28 %
2297 15-04-2020 22:42:18 7.7 C 29 %
2298 15-04-2020 22:52:17 7.3 C 30 %
2299 15-04-2020 23:02:17 7.1 C 30 %
2300 15-04-2020 23:12:17 7.2 C 30 %
Sensor: Nr:Datum:Temp:Feuchte:
Aussen-T/F 2301 15-04-2020 23:22:17 7 C 30 %
2302 15-04-2020 23:32:17 6.6 C 31 %
2303 15-04-2020 23:42:18 6.4 C 32 %
2304 15-04-2020 23:52:17 6.2 C 32 %
2305 16-04-2020 00:02:17 6.2 C 32 %
2306 16-04-2020 00:12:17 6 C 33 %
2307 16-04-2020 00:22:17 5.8 C 34 %
2308 16-04-2020 00:32:18 5.5 C 35 %
2309 16-04-2020 00:42:18 5.3 C 35 %
2310 16-04-2020 00:52:17 5.2 C 35 %
2311 16-04-2020 01:02:17 4.8 C 35 %
2312 16-04-2020 01:12:17 4.8 C 35 %
2313 16-04-2020 01:22:17 5.1 C 35 %
2314 16-04-2020 01:32:18 5.1 C 35 %
2315 16-04-2020 01:42:18 4.7 C 36 %
2316 16-04-2020 01:52:17 4.8 C 36 %
2317 16-04-2020 02:02:18 4.6 C 36 %
2318 16-04-2020 02:12:18 4.3 C 36 %
2319 16-04-2020 02:22:18 3.9 C 38 %
2320 16-04-2020 02:32:17 4.1 C 38 %
2321 16-04-2020 02:42:17 4 C 38 %
2322 16-04-2020 02:52:17 3.7 C 39 %
2323 16-04-2020 03:02:17 3.6 C 40 %
2324 16-04-2020 03:12:17 3.6 C 39 %
2325 16-04-2020 03:22:17 3.5 C 39 %
Sensor: Nr:Datum:Temp:Feuchte:
Aussen-T/F 2326 16-04-2020 03:32:17 3.3 C 39 %
2327 16-04-2020 03:42:17 3 C 40 %
2328 16-04-2020 03:52:17 2.9 C 41 %
2329 16-04-2020 04:02:17 3.2 C 40 %
2330 16-04-2020 04:12:17 3.2 C 40 %
2331 16-04-2020 04:22:17 2.7 C 41 %
2332 16-04-2020 04:32:18 2.6 C 41 %
2333 16-04-2020 04:42:18 3 C 41 %
2334 16-04-2020 04:52:17 2.6 C 42 %
2335 16-04-2020 05:02:17 2.7 C 42 %
2336 16-04-2020 05:12:17 2.7 C 42 %
2337 16-04-2020 05:22:17 2.6 C 42 %
2338 16-04-2020 05:32:17 2.3 C 42 %
2339 16-04-2020 05:42:17 2 C 42 %
2340 16-04-2020 05:52:17 2.1 C 43 %
2341 16-04-2020 06:02:18 2.4 C 43 %
2342 16-04-2020 06:12:18 2 C 42 %
2343 16-04-2020 06:22:17 1.6 C 44 %
2344 16-04-2020 06:32:17 1.4 C 44 %
2345 16-04-2020 06:42:17 1.8 C 45 %
2346 16-04-2020 06:52:17 1.8 C 45 %
2347 16-04-2020 07:02:17 1.8 C 45 %
2348 16-04-2020 07:12:17 1.8 C 45 %
2349 16-04-2020 07:22:17 2.2 C 44 %
2350 16-04-2020 07:32:17 2.1 C 44 %
Sensor: Nr:Datum:Temp:Feuchte:
Aussen-T/F 2351 16-04-2020 07:42:17 2.1 C 44 %
2352 16-04-2020 07:52:17 2.5 C 44 %
2353 16-04-2020 08:02:17 2.5 C 44 %
2354 16-04-2020 08:12:17 2.6 C 44 %
2355 16-04-2020 08:22:17 3 C 43 %
2356 16-04-2020 08:32:18 3.2 C 42 %
2357 16-04-2020 08:42:18 3.5 C 42 %
2358 16-04-2020 08:52:17 3.6 C 41 %
2359 16-04-2020 09:02:18 3.9 C 41 %
2360 16-04-2020 09:12:18 4.2 C 41 %
2361 16-04-2020 09:22:17 4.5 C 40 %
2362 16-04-2020 09:32:17 5.1 C 40 %
2363 16-04-2020 09:42:17 5.8 C 39 %
2364 16-04-2020 09:52:17 6.6 C 37 %
2365 16-04-2020 10:02:18 7 C 36 %
2366 16-04-2020 10:12:18 7.5 C 36 %
2367 16-04-2020 10:22:17 8.1 C 35 %
2368 16-04-2020 10:32:17 9.4 C 34 %
2369 16-04-2020 10:42:18 10.4 C 31 %
2370 16-04-2020 10:52:17 11.2 C 30 %
2371 16-04-2020 11:02:18 12.2 C 29 %
2372 16-04-2020 11:12:18 14.2 C 25 %
2373 16-04-2020 11:22:17 15.5 C 20 %
2374 16-04-2020 11:32:17 16.8 C 20 %
2375 16-04-2020 11:42:17 17.6 C 20 %
Sensor: Nr:Datum:Temp:Feuchte:
Aussen-T/F 2376 16-04-2020 11:52:17 18 C 20 %
2377 16-04-2020 12:02:18 18.4 C 20 %
2378 16-04-2020 12:12:18 18.7 C 20 %
2379 16-04-2020 12:22:17 19.1 C 20 %
2380 16-04-2020 12:32:18 19.3 C 20 %
2381 16-04-2020 12:42:18 19.5 C 20 %
2382 16-04-2020 12:52:17 19.6 C 20 %
2383 16-04-2020 13:02:18 20.1 C 20 %
2384 16-04-2020 13:12:18 20.5 C 20 %
2385 16-04-2020 13:22:17 20.8 C 20 %
2386 16-04-2020 13:32:18 21.1 C 20 %
2387 16-04-2020 13:42:18 21.5 C 20 %
2388 16-04-2020 13:52:17 21.7 C 20 %
2389 16-04-2020 14:02:17 22 C 20 %
2390 16-04-2020 14:12:17 22.4 C 20 %
2391 16-04-2020 14:22:17 22.8 C 20 %
2392 16-04-2020 14:32:17 26.2 C 20 %
2393 16-04-2020 14:42:17 28 C 20 %
2394 16-04-2020 14:52:17 29.6 C 20 %
2395 16-04-2020 15:02:17 29.8 C 20 %
2396 16-04-2020 15:12:17 29.5 C 20 %
2397 16-04-2020 15:22:17 28.5 C 20 %
2398 16-04-2020 15:32:18 30.1 C 20 %
2399 16-04-2020 15:42:18 25.8 C 20 %
2400 16-04-2020 15:52:17 27.1 C 20 %
Sensor: Nr:Datum:Temp:Feuchte:
Aussen-T/F 2401 16-04-2020 16:02:17 29.5 C 20 %
2402 16-04-2020 16:12:17 28.4 C 20 %
2403 16-04-2020 16:22:17 26.5 C 20 %
2404 16-04-2020 16:32:17 26.6 C 20 %
2405 16-04-2020 16:42:18 27.2 C 20 %
2406 16-04-2020 16:52:17 24.9 C 20 %
2407 16-04-2020 17:02:17 25 C 20 %
2408 16-04-2020 17:12:17 26.1 C 20 %
2409 16-04-2020 17:22:18 28.3 C 20 %
2410 16-04-2020 17:32:17 27.6 C 20 %
2411 16-04-2020 17:42:17 27.3 C 20 %
2412 16-04-2020 17:52:17 26.5 C 20 %
2413 16-04-2020 18:02:17 25.6 C 20 %
2414 16-04-2020 18:12:17 24.3 C 20 %
2415 16-04-2020 18:22:17 24.4 C 20 %
2416 16-04-2020 18:32:17 24.2 C 20 %
2417 16-04-2020 18:42:17 23.9 C 20 %
2418 16-04-2020 18:52:17 24 C 20 %
2419 16-04-2020 19:02:17 23.2 C 20 %
2420 16-04-2020 19:12:17 22.9 C 20 %
2421 16-04-2020 19:22:17 22.2 C 20 %
2422 16-04-2020 19:32:18 21.9 C 20 %
2423 16-04-2020 19:42:18 21.2 C 20 %
2424 16-04-2020 19:52:17 20.5 C 20 %
2425 16-04-2020 20:02:17 19.5 C 20 %
Sensor: Nr:Datum:Temp:Feuchte:
Aussen-T/F 2426 16-04-2020 20:12:17 19.2 C 20 %
2427 16-04-2020 20:22:17 19.3 C 20 %
2428 16-04-2020 20:32:18 19.1 C 20 %
2429 16-04-2020 20:42:18 18.9 C 20 %
2430 16-04-2020 20:52:18 18.5 C 20 %
2431 16-04-2020 21:02:17 17.9 C 20 %
2432 16-04-2020 21:12:17 16.5 C 20 %
2433 16-04-2020 21:22:17 16.1 C 20 %
2434 16-04-2020 21:32:18 15.5 C 20 %
2435 16-04-2020 21:42:18 14.7 C 21 %
2436 16-04-2020 21:52:17 14.4 C 22 %
2437 16-04-2020 22:02:17 14.5 C 22 %
2438 16-04-2020 22:12:17 13.5 C 25 %
2439 16-04-2020 22:22:17 14.1 C 25 %
2440 16-04-2020 22:32:17 13.8 C 25 %
2441 16-04-2020 22:42:18 13.1 C 26 %
2442 16-04-2020 22:52:17 12.4 C 28 %
2443 16-04-2020 23:02:17 12.5 C 29 %
2444 16-04-2020 23:12:17 12.2 C 30 %
2445 16-04-2020 23:22:17 11.7 C 30 %
2446 16-04-2020 23:32:18 11.6 C 31 %
2447 16-04-2020 23:42:18 11.6 C 31 %
2448 16-04-2020 23:52:17 11.8 C 31 %
2449 17-04-2020 00:02:18 11.4 C 31 %
2450 17-04-2020 00:12:18 11 C 31 %
Sensor: Nr:Datum:Temp:Feuchte:
Aussen-T/F 2451 17-04-2020 00:22:17 11 C 32 %
2452 17-04-2020 00:32:17 11 C 32 %
2453 17-04-2020 00:42:17 11 C 32 %
2454 17-04-2020 00:52:18 10.4 C 33 %
2455 17-04-2020 01:02:17 10.1 C 34 %
2456 17-04-2020 01:12:18 10.1 C 34 %
2457 17-04-2020 01:22:18 9.8 C 35 %
2458 17-04-2020 01:32:18 10 C 35 %
2459 17-04-2020 01:42:18 10 C 35 %
2460 17-04-2020 01:52:17 9.5 C 36 %
2461 17-04-2020 02:02:17 9.7 C 36 %
2462 17-04-2020 02:12:17 9.6 C 36 %
2463 17-04-2020 02:22:17 9.1 C 36 %
2464 17-04-2020 02:32:17 8.9 C 37 %
2465 17-04-2020 02:42:17 8.5 C 38 %
2466 17-04-2020 02:52:17 8.1 C 38 %
2467 17-04-2020 03:02:17 7.9 C 39 %
2468 17-04-2020 03:12:18 7.9 C 40 %
2469 17-04-2020 03:22:18 7.8 C 40 %
2470 17-04-2020 03:32:17 7.8 C 40 %
2471 17-04-2020 03:42:18 7.8 C 40 %
2472 17-04-2020 03:52:18 8.5 C 39 %
2473 17-04-2020 04:02:17 8.4 C 39 %
2474 17-04-2020 04:12:17 8.3 C 39 %
2475 17-04-2020 04:22:17 8 C 39 %
Sensor: Nr:Datum:Temp:Feuchte:
Aussen-T/F 2476 17-04-2020 04:32:17 7.9 C 40 %
2477 17-04-2020 04:42:17 8 C 40 %
2478 17-04-2020 04:52:17 7.8 C 40 %
2479 17-04-2020 05:02:17 7.5 C 40 %
2480 17-04-2020 05:12:18 6.9 C 41 %
2481 17-04-2020 05:22:17 6.7 C 42 %
2482 17-04-2020 05:32:18 6.6 C 42 %
2483 17-04-2020 05:42:18 6.7 C 43 %
2484 17-04-2020 05:52:18 6.5 C 42 %
2485 17-04-2020 06:02:18 6.5 C 43 %
2486 17-04-2020 06:12:18 6.2 C 43 %
2487 17-04-2020 06:22:17 6 C 43 %
2488 17-04-2020 06:32:17 6 C 44 %
2489 17-04-2020 06:42:17 5.8 C 44 %
2490 17-04-2020 06:52:17 5.8 C 44 %
2491 17-04-2020 07:02:18 5.8 C 45 %
2492 17-04-2020 07:12:18 5.9 C 45 %
2493 17-04-2020 07:22:18 6.1 C 45 %
2494 17-04-2020 07:32:17 6.1 C 45 %
2495 17-04-2020 07:42:17 6.3 C 45 %
2496 17-04-2020 07:52:17 6.3 C 45 %
2497 17-04-2020 08:02:17 6.5 C 45 %
2498 17-04-2020 08:12:17 6.7 C 45 %
2499 17-04-2020 08:22:17 6.9 C 45 %
2500 17-04-2020 08:32:18 7 C 44 %
Sensor: Nr:Datum:Temp:Feuchte:
Aussen-T/F 2501 17-04-2020 08:42:18 7.6 C 44 %
2502 17-04-2020 08:52:17 7.9 C 44 %
2503 17-04-2020 09:02:18 8.4 C 42 %
2504 17-04-2020 09:12:18 8.6 C 42 %
2505 17-04-2020 09:22:17 8.8 C 41 %
2506 17-04-2020 09:32:17 9.3 C 41 %
2507 17-04-2020 09:42:17 9.6 C 40 %
2508 17-04-2020 09:52:18 10.3 C 39 %
2509 17-04-2020 10:02:17 10.8 C 38 %
2510 17-04-2020 10:12:17 11 C 37 %
2511 17-04-2020 10:22:18 11.8 C 36 %
2512 17-04-2020 10:32:18 12.4 C 35 %
2513 17-04-2020 10:42:18 13 C 34 %
2514 17-04-2020 10:52:17 13.9 C 34 %
2515 17-04-2020 11:02:17 14.6 C 32 %
2516 17-04-2020 11:12:17 15.8 C 30 %
2517 17-04-2020 11:22:18 16.5 C 28 %
2518 17-04-2020 11:32:17 17.1 C 28 %
2519 17-04-2020 11:42:17 17.7 C 26 %
2520 17-04-2020 11:52:17 17.9 C 25 %
2521 17-04-2020 12:02:18 18.5 C 25 %
2522 17-04-2020 12:12:18 18.7 C 24 %
2523 17-04-2020 12:22:17 19.1 C 22 %
2524 17-04-2020 12:32:17 19.7 C 20 %
2525 17-04-2020 12:42:17 19.7 C 20 %
Sensor: Nr:Datum:Temp:Feuchte:
Aussen-T/F 2526 17-04-2020 12:52:17 19.7 C 20 %
2527 17-04-2020 13:02:18 20 C 20 %
2528 17-04-2020 13:12:18 20.4 C 20 %
2529 17-04-2020 13:22:17 20.6 C 20 %
2530 17-04-2020 13:32:17 20.8 C 20 %
2531 17-04-2020 13:42:17 21.1 C 20 %
2532 17-04-2020 13:52:17 21.6 C 20 %
2533 17-04-2020 14:02:18 21.8 C 20 %
2534 17-04-2020 14:12:18 22.6 C 20 %
2535 17-04-2020 14:22:17 23.2 C 20 %
2536 17-04-2020 14:32:17 25.2 C 20 %
2537 17-04-2020 14:42:17 29 C 20 %
2538 17-04-2020 14:52:17 32.1 C 20 %
2539 17-04-2020 15:02:17 30.9 C 20 %
2540 17-04-2020 15:12:17 31.4 C 20 %
2541 17-04-2020 15:22:17 29.6 C 20 %
2542 17-04-2020 15:32:17 29.2 C 20 %
2543 17-04-2020 15:42:17 29 C 20 %
2544 17-04-2020 15:52:18 25.7 C 20 %
2545 17-04-2020 16:02:17 30.3 C 20 %
2546 17-04-2020 16:12:17 30.2 C 20 %
2547 17-04-2020 16:22:17 27.5 C 20 %
2548 17-04-2020 16:32:17 28.2 C 20 %
2549 17-04-2020 16:42:17 28.2 C 20 %
2550 17-04-2020 16:52:17 27.7 C 20 %
Sensor: Nr:Datum:Temp:Feuchte:
Aussen-T/F 2551 17-04-2020 17:02:18 29.6 C 20 %
2552 17-04-2020 17:12:18 29.4 C 20 %
2553 17-04-2020 17:22:17 29.5 C 20 %
2554 17-04-2020 17:32:17 30.4 C 20 %
2555 17-04-2020 17:42:18 27.7 C 20 %
2556 17-04-2020 17:52:17 28.5 C 20 %
2557 17-04-2020 18:02:17 26.6 C 20 %
2558 17-04-2020 18:12:17 26.2 C 20 %
2559 17-04-2020 18:22:17 25.7 C 20 %
2560 17-04-2020 18:32:17 24.8 C 20 %
2561 17-04-2020 18:42:17 24.7 C 20 %
2562 17-04-2020 18:52:18 24.2 C 20 %
2563 17-04-2020 19:02:17 24.1 C 20 %
2564 17-04-2020 19:12:17 23.7 C 20 %
2565 17-04-2020 19:22:17 23 C 20 %
2566 17-04-2020 19:32:17 22.2 C 20 %
2567 17-04-2020 19:42:17 21.7 C 20 %
2568 17-04-2020 19:52:17 20.7 C 20 %
2569 17-04-2020 20:02:17 20 C 20 %
2570 17-04-2020 20:12:17 19.5 C 20 %
2571 17-04-2020 20:22:17 18.8 C 21 %
2572 17-04-2020 20:32:17 18.4 C 21 %
2573 17-04-2020 20:42:17 18.2 C 21 %
2574 17-04-2020 20:52:17 17.7 C 23 %
2575 17-04-2020 21:02:17 17.5 C 23 %
Sensor: Nr:Datum:Temp:Feuchte:
Aussen-T/F 2576 17-04-2020 21:12:17 17.7 C 24 %
2577 17-04-2020 21:22:17 17.6 C 25 %
2578 17-04-2020 21:32:18 17.8 C 24 %
2579 17-04-2020 21:42:18 17 C 25 %
2580 17-04-2020 21:52:18 16.8 C 25 %
2581 17-04-2020 22:02:17 16 C 26 %
2582 17-04-2020 22:12:17 16 C 26 %
2583 17-04-2020 22:22:17 15.8 C 26 %
2584 17-04-2020 22:32:17 15.7 C 26 %
2585 17-04-2020 22:42:17 15.1 C 27 %
2586 17-04-2020 22:52:17 14.6 C 29 %
2587 17-04-2020 23:02:17 14.7 C 30 %
2588 17-04-2020 23:12:17 14.4 C 29 %
2589 17-04-2020 23:22:18 14.1 C 30 %
2590 17-04-2020 23:32:17 14 C 30 %
2591 17-04-2020 23:42:17 13.6 C 31 %
2592 17-04-2020 23:52:17 13.5 C 31 %
2593 18-04-2020 00:02:17 13.4 C 31 %
2594 18-04-2020 00:12:17 13.1 C 32 %
2595 18-04-2020 00:22:18 12.6 C 33 %
2596 18-04-2020 00:32:17 12.2 C 33 %
2597 18-04-2020 00:42:18 12 C 33 %
2598 18-04-2020 00:52:17 11.8 C 34 %
2599 18-04-2020 01:02:18 11.8 C 34 %
2600 18-04-2020 01:12:18 11.8 C 34 %
Sensor: Nr:Datum:Temp:Feuchte:
Aussen-T/F 2601 18-04-2020 01:22:17 11.4 C 34 %
2602 18-04-2020 01:32:18 11.1 C 35 %
2603 18-04-2020 01:42:18 10.9 C 36 %
2604 18-04-2020 01:52:17 10.9 C 36 %
2605 18-04-2020 02:02:18 10.8 C 36 %
2606 18-04-2020 02:12:18 10.6 C 36 %
2607 18-04-2020 02:22:17 10.7 C 36 %
2608 18-04-2020 02:32:17 10.1 C 37 %
2609 18-04-2020 02:42:17 10 C 38 %
2610 18-04-2020 02:52:18 9.8 C 38 %
2611 18-04-2020 03:02:17 9.7 C 39 %
2612 18-04-2020 03:12:17 9.6 C 39 %
2613 18-04-2020 03:22:18 9.2 C 39 %
2614 18-04-2020 03:32:18 9 C 39 %
2615 18-04-2020 03:42:18 9 C 39 %
2616 18-04-2020 03:52:18 8.9 C 40 %
2617 18-04-2020 04:02:17 9 C 40 %
2618 18-04-2020 04:12:17 9 C 40 %
2619 18-04-2020 04:22:17 9 C 40 %
2620 18-04-2020 04:32:18 8.9 C 41 %
2621 18-04-2020 04:42:18 8.8 C 41 %
2622 18-04-2020 04:52:17 8.6 C 41 %
2623 18-04-2020 05:02:17 8.4 C 41 %
2624 18-04-2020 05:12:17 8.5 C 41 %
2625 18-04-2020 05:22:17 8.7 C 40 %
Sensor: Nr:Datum:Temp:Feuchte:
Aussen-T/F 2626 18-04-2020 05:32:17 8.6 C 41 %
2627 18-04-2020 05:42:17 8.3 C 41 %
2628 18-04-2020 05:52:18 8.6 C 41 %
2629 18-04-2020 06:02:17 8.7 C 41 %
2630 18-04-2020 06:12:17 8.6 C 41 %
2631 18-04-2020 06:22:17 8.7 C 41 %
2632 18-04-2020 06:32:17 8.3 C 41 %
2633 18-04-2020 06:42:17 8.1 C 41 %
2634 18-04-2020 06:52:17 8.2 C 41 %
2635 18-04-2020 07:02:17 8.4 C 42 %
2636 18-04-2020 07:12:17 8.7 C 42 %
2637 18-04-2020 07:22:17 9.4 C 42 %
2638 18-04-2020 07:32:17 9.6 C 41 %
2639 18-04-2020 07:42:17 9.7 C 41 %
2640 18-04-2020 07:52:17 9.7 C 41 %
2641 18-04-2020 08:02:18 9.7 C 41 %
2642 18-04-2020 08:12:18 10 C 40 %
2643 18-04-2020 08:22:17 10.1 C 40 %
2644 18-04-2020 08:32:17 10.2 C 40 %
2645 18-04-2020 08:42:18 10.6 C 40 %
2646 18-04-2020 08:52:18 11.1 C 39 %
2647 18-04-2020 09:02:17 11.7 C 38 %
2648 18-04-2020 09:12:17 12.1 C 37 %
2649 18-04-2020 09:22:17 12.5 C 36 %
2650 18-04-2020 09:32:18 13.4 C 35 %
Sensor: Nr:Datum:Temp:Feuchte:
Aussen-T/F 2651 18-04-2020 09:42:18 13.8 C 34 %
2652 18-04-2020 09:52:18 14.4 C 32 %
2653 18-04-2020 10:02:18 15 C 31 %
2654 18-04-2020 10:12:18 14.9 C 31 %
2655 18-04-2020 10:22:18 16.2 C 30 %
2656 18-04-2020 10:32:18 15.8 C 30 %
2657 18-04-2020 10:42:18 17.2 C 29 %
2658 18-04-2020 10:52:18 17.9 C 29 %
2659 18-04-2020 11:02:18 18.5 C 27 %
2660 18-04-2020 11:12:18 18.3 C 27 %
2661 18-04-2020 11:22:17 18.5 C 26 %
2662 18-04-2020 11:32:18 17.8 C 27 %
2663 18-04-2020 11:42:18 18.6 C 26 %
2664 18-04-2020 11:52:18 18.9 C 27 %
2665 18-04-2020 12:02:17 19.1 C 26 %
2666 18-04-2020 12:12:17 20 C 25 %
2667 18-04-2020 12:22:18 20.2 C 24 %
2668 18-04-2020 12:32:18 20.1 C 24 %
2669 18-04-2020 12:42:18 19.6 C 25 %
2670 18-04-2020 12:52:17 19.3 C 25 %
2671 18-04-2020 13:02:17 20.8 C 24 %
2672 18-04-2020 13:12:17 21.8 C 21 %
2673 18-04-2020 13:22:18 21.5 C 20 %
2674 18-04-2020 13:32:18 21.8 C 20 %
2675 18-04-2020 13:42:18 22.4 C 20 %
Sensor: Nr:Datum:Temp:Feuchte:
Aussen-T/F 2676 18-04-2020 13:52:18 21.6 C 20 %
2677 18-04-2020 14:02:18 21.2 C 20 %
2678 18-04-2020 14:12:18 21.7 C 20 %
2679 18-04-2020 14:22:18 22.4 C 20 %
2680 18-04-2020 14:32:17 22.4 C 20 %
2681 18-04-2020 14:42:17 22.8 C 20 %
2682 18-04-2020 14:52:17 22.6 C 20 %
2683 18-04-2020 15:02:17 25.4 C 20 %
2684 18-04-2020 15:12:18 30.4 C 20 %
2685 18-04-2020 15:22:17 28.2 C 20 %
2686 18-04-2020 15:32:17 23.8 C 20 %
2687 18-04-2020 15:42:17 23.2 C 20 %
2688 18-04-2020 15:52:17 22.2 C 20 %
2689 18-04-2020 16:02:18 21.8 C 20 %
2690 18-04-2020 16:12:18 21.8 C 20 %
2691 18-04-2020 16:22:18 20.6 C 20 %
2692 18-04-2020 16:32:17 19.7 C 25 %
2693 18-04-2020 16:42:17 20 C 25 %
2694 18-04-2020 16:52:17 19.9 C 25 %
2695 18-04-2020 17:02:17 19.1 C 26 %
2696 18-04-2020 17:12:17 18.9 C 27 %
2697 18-04-2020 17:22:17 18.7 C 28 %
2698 18-04-2020 17:32:18 17.6 C 33 %
2699 18-04-2020 17:42:18 17.5 C 33 %
2700 18-04-2020 17:52:18 17.4 C 33 %
Sensor: Nr:Datum:Temp:Feuchte:
Aussen-T/F 2701 18-04-2020 18:02:18 17.3 C 34 %
2702 18-04-2020 18:12:18 17.1 C 34 %
2703 18-04-2020 18:22:17 17.3 C 33 %
2704 18-04-2020 18:32:18 17.7 C 31 %
2705 18-04-2020 18:42:18 17.7 C 31 %
2706 18-04-2020 18:52:17 17.9 C 30 %
2707 18-04-2020 19:02:18 18.1 C 30 %
2708 18-04-2020 19:12:18 17.9 C 30 %
2709 18-04-2020 19:22:17 17.6 C 30 %
2710 18-04-2020 19:32:17 17.8 C 30 %
2711 18-04-2020 19:42:17 18.1 C 29 %
2712 18-04-2020 19:52:18 17.7 C 30 %
2713 18-04-2020 20:02:17 17.3 C 30 %
2714 18-04-2020 20:12:17 16.5 C 30 %
2715 18-04-2020 20:22:17 15.9 C 31 %
2716 18-04-2020 20:32:17 15 C 32 %
2717 18-04-2020 20:42:17 14.8 C 34 %
2718 18-04-2020 20:52:17 14.5 C 34 %
2719 18-04-2020 21:02:18 14.5 C 35 %
2720 18-04-2020 21:12:18 14.9 C 34 %
2721 18-04-2020 21:22:17 15 C 33 %
2722 18-04-2020 21:32:17 15.1 C 33 %
2723 18-04-2020 21:42:17 15 C 33 %
2724 18-04-2020 21:52:18 14.8 C 34 %
2725 18-04-2020 22:02:17 14.4 C 34 %
Sensor: Nr:Datum:Temp:Feuchte:
Aussen-T/F 2726 18-04-2020 22:12:17 14.5 C 35 %
2727 18-04-2020 22:22:17 13.7 C 35 %
2728 18-04-2020 22:32:18 13.4 C 36 %
2729 18-04-2020 22:42:18 12.8 C 37 %
2730 18-04-2020 22:52:17 12.8 C 37 %
2731 18-04-2020 23:02:18 12.7 C 38 %
2732 18-04-2020 23:12:18 12.3 C 38 %
2733 18-04-2020 23:22:17 12.1 C 38 %
2734 18-04-2020 23:32:17 11.7 C 40 %
2735 18-04-2020 23:42:17 11.1 C 40 %
2736 18-04-2020 23:52:17 10.9 C 42 %
2737 19-04-2020 00:02:18 10.6 C 43 %
2738 19-04-2020 00:12:18 10.7 C 43 %
2739 19-04-2020 00:22:17 10.2 C 43 %
2740 19-04-2020 00:32:17 10.2 C 43 %
2741 19-04-2020 00:42:17 10.1 C 44 %
2742 19-04-2020 00:52:17 9.8 C 44 %
2743 19-04-2020 01:02:17 9.8 C 45 %
2744 19-04-2020 01:12:17 9.9 C 45 %
2745 19-04-2020 01:22:17 9.6 C 44 %
2746 19-04-2020 01:32:17 9.6 C 45 %
2747 19-04-2020 01:42:17 9.9 C 45 %
2748 19-04-2020 01:52:17 9.5 C 45 %
2749 19-04-2020 02:02:17 9.5 C 45 %
2750 19-04-2020 02:12:18 9.6 C 45 %
Sensor: Nr:Datum:Temp:Feuchte:
Aussen-T/F 2751 19-04-2020 02:22:17 9.7 C 45 %
2752 19-04-2020 02:32:17 10 C 45 %
2753 19-04-2020 02:42:17 10 C 44 %
2754 19-04-2020 02:52:17 9.8 C 45 %
2755 19-04-2020 03:02:17 9.6 C 45 %
2756 19-04-2020 03:12:17 9.3 C 44 %
2757 19-04-2020 03:22:17 9.1 C 45 %
2758 19-04-2020 03:32:17 8.9 C 45 %
2759 19-04-2020 03:42:17 8.7 C 45 %
2760 19-04-2020 03:52:17 8.7 C 45 %
2761 19-04-2020 04:02:17 8.5 C 45 %
2762 19-04-2020 04:12:17 9.2 C 45 %
2763 19-04-2020 04:22:17 9.2 C 45 %
2764 19-04-2020 04:32:17 9.4 C 45 %
2765 19-04-2020 04:42:17 9.6 C 45 %
2766 19-04-2020 04:52:17 9.6 C 45 %
2767 19-04-2020 05:02:17 9.7 C 45 %
2768 19-04-2020 05:12:17 9.6 C 45 %
2769 19-04-2020 05:22:18 9.6 C 45 %
2770 19-04-2020 05:32:17 9.7 C 45 %
2771 19-04-2020 05:42:17 9.7 C 45 %
2772 19-04-2020 05:52:17 9.8 C 45 %
2773 19-04-2020 06:02:17 9.9 C 45 %
2774 19-04-2020 06:12:17 10.1 C 44 %
2775 19-04-2020 06:22:17 10.1 C 44 %
Sensor: Nr:Datum:Temp:Feuchte:
Aussen-T/F 2776 19-04-2020 06:32:17 10.2 C 44 %
2777 19-04-2020 06:42:17 10.2 C 44 %
2778 19-04-2020 06:52:18 10.3 C 44 %
2779 19-04-2020 07:02:18 10.3 C 44 %
2780 19-04-2020 07:12:18 10.4 C 44 %
2781 19-04-2020 07:22:17 10.6 C 44 %
2782 19-04-2020 07:32:18 10.5 C 43 %
2783 19-04-2020 07:42:18 10.6 C 43 %
2784 19-04-2020 07:52:17 10.6 C 43 %
2785 19-04-2020 08:02:17 10.7 C 43 %
2786 19-04-2020 08:12:17 11.3 C 42 %
2787 19-04-2020 08:22:17 11.5 C 41 %
2788 19-04-2020 08:32:17 12 C 40 %
2789 19-04-2020 08:42:17 12.4 C 39 %
2790 19-04-2020 08:52:17 13.2 C 37 %
2791 19-04-2020 09:02:17 12.5 C 38 %
2792 19-04-2020 09:12:18 13 C 37 %
2793 19-04-2020 09:22:18 13.2 C 36 %
2794 19-04-2020 09:32:17 13.5 C 36 %
2795 19-04-2020 09:42:17 13.8 C 36 %
2796 19-04-2020 09:52:17 13.8 C 35 %
2797 19-04-2020 10:02:17 13.7 C 35 %
2798 19-04-2020 10:12:17 14.2 C 35 %
2799 19-04-2020 10:22:17 14.7 C 34 %
2800 19-04-2020 10:32:17 15.5 C 33 %
Sensor: Nr:Datum:Temp:Feuchte:
Aussen-T/F 2801 19-04-2020 10:42:17 16.4 C 31 %
2802 19-04-2020 10:52:17 16.4 C 31 %
2803 19-04-2020 11:02:17 15.7 C 32 %
2804 19-04-2020 11:12:17 14.7 C 33 %
2805 19-04-2020 11:22:17 14.7 C 33 %
2806 19-04-2020 11:32:17 14.4 C 34 %
2807 19-04-2020 11:42:17 14 C 34 %
2808 19-04-2020 11:52:17 13.8 C 35 %
2809 19-04-2020 12:02:17 14.2 C 34 %
2810 19-04-2020 12:12:17 14.7 C 34 %
2811 19-04-2020 12:22:17 16 C 31 %
2812 19-04-2020 12:32:18 16 C 31 %
2813 19-04-2020 12:42:18 16.3 C 30 %
2814 19-04-2020 12:52:17 16.9 C 30 %
2815 19-04-2020 13:02:17 17.4 C 28 %
2816 19-04-2020 13:12:17 16.9 C 29 %
2817 19-04-2020 13:22:17 17.4 C 27 %
2818 19-04-2020 13:32:17 18.8 C 26 %
2819 19-04-2020 13:42:17 19.1 C 25 %
2820 19-04-2020 13:52:17 19.3 C 25 %
2821 19-04-2020 14:02:18 18.8 C 25 %
2822 19-04-2020 14:12:18 18.6 C 25 %
2823 19-04-2020 14:22:17 18.1 C 25 %
2824 19-04-2020 14:32:17 17.4 C 26 %
2825 19-04-2020 14:42:17 18 C 26 %
Sensor: Nr:Datum:Temp:Feuchte:
Aussen-T/F 2826 19-04-2020 14:52:17 17.1 C 26 %
2827 19-04-2020 15:02:18 16.9 C 26 %
2828 19-04-2020 15:12:18 16.6 C 26 %
2829 19-04-2020 15:22:17 17 C 25 %
2830 19-04-2020 15:32:17 17.2 C 25 %
2831 19-04-2020 15:42:18 17.8 C 25 %
2832 19-04-2020 15:52:18 18.1 C 24 %
2833 19-04-2020 16:02:17 19.2 C 22 %
2834 19-04-2020 16:12:17 22.2 C 20 %
2835 19-04-2020 16:22:17 20.2 C 20 %
2836 19-04-2020 16:32:17 18.6 C 20 %
2837 19-04-2020 16:42:17 20.5 C 20 %
2838 19-04-2020 16:52:17 21.3 C 20 %
2839 19-04-2020 17:02:17 17.5 C 20 %
2840 19-04-2020 17:12:17 18.6 C 20 %
2841 19-04-2020 17:22:17 19.7 C 20 %
2842 19-04-2020 17:32:18 18.9 C 20 %
2843 19-04-2020 17:42:18 19.2 C 20 %
2844 19-04-2020 17:52:17 18.6 C 20 %
2845 19-04-2020 18:02:18 17.4 C 20 %
2846 19-04-2020 18:12:18 17.3 C 20 %
2847 19-04-2020 18:22:17 17.3 C 20 %
2848 19-04-2020 18:32:17 17.3 C 20 %
2849 19-04-2020 18:42:17 16.8 C 20 %
2850 19-04-2020 18:52:17 16.8 C 20 %
Sensor: Nr:Datum:Temp:Feuchte:
Aussen-T/F 2851 19-04-2020 19:02:17 16.8 C 20 %
2852 19-04-2020 19:12:17 16.7 C 20 %
2853 19-04-2020 19:22:17 16.3 C 20 %
2854 19-04-2020 19:32:18 16 C 20 %
2855 19-04-2020 19:42:18 15.6 C 20 %
2856 19-04-2020 19:52:17 15.1 C 20 %
2857 19-04-2020 20:02:18 14.7 C 20 %
2858 19-04-2020 20:12:18 13.7 C 23 %
2859 19-04-2020 20:22:17 13.3 C 24 %
2860 19-04-2020 20:32:17 13 C 25 %
2861 19-04-2020 20:42:17 12.5 C 26 %
2862 19-04-2020 20:52:17 12.3 C 26 %
2863 19-04-2020 21:02:18 12 C 26 %
2864 19-04-2020 21:12:18 12 C 26 %
2865 19-04-2020 21:22:17 11.7 C 27 %
2866 19-04-2020 21:32:17 11.5 C 27 %
2867 19-04-2020 21:42:17 11.4 C 27 %
2868 19-04-2020 21:52:17 11 C 27 %
2869 19-04-2020 22:02:17 11.2 C 26 %
2870 19-04-2020 22:12:17 11 C 26 %
2871 19-04-2020 22:22:17 11.1 C 26 %
2872 19-04-2020 22:32:17 10.9 C 26 %
2873 19-04-2020 22:42:17 10.3 C 26 %
2874 19-04-2020 22:52:17 10.2 C 26 %
2875 19-04-2020 23:02:18 11.1 C 25 %
Sensor: Nr:Datum:Temp:Feuchte:
Aussen-T/F 2876 19-04-2020 23:12:18 10.1 C 25 %
2877 19-04-2020 23:22:18 9.7 C 27 %
2878 19-04-2020 23:32:17 10.3 C 22 %
2879 19-04-2020 23:42:17 10.3 C 25 %
2880 19-04-2020 23:52:17 10.3 C 23 %
2881 20-04-2020 00:02:17 10.1 C 25 %
2882 20-04-2020 00:12:17 9.6 C 25 %
2883 20-04-2020 00:22:17 10.1 C 21 %
2884 20-04-2020 00:32:18 9.9 C 23 %
2885 20-04-2020 00:42:18 9.6 C 25 %
2886 20-04-2020 00:52:18 9.3 C 25 %
2887 20-04-2020 01:02:17 9.8 C 23 %
2888 20-04-2020 01:12:17 9.3 C 23 %
2889 20-04-2020 01:22:17 9.1 C 21 %
2890 20-04-2020 01:32:17 9.6 C 21 %
2891 20-04-2020 01:42:17 9.1 C 21 %
2892 20-04-2020 01:52:17 8.5 C 25 %
2893 20-04-2020 02:02:18 8.1 C 26 %
2894 20-04-2020 02:12:18 7.9 C 26 %
2895 20-04-2020 02:22:17 7.5 C 27 %
2896 20-04-2020 02:32:18 7.3 C 27 %
2897 20-04-2020 02:42:18 7.3 C 27 %
2898 20-04-2020 02:52:17 7.3 C 27 %
2899 20-04-2020 03:02:17 7 C 27 %
2900 20-04-2020 03:12:17 6.9 C 28 %
Sensor: Nr:Datum:Temp:Feuchte:
Aussen-T/F 2901 20-04-2020 03:22:17 6.7 C 29 %
2902 20-04-2020 03:32:17 6.9 C 28 %
2903 20-04-2020 03:42:17 6.9 C 28 %
2904 20-04-2020 03:52:17 6.7 C 29 %
2905 20-04-2020 04:02:17 6.6 C 28 %
2906 20-04-2020 04:12:17 6.5 C 28 %
2907 20-04-2020 04:22:17 6.4 C 29 %
2908 20-04-2020 04:32:18 6.4 C 28 %
2909 20-04-2020 04:42:18 6.4 C 28 %
2910 20-04-2020 04:52:17 6.2 C 29 %
2911 20-04-2020 05:02:18 6.4 C 29 %
2912 20-04-2020 05:12:18 6.3 C 29 %
2913 20-04-2020 05:22:17 6.3 C 29 %
2914 20-04-2020 05:32:17 6.2 C 30 %
2915 20-04-2020 05:42:18 6.3 C 29 %
2916 20-04-2020 05:52:17 6.3 C 29 %
2917 20-04-2020 06:02:18 6 C 30 %
2918 20-04-2020 06:12:18 5.9 C 30 %
2919 20-04-2020 06:22:17 5.9 C 30 %
2920 20-04-2020 06:32:17 6.1 C 30 %
2921 20-04-2020 06:42:17 6.1 C 30 %
2922 20-04-2020 06:52:17 5.9 C 30 %
2923 20-04-2020 07:02:17 6.1 C 30 %
2924 20-04-2020 07:12:17 6.2 C 30 %
2925 20-04-2020 07:22:17 6.2 C 30 %
Sensor: Nr:Datum:Temp:Feuchte:
Aussen-T/F 2926 20-04-2020 07:32:17 6.4 C 30 %
2927 20-04-2020 07:42:17 7.2 C 27 %
2928 20-04-2020 07:52:17 7.4 C 27 %
2929 20-04-2020 08:02:18 7.3 C 27 %
2930 20-04-2020 08:12:18 7.9 C 26 %
2931 20-04-2020 08:22:17 7.8 C 27 %
2932 20-04-2020 08:32:17 7.7 C 28 %
2933 20-04-2020 08:42:18 7.9 C 26 %
2934 20-04-2020 08:52:18 8.1 C 26 %
2935 20-04-2020 09:02:17 8.3 C 26 %
2936 20-04-2020 09:12:17 8.2 C 27 %
2937 20-04-2020 09:22:17 8.4 C 27 %
2938 20-04-2020 09:32:17 9 C 25 %
2939 20-04-2020 09:42:17 9.4 C 25 %
2940 20-04-2020 09:52:18 9.4 C 26 %
2941 20-04-2020 10:02:18 9.9 C 26 %
2942 20-04-2020 10:12:18 10.7 C 22 %
2943 20-04-2020 10:22:17 11.4 C 20 %
2944 20-04-2020 10:32:17 12.1 C 20 %
2945 20-04-2020 10:42:18 12.7 C 20 %
2946 20-04-2020 10:52:17 13.1 C 20 %
2947 20-04-2020 11:02:18 13.7 C 20 %
2948 20-04-2020 11:12:18 14 C 20 %
2949 20-04-2020 11:22:17 14.4 C 20 %
2950 20-04-2020 11:32:17 14.7 C 20 %
Sensor: Nr:Datum:Temp:Feuchte:
Aussen-T/F 2951 20-04-2020 11:42:18 14.8 C 20 %
2952 20-04-2020 11:52:17 15 C 20 %
2953 20-04-2020 12:02:17 15.2 C 20 %
2954 20-04-2020 12:12:17 15 C 20 %
2955 20-04-2020 12:22:17 15 C 20 %
2956 20-04-2020 12:32:17 15.1 C 20 %
2957 20-04-2020 12:42:17 15.1 C 20 %
2958 20-04-2020 12:52:17 15.4 C 20 %
2959 20-04-2020 13:02:17 15.4 C 20 %
2960 20-04-2020 13:12:17 16 C 20 %
2961 20-04-2020 13:22:17 15.8 C 20 %
2962 20-04-2020 13:32:17 16.1 C 20 %
2963 20-04-2020 13:42:17 16.1 C 20 %
2964 20-04-2020 13:52:17 16.8 C 20 %
2965 20-04-2020 14:02:17 16.9 C 20 %
2966 20-04-2020 14:12:17 17.3 C 20 %
2967 20-04-2020 14:22:17 18.3 C 20 %
2968 20-04-2020 14:32:18 21 C 20 %
2969 20-04-2020 14:42:18 23 C 20 %
2970 20-04-2020 14:52:18 23.2 C 20 %
2971 20-04-2020 15:02:17 22.9 C 20 %
2972 20-04-2020 15:12:17 21.8 C 20 %
2973 20-04-2020 15:22:17 22.9 C 20 %
2974 20-04-2020 15:32:17 23.3 C 20 %
2975 20-04-2020 15:42:17 24.7 C 20 %
Sensor: Nr:Datum:Temp:Feuchte:
Aussen-T/F 2976 20-04-2020 15:52:17 22.5 C 20 %
2977 20-04-2020 16:02:17 24.5 C 20 %
2978 20-04-2020 16:12:17 22.7 C 20 %
2979 20-04-2020 16:22:17 23 C 20 %
2980 20-04-2020 16:32:17 23.5 C 20 %
2981 20-04-2020 16:42:17 23.6 C 20 %
2982 20-04-2020 16:52:17 23.4 C 20 %
2983 20-04-2020 17:02:17 23.7 C 20 %
2984 20-04-2020 17:12:17 22.3 C 20 %
2985 20-04-2020 17:22:17 21.6 C 20 %
2986 20-04-2020 17:32:17 20.4 C 20 %
2987 20-04-2020 17:42:17 22.4 C 20 %
2988 20-04-2020 17:52:17 20.9 C 20 %
2989 20-04-2020 18:02:18 19.1 C 20 %
2990 20-04-2020 18:12:18 19 C 20 %
2991 20-04-2020 18:22:18 18.5 C 20 %
2992 20-04-2020 18:32:17 18.4 C 20 %
2993 20-04-2020 18:42:18 18.2 C 20 %
2994 20-04-2020 18:52:18 18.3 C 20 %
2995 20-04-2020 19:02:17 17.8 C 20 %
2996 20-04-2020 19:12:17 17.6 C 20 %
2997 20-04-2020 19:22:17 17.2 C 20 %
2998 20-04-2020 19:32:17 17 C 20 %
2999 20-04-2020 19:42:17 16.6 C 20 %
3000 20-04-2020 19:52:17 16.3 C 20 %
Sensor: Nr:Datum:Temp:Feuchte:
Aussen-T/F 3001 20-04-2020 20:02:17 16 C 20 %
3002 20-04-2020 20:12:17 15.6 C 20 %
3003 20-04-2020 20:22:17 15 C 20 %
3004 20-04-2020 20:32:17 14.4 C 20 %
3005 20-04-2020 20:42:17 14.5 C 20 %
3006 20-04-2020 20:52:17 13.8 C 20 %
3007 20-04-2020 21:02:17 13.7 C 20 %
3008 20-04-2020 21:12:17 12.9 C 20 %
3009 20-04-2020 21:22:17 12.6 C 20 %
3010 20-04-2020 21:32:17 12 C 20 %
3011 20-04-2020 21:42:17 12.2 C 20 %
3012 20-04-2020 21:52:17 12.6 C 20 %
3013 20-04-2020 22:02:17 11.8 C 20 %
3014 20-04-2020 22:12:17 11.9 C 20 %
3015 20-04-2020 22:22:17 12.1 C 20 %
3016 20-04-2020 22:32:17 12.2 C 20 %
3017 20-04-2020 22:42:17 11.9 C 20 %
3018 20-04-2020 22:52:18 11.5 C 20 %
3019 20-04-2020 23:02:17 11.5 C 20 %
3020 20-04-2020 23:12:17 11.6 C 20 %
3021 20-04-2020 23:22:17 11 C 20 %
3022 20-04-2020 23:32:18 11.6 C 20 %
3023 20-04-2020 23:42:18 11 C 20 %
3024 20-04-2020 23:52:17 11 C 20 %
3025 21-04-2020 00:02:17 10.9 C 20 %
Sensor: Nr:Datum:Temp:Feuchte:
Aussen-T/F 3026 21-04-2020 00:12:17 10.3 C 20 %
3027 21-04-2020 00:22:17 10.4 C 20 %
3028 21-04-2020 00:32:17 9.9 C 20 %
3029 21-04-2020 00:42:17 10.5 C 20 %
3030 21-04-2020 00:52:17 10 C 20 %
3031 21-04-2020 01:02:18 9.4 C 20 %
3032 21-04-2020 01:12:18 8.9 C 20 %
3033 21-04-2020 01:22:18 9 C 20 %
3034 21-04-2020 01:32:18 8.9 C 20 %
3035 21-04-2020 01:42:18 9.2 C 20 %
3036 21-04-2020 01:52:17 8.4 C 20 %
3037 21-04-2020 02:02:17 9.2 C 20 %
3038 21-04-2020 02:12:18 9.1 C 20 %
3039 21-04-2020 02:22:17 9.1 C 20 %
3040 21-04-2020 02:32:18 8.9 C 20 %
3041 21-04-2020 02:42:18 9.2 C 20 %
3042 21-04-2020 02:52:17 9 C 20 %
3043 21-04-2020 03:02:17 9.3 C 20 %
3044 21-04-2020 03:12:17 9.1 C 20 %
3045 21-04-2020 03:22:18 9.2 C 20 %
3046 21-04-2020 03:32:17 9.1 C 20 %
3047 21-04-2020 03:42:17 8.3 C 20 %
3048 21-04-2020 03:52:18 8.6 C 20 %
3049 21-04-2020 04:02:18 8.1 C 20 %
3050 21-04-2020 04:12:18 7.4 C 23 %
Sensor: Nr:Datum:Temp:Feuchte:
Aussen-T/F 3051 21-04-2020 04:22:17 7.8 C 20 %
3052 21-04-2020 04:32:17 7.7 C 23 %
3053 21-04-2020 04:42:17 7.5 C 25 %
3054 21-04-2020 04:52:17 7.5 C 25 %
3055 21-04-2020 05:02:17 7.1 C 25 %
3056 21-04-2020 05:12:17 7.7 C 25 %
3057 21-04-2020 05:22:17 7.3 C 25 %
3058 21-04-2020 05:32:18 7 C 25 %
3059 21-04-2020 05:42:18 6.8 C 26 %
3060 21-04-2020 05:52:17 6.5 C 27 %
3061 21-04-2020 06:02:17 6.9 C 27 %
3062 21-04-2020 06:12:17 6.6 C 27 %
3063 21-04-2020 06:22:18 6.6 C 27 %
3064 21-04-2020 06:32:18 6.3 C 28 %
3065 21-04-2020 06:42:18 6.4 C 28 %
3066 21-04-2020 06:52:17 6.3 C 29 %
3067 21-04-2020 07:02:18 6.1 C 30 %
3068 21-04-2020 07:12:18 6.2 C 29 %
3069 21-04-2020 07:22:17 6.3 C 30 %
3070 21-04-2020 07:32:17 6.5 C 30 %
3071 21-04-2020 07:42:17 7.3 C 27 %
3072 21-04-2020 07:52:17 6.9 C 29 %
3073 21-04-2020 08:02:17 7.4 C 27 %
3074 21-04-2020 08:12:17 7.7 C 26 %
3075 21-04-2020 08:22:17 7.6 C 26 %
Sensor: Nr:Datum:Temp:Feuchte:
Aussen-T/F 3076 21-04-2020 08:32:17 7.2 C 28 %
3077 21-04-2020 08:42:18 7.5 C 27 %
3078 21-04-2020 08:52:17 8.3 C 27 %
3079 21-04-2020 09:02:17 8.7 C 25 %
3080 21-04-2020 09:12:17 9.2 C 23 %
3081 21-04-2020 09:22:17 9.7 C 21 %
3082 21-04-2020 09:32:17 10.2 C 20 %
3083 21-04-2020 09:42:17 10.7 C 20 %
3084 21-04-2020 09:52:17 10.9 C 20 %
3085 21-04-2020 10:02:17 10.9 C 20 %
3086 21-04-2020 10:12:17 11.7 C 20 %
3087 21-04-2020 10:22:17 12.2 C 20 %
3088 21-04-2020 10:32:17 12.8 C 20 %
3089 21-04-2020 10:42:17 13.2 C 20 %
3090 21-04-2020 10:52:17 13.5 C 20 %
3091 21-04-2020 11:02:17 13.9 C 20 %
3092 21-04-2020 11:12:17 14.6 C 20 %
3093 21-04-2020 11:22:17 14.6 C 20 %
3094 21-04-2020 11:32:18 14.7 C 20 %
3095 21-04-2020 11:42:18 15.2 C 20 %
3096 21-04-2020 11:52:18 15.7 C 20 %
3097 21-04-2020 12:02:17 16.4 C 20 %
3098 21-04-2020 12:12:18 16.1 C 20 %
3099 21-04-2020 12:22:17 16.1 C 20 %
3100 21-04-2020 12:32:17 16.2 C 20 %
Sensor: Nr:Datum:Temp:Feuchte:
Aussen-T/F 3101 21-04-2020 12:42:17 16.4 C 20 %
3102 21-04-2020 12:52:17 16.6 C 20 %
3103 21-04-2020 13:02:17 16.9 C 20 %
3104 21-04-2020 13:12:17 17.4 C 20 %
3105 21-04-2020 13:22:17 17.2 C 20 %
3106 21-04-2020 13:32:17 17.3 C 20 %
3107 21-04-2020 13:42:17 17.9 C 20 %
3108 21-04-2020 13:52:17 18.1 C 20 %
3109 21-04-2020 14:02:17 18.5 C 20 %
3110 21-04-2020 14:12:17 19 C 20 %
3111 21-04-2020 14:22:17 19.4 C 20 %
3112 21-04-2020 14:32:17 22 C 20 %
3113 21-04-2020 14:42:17 24.4 C 20 %
3114 21-04-2020 14:52:17 24.2 C 20 %
3115 21-04-2020 15:02:17 24.5 C 20 %
3116 21-04-2020 15:12:17 22.2 C 20 %
3117 21-04-2020 15:22:17 23.7 C 20 %
3118 21-04-2020 15:32:18 23.2 C 20 %
3119 21-04-2020 15:42:18 24 C 20 %
3120 21-04-2020 15:52:17 23.4 C 20 %
3121 21-04-2020 16:02:18 22.8 C 20 %
3122 21-04-2020 16:12:18 23.2 C 20 %
3123 21-04-2020 16:22:17 22.9 C 20 %
3124 21-04-2020 16:32:17 23.2 C 20 %
3125 21-04-2020 16:42:17 24.3 C 20 %
Sensor: Nr:Datum:Temp:Feuchte:
Aussen-T/F 3126 21-04-2020 16:52:17 22.8 C 20 %
3127 21-04-2020 17:02:17 23.6 C 20 %
3128 21-04-2020 17:12:17 24.8 C 20 %
3129 21-04-2020 17:22:18 22.8 C 20 %
3130 21-04-2020 17:32:17 21.9 C 20 %
3131 21-04-2020 17:42:17 22.3 C 20 %
3132 21-04-2020 17:52:17 22.9 C 20 %
3133 21-04-2020 18:02:18 21.1 C 20 %
3134 21-04-2020 18:12:18 20.9 C 20 %
3135 21-04-2020 18:22:17 20.5 C 20 %
3136 21-04-2020 18:32:17 20.3 C 20 %
3137 21-04-2020 18:42:17 20 C 20 %
3138 21-04-2020 18:52:18 20 C 20 %
3139 21-04-2020 19:02:17 19.6 C 20 %
3140 21-04-2020 19:12:17 19.4 C 20 %
3141 21-04-2020 19:22:17 19.1 C 20 %
3142 21-04-2020 19:32:18 18.9 C 20 %
3143 21-04-2020 19:42:18 18.7 C 20 %
3144 21-04-2020 19:52:17 18.3 C 20 %
3145 21-04-2020 20:02:17 17.9 C 20 %
3146 21-04-2020 20:12:17 17.4 C 20 %
3147 21-04-2020 20:22:17 16.7 C 20 %
3148 21-04-2020 20:32:17 16.2 C 20 %
3149 21-04-2020 20:42:17 15.5 C 20 %
3150 21-04-2020 20:52:17 14.8 C 20 %
Sensor: Nr:Datum:Temp:Feuchte:
Aussen-T/F 3151 21-04-2020 21:02:18 14.2 C 20 %
3152 21-04-2020 21:12:18 14.5 C 20 %
3153 21-04-2020 21:22:17 14.1 C 20 %
3154 21-04-2020 21:32:17 13.9 C 20 %
3155 21-04-2020 21:42:17 13.2 C 20 %
3156 21-04-2020 21:52:18 12.9 C 20 %
3157 21-04-2020 22:02:17 13.2 C 20 %
3158 21-04-2020 22:12:17 13 C 20 %
3159 21-04-2020 22:22:17 13.4 C 20 %
3160 21-04-2020 22:32:17 12.6 C 20 %
3161 21-04-2020 22:42:17 12 C 20 %
3162 21-04-2020 22:52:18 11.8 C 20 %
3163 21-04-2020 23:02:18 12.1 C 20 %
3164 21-04-2020 23:12:18 11.8 C 20 %
3165 21-04-2020 23:22:17 11.5 C 20 %
3166 21-04-2020 23:32:18 11.3 C 20 %
3167 21-04-2020 23:42:18 11.3 C 20 %
3168 21-04-2020 23:52:18 11.1 C 20 %
3169 22-04-2020 00:02:18 11.1 C 20 %
3170 22-04-2020 00:12:18 10.6 C 20 %
3171 22-04-2020 00:22:17 11.1 C 20 %
3172 22-04-2020 00:32:18 11.4 C 20 %
3173 22-04-2020 00:42:18 10.9 C 20 %
3174 22-04-2020 00:52:17 11 C 20 %
3175 22-04-2020 01:02:17 10.8 C 20 %
Sensor: Nr:Datum:Temp:Feuchte:
Aussen-T/F 3176 22-04-2020 01:12:17 10 C 21 %
3177 22-04-2020 01:22:17 9.9 C 25 %
3178 22-04-2020 01:32:18 9.7 C 25 %
3179 22-04-2020 01:42:18 10.2 C 21 %
3180 22-04-2020 01:52:17 9.9 C 23 %
3181 22-04-2020 02:02:17 9.9 C 23 %
3182 22-04-2020 02:12:17 9.8 C 25 %
3183 22-04-2020 02:22:17 9.5 C 25 %
3184 22-04-2020 02:32:17 9.3 C 25 %
3185 22-04-2020 02:42:17 9.7 C 25 %
3186 22-04-2020 02:52:17 9.3 C 25 %
3187 22-04-2020 03:02:17 9.5 C 25 %
3188 22-04-2020 03:12:17 9 C 25 %
3189 22-04-2020 03:22:18 8.8 C 26 %
3190 22-04-2020 03:32:18 8.5 C 27 %
3191 22-04-2020 03:42:18 8.4 C 27 %
3192 22-04-2020 03:52:17 8.3 C 27 %
3193 22-04-2020 04:02:18 8.4 C 27 %
3194 22-04-2020 04:12:18 8.3 C 27 %
3195 22-04-2020 04:22:17 8 C 27 %
3196 22-04-2020 04:32:18 7.9 C 27 %
3197 22-04-2020 04:42:18 7.9 C 27 %
3198 22-04-2020 04:52:17 7.4 C 28 %
3199 22-04-2020 05:02:18 7.5 C 28 %
3200 22-04-2020 05:12:18 7.3 C 28 %
Sensor: Nr:Datum:Temp:Feuchte:
Aussen-T/F 3201 22-04-2020 05:22:17 7.1 C 29 %
3202 22-04-2020 05:32:17 7.1 C 29 %
3203 22-04-2020 05:42:18 6.9 C 30 %
3204 22-04-2020 05:52:17 6.7 C 30 %
3205 22-04-2020 06:02:18 6.7 C 30 %
3206 22-04-2020 06:12:18 6.1 C 31 %
3207 22-04-2020 06:22:17 5.8 C 32 %
3208 22-04-2020 06:32:17 5.6 C 33 %
3209 22-04-2020 06:42:17 5.3 C 35 %
3210 22-04-2020 06:52:17 5.6 C 35 %
3211 22-04-2020 07:02:17 5.6 C 35 %
3212 22-04-2020 07:12:17 5.4 C 35 %
3213 22-04-2020 07:22:18 5.9 C 35 %
3214 22-04-2020 07:32:17 5.5 C 35 %
3215 22-04-2020 07:42:17 5.7 C 35 %
3216 22-04-2020 07:52:17 5.9 C 35 %
3217 22-04-2020 08:02:17 6.5 C 34 %
3218 22-04-2020 08:12:17 6.6 C 34 %
3219 22-04-2020 08:22:17 7 C 33 %
3220 22-04-2020 08:32:17 7.5 C 32 %
3221 22-04-2020 08:42:17 8 C 31 %
3222 22-04-2020 08:52:18 8.9 C 30 %
3223 22-04-2020 09:02:18 9.1 C 30 %
3224 22-04-2020 09:12:18 9.1 C 30 %
3225 22-04-2020 09:22:17 10.1 C 26 %
Sensor: Nr:Datum:Temp:Feuchte:
Aussen-T/F 3226 22-04-2020 09:32:17 10.7 C 26 %
3227 22-04-2020 09:42:17 10.7 C 26 %
3228 22-04-2020 09:52:17 11.3 C 24 %
3229 22-04-2020 10:02:17 11.5 C 24 %
3230 22-04-2020 10:12:17 12.5 C 20 %
3231 22-04-2020 10:22:17 13 C 20 %
3232 22-04-2020 10:32:17 13.7 C 20 %
3233 22-04-2020 10:42:17 14.2 C 20 %
3234 22-04-2020 10:52:17 14.8 C 20 %
3235 22-04-2020 11:02:17 15.4 C 20 %
3236 22-04-2020 11:12:17 15.7 C 20 %
3237 22-04-2020 11:22:17 16.2 C 20 %
3238 22-04-2020 11:32:17 16.4 C 20 %
3239 22-04-2020 11:42:17 17.1 C 20 %
3240 22-04-2020 11:52:18 17.1 C 20 %
3241 22-04-2020 12:02:18 17.9 C 20 %
3242 22-04-2020 12:12:18 17.6 C 20 %
3243 22-04-2020 12:22:17 17.7 C 20 %
3244 22-04-2020 12:32:17 17.7 C 20 %
3245 22-04-2020 12:42:17 17.7 C 20 %
3246 22-04-2020 12:52:18 18 C 20 %
3247 22-04-2020 13:02:17 18.6 C 20 %
3248 22-04-2020 13:12:17 19.3 C 20 %
3249 22-04-2020 13:22:17 19 C 20 %
3250 22-04-2020 13:32:17 18.9 C 20 %
Sensor: Nr:Datum:Temp:Feuchte:
Aussen-T/F 3251 22-04-2020 13:42:17 19.1 C 20 %
3252 22-04-2020 13:52:17 19.4 C 20 %
3253 22-04-2020 14:02:17 19.8 C 20 %
3254 22-04-2020 14:12:17 20.3 C 20 %
3255 22-04-2020 14:22:17 21.2 C 20 %
3256 22-04-2020 14:32:17 25.4 C 20 %
3257 22-04-2020 14:42:17 27.1 C 20 %
3258 22-04-2020 14:52:17 25.8 C 20 %
3259 22-04-2020 15:02:17 24.9 C 20 %
3260 22-04-2020 15:12:18 26.4 C 20 %
3261 22-04-2020 15:22:17 27.6 C 20 %
3262 22-04-2020 15:32:17 27 C 20 %
3263 22-04-2020 15:42:17 25.4 C 20 %
3264 22-04-2020 15:52:17 25.7 C 20 %
3265 22-04-2020 16:02:17 25.3 C 20 %
3266 22-04-2020 16:12:17 27.2 C 20 %
3267 22-04-2020 16:22:17 26.8 C 20 %
3268 22-04-2020 16:32:18 27.7 C 20 %
3269 22-04-2020 16:42:18 25.2 C 20 %
3270 22-04-2020 16:52:17 26.3 C 20 %
3271 22-04-2020 17:02:17 25.2 C 20 %
3272 22-04-2020 17:12:17 24.6 C 20 %
3273 22-04-2020 17:22:17 25.1 C 20 %
3274 22-04-2020 17:32:17 25.5 C 20 %
3275 22-04-2020 17:42:17 25.6 C 20 %
Sensor: Nr:Datum:Temp:Feuchte:
Aussen-T/F 3276 22-04-2020 17:52:17 25.2 C 20 %
3277 22-04-2020 18:02:17 23.1 C 20 %
3278 22-04-2020 18:12:17 22 C 20 %
3279 22-04-2020 18:22:17 22.1 C 20 %
3280 22-04-2020 18:32:17 21.9 C 20 %
3281 22-04-2020 18:42:17 21.9 C 20 %
3282 22-04-2020 18:52:17 21.6 C 20 %
3283 22-04-2020 19:02:17 21.1 C 20 %
3284 22-04-2020 19:12:17 21.2 C 20 %
3285 22-04-2020 19:22:17 20.8 C 20 %
3286 22-04-2020 19:32:18 20.4 C 20 %
3287 22-04-2020 19:42:18 20.3 C 20 %
3288 22-04-2020 19:52:17 20 C 20 %
3289 22-04-2020 20:02:18 19.4 C 20 %
3290 22-04-2020 20:12:18 18.4 C 20 %
3291 22-04-2020 20:22:17 17 C 20 %
3292 22-04-2020 20:32:17 16.3 C 20 %
3293 22-04-2020 20:42:17 16.2 C 20 %
3294 22-04-2020 20:52:17 15.9 C 20 %
3295 22-04-2020 21:02:17 15.7 C 20 %
3296 22-04-2020 21:12:17 15 C 20 %
3297 22-04-2020 21:22:17 14.6 C 20 %
3298 22-04-2020 21:32:17 14.4 C 20 %
3299 22-04-2020 21:42:17 14.4 C 20 %
3300 22-04-2020 21:52:17 14.1 C 20 %
Sensor: Nr:Datum:Temp:Feuchte:
Aussen-T/F 3301 22-04-2020 22:02:17 13.7 C 20 %
3302 22-04-2020 22:12:17 13.8 C 20 %
3303 22-04-2020 22:22:17 14.2 C 20 %
3304 22-04-2020 22:32:17 13.6 C 20 %
3305 22-04-2020 22:42:17 13.5 C 20 %
3306 22-04-2020 22:52:18 13.5 C 20 %
3307 22-04-2020 23:02:17 13.7 C 20 %
3308 22-04-2020 23:12:17 13.5 C 20 %
3309 22-04-2020 23:22:17 13.2 C 20 %
3310 22-04-2020 23:32:17 12.9 C 20 %
3311 22-04-2020 23:42:17 13.2 C 20 %
3312 22-04-2020 23:52:18 12.8 C 20 %
3313 23-04-2020 00:02:17 12.6 C 20 %
3314 23-04-2020 00:12:17 12.4 C 20 %
3315 23-04-2020 00:22:17 12.4 C 20 %
3316 23-04-2020 00:32:17 12.2 C 20 %
3317 23-04-2020 00:42:17 12.2 C 20 %
3318 23-04-2020 00:52:17 12.3 C 20 %
3319 23-04-2020 01:02:17 12.1 C 20 %
3320 23-04-2020 01:12:17 11.9 C 20 %
3321 23-04-2020 01:22:18 11 C 20 %
3322 23-04-2020 01:32:17 12 C 20 %
3323 23-04-2020 01:42:17 10.9 C 20 %
3324 23-04-2020 01:52:17 10.5 C 22 %
3325 23-04-2020 02:02:17 9.7 C 25 %
Sensor: Nr:Datum:Temp:Feuchte:
Aussen-T/F 3326 23-04-2020 02:12:17 9.7 C 26 %
3327 23-04-2020 02:22:18 9.7 C 25 %
3328 23-04-2020 02:32:17 9.8 C 26 %
3329 23-04-2020 02:42:17 9.6 C 25 %
3330 23-04-2020 02:52:17 9.3 C 26 %
3331 23-04-2020 03:02:18 9.2 C 26 %
3332 23-04-2020 03:12:18 9.2 C 26 %
3333 23-04-2020 03:22:17 9.4 C 26 %
3334 23-04-2020 03:32:17 9.4 C 26 %
3335 23-04-2020 03:42:17 9.3 C 26 %
3336 23-04-2020 03:52:17 9.1 C 26 %
3337 23-04-2020 04:02:17 8.6 C 27 %
3338 23-04-2020 04:12:17 8.1 C 29 %
3339 23-04-2020 04:22:17 7.5 C 30 %
3340 23-04-2020 04:32:17 7.2 C 32 %
3341 23-04-2020 04:42:17 7.2 C 32 %
3342 23-04-2020 04:52:17 6.9 C 33 %
3343 23-04-2020 05:02:17 6.4 C 34 %
3344 23-04-2020 05:12:17 6.2 C 34 %
3345 23-04-2020 05:22:17 5.9 C 35 %
3346 23-04-2020 05:32:17 6 C 35 %
3347 23-04-2020 05:42:17 6 C 35 %
3348 23-04-2020 05:52:17 5.8 C 36 %
3349 23-04-2020 06:02:17 5.8 C 36 %
3350 23-04-2020 06:12:18 5.4 C 36 %
Sensor: Nr:Datum:Temp:Feuchte:
Aussen-T/F 3351 23-04-2020 06:22:17 5.4 C 36 %
3352 23-04-2020 06:32:18 5.3 C 36 %
3353 23-04-2020 06:42:18 5.3 C 36 %
3354 23-04-2020 06:52:17 5.3 C 36 %
3355 23-04-2020 07:02:17 5.3 C 37 %
3356 23-04-2020 07:12:17 5.3 C 37 %
3357 23-04-2020 07:22:17 5.2 C 37 %
3358 23-04-2020 07:32:17 5.2 C 39 %
3359 23-04-2020 07:42:17 5.2 C 39 %
3360 23-04-2020 07:52:17 5.3 C 39 %
3361 23-04-2020 08:02:17 5.4 C 39 %
3362 23-04-2020 08:12:18 5.5 C 39 %
3363 23-04-2020 08:22:18 5.9 C 39 %
3364 23-04-2020 08:32:18 6.2 C 38 %
3365 23-04-2020 08:42:18 6.5 C 38 %
3366 23-04-2020 08:52:17 6.9 C 38 %
3367 23-04-2020 09:02:17 7.7 C 36 %
3368 23-04-2020 09:12:17 8.1 C 36 %
3369 23-04-2020 09:22:17 8.6 C 35 %
3370 23-04-2020 09:32:17 9.2 C 35 %
3371 23-04-2020 09:42:17 9.7 C 34 %
3372 23-04-2020 09:52:17 9.9 C 34 %
3373 23-04-2020 10:02:18 10.5 C 33 %
3374 23-04-2020 10:12:18 11 C 32 %
3375 23-04-2020 10:22:17 11.8 C 30 %
Sensor: Nr:Datum:Temp:Feuchte:
Aussen-T/F 3376 23-04-2020 10:32:17 12.7 C 28 %
3377 23-04-2020 10:42:17 13.2 C 27 %
3378 23-04-2020 10:52:17 14.8 C 22 %
3379 23-04-2020 11:02:18 16 C 20 %
3380 23-04-2020 11:12:18 16.3 C 20 %
3381 23-04-2020 11:22:17 17.2 C 20 %
3382 23-04-2020 11:32:17 17.4 C 20 %
3383 23-04-2020 11:42:17 17.7 C 20 %
3384 23-04-2020 11:52:18 17.9 C 20 %
3385 23-04-2020 12:02:17 18.9 C 20 %
3386 23-04-2020 12:12:17 18.2 C 20 %
3387 23-04-2020 12:22:17 18 C 20 %
3388 23-04-2020 12:32:18 18.5 C 20 %
3389 23-04-2020 12:42:18 18.3 C 20 %
3390 23-04-2020 12:52:17 18.4 C 20 %
3391 23-04-2020 13:02:17 19.2 C 20 %
3392 23-04-2020 13:12:17 19.5 C 20 %
3393 23-04-2020 13:22:17 19.1 C 20 %
3394 23-04-2020 13:32:17 19.2 C 20 %
3395 23-04-2020 13:42:17 19.7 C 20 %
3396 23-04-2020 13:52:17 20.1 C 20 %
3397 23-04-2020 14:02:17 20.4 C 20 %
3398 23-04-2020 14:12:17 20.7 C 20 %
3399 23-04-2020 14:22:17 21.6 C 20 %
3400 23-04-2020 14:32:17 27.4 C 20 %
Sensor: Nr:Datum:Temp:Feuchte:
Aussen-T/F 3401 23-04-2020 14:42:17 29.1 C 20 %
3402 23-04-2020 14:52:17 29 C 20 %
3403 23-04-2020 15:02:17 29.3 C 20 %
3404 23-04-2020 15:12:17 29.5 C 20 %
3405 23-04-2020 15:22:18 28.8 C 20 %
3406 23-04-2020 15:32:17 30.3 C 20 %
3407 23-04-2020 15:42:17 31.4 C 20 %
3408 23-04-2020 15:52:17 28.9 C 20 %
3409 23-04-2020 16:02:18 27.7 C 20 %
3410 23-04-2020 16:12:18 28.1 C 20 %
3411 23-04-2020 16:22:17 28.4 C 20 %
3412 23-04-2020 16:32:18 28.3 C 20 %
3413 23-04-2020 16:42:18 29 C 20 %
3414 23-04-2020 16:52:17 29.2 C 20 %
3415 23-04-2020 17:02:17 31.6 C 20 %
3416 23-04-2020 17:12:18 28.2 C 20 %
3417 23-04-2020 17:22:17 28.6 C 20 %
3418 23-04-2020 17:32:18 28.1 C 20 %
3419 23-04-2020 17:42:18 28 C 20 %
3420 23-04-2020 17:52:18 30.1 C 20 %
3421 23-04-2020 18:02:17 27.1 C 20 %
3422 23-04-2020 18:12:17 24.5 C 20 %
3423 23-04-2020 18:22:17 23.9 C 20 %
3424 23-04-2020 18:32:17 23.6 C 20 %
3425 23-04-2020 18:42:17 23.7 C 20 %
Sensor: Nr:Datum:Temp:Feuchte:
Aussen-T/F 3426 23-04-2020 18:52:17 23.2 C 20 %
3427 23-04-2020 19:02:17 22.5 C 20 %
3428 23-04-2020 19:12:17 22.4 C 20 %
3429 23-04-2020 19:22:17 22 C 20 %
3430 23-04-2020 19:32:18 21.2 C 20 %
3431 23-04-2020 19:42:18 20 C 20 %
3432 23-04-2020 19:52:17 18.6 C 20 %
3433 23-04-2020 20:02:18 18.6 C 20 %
3434 23-04-2020 20:12:18 17.9 C 20 %
3435 23-04-2020 20:22:17 17.2 C 20 %
3436 23-04-2020 20:32:18 16.5 C 20 %
3437 23-04-2020 20:42:18 15.5 C 20 %
3438 23-04-2020 20:52:18 14.3 C 20 %
3439 23-04-2020 21:02:18 14 C 20 %
3440 23-04-2020 21:12:18 14.1 C 20 %
3441 23-04-2020 21:22:17 13.5 C 20 %
3442 23-04-2020 21:32:17 13.1 C 20 %
3443 23-04-2020 21:42:17 12.9 C 20 %
3444 23-04-2020 21:52:17 12.5 C 20 %
3445 23-04-2020 22:02:17 12 C 23 %
3446 23-04-2020 22:12:17 11.6 C 25 %
3447 23-04-2020 22:22:17 11.5 C 25 %
3448 23-04-2020 22:32:18 11 C 26 %
3449 23-04-2020 22:42:18 11.1 C 26 %
3450 23-04-2020 22:52:18 10.8 C 26 %
Sensor: Nr:Datum:Temp:Feuchte:
Aussen-T/F 3451 23-04-2020 23:02:18 10.4 C 27 %
3452 23-04-2020 23:12:18 10.3 C 27 %
3453 23-04-2020 23:22:18 9.6 C 29 %
3454 23-04-2020 23:32:17 9.6 C 29 %
3455 23-04-2020 23:42:17 9.6 C 29 %
3456 23-04-2020 23:52:17 9.2 C 30 %
3457 24-04-2020 00:02:18 9.2 C 30 %
3458 24-04-2020 00:12:18 9.3 C 30 %
3459 24-04-2020 00:22:17 9.2 C 30 %
3460 24-04-2020 00:32:18 8.6 C 31 %
3461 24-04-2020 00:42:18 8.4 C 31 %
3462 24-04-2020 00:52:17 8.3 C 32 %
3463 24-04-2020 01:02:18 8.1 C 32 %
3464 24-04-2020 01:12:18 8.3 C 33 %
3465 24-04-2020 01:22:17 8.1 C 32 %
3466 24-04-2020 01:32:18 8.1 C 33 %
3467 24-04-2020 01:42:18 8.2 C 33 %
3468 24-04-2020 01:52:17 7.8 C 33 %
3469 24-04-2020 02:02:17 7.5 C 34 %
3470 24-04-2020 02:12:17 7.1 C 34 %
3471 24-04-2020 02:22:17 7 C 35 %
3472 24-04-2020 02:32:18 7.2 C 35 %
3473 24-04-2020 02:42:18 6.8 C 36 %
3474 24-04-2020 02:52:18 7 C 35 %
3475 24-04-2020 03:02:17 7 C 35 %
Sensor: Nr:Datum:Temp:Feuchte:
Aussen-T/F 3476 24-04-2020 03:12:18 6.8 C 36 %
3477 24-04-2020 03:22:17 6.2 C 36 %
3478 24-04-2020 03:32:17 6.4 C 37 %
3479 24-04-2020 03:42:17 6.3 C 37 %
3480 24-04-2020 03:52:17 6.2 C 37 %
3481 24-04-2020 04:02:17 6.2 C 37 %
3482 24-04-2020 04:12:17 6.1 C 37 %
3483 24-04-2020 04:22:17 6 C 37 %
3484 24-04-2020 04:32:17 5.9 C 38 %
3485 24-04-2020 04:42:17 6.2 C 38 %
3486 24-04-2020 04:52:17 6.3 C 38 %
3487 24-04-2020 05:02:17 6.2 C 38 %
3488 24-04-2020 05:12:17 6 C 38 %
3489 24-04-2020 05:22:17 5.9 C 39 %
3490 24-04-2020 05:32:18 6.3 C 38 %
3491 24-04-2020 05:42:18 6.2 C 38 %
3492 24-04-2020 05:52:17 6.1 C 38 %
3493 24-04-2020 06:02:17 6.1 C 38 %
3494 24-04-2020 06:12:17 5.9 C 39 %
3495 24-04-2020 06:22:18 6 C 39 %
3496 24-04-2020 06:32:17 6 C 38 %
3497 24-04-2020 06:42:17 6 C 39 %
3498 24-04-2020 06:52:17 6.2 C 39 %
3499 24-04-2020 07:02:17 6.3 C 38 %
3500 24-04-2020 07:12:17 6.3 C 39 %
Sensor: Nr:Datum:Temp:Feuchte:
Aussen-T/F 3501 24-04-2020 07:22:17 6.3 C 39 %
3502 24-04-2020 07:32:18 6.3 C 39 %
3503 24-04-2020 07:42:18 6.5 C 39 %
3504 24-04-2020 07:52:17 6.7 C 39 %
3505 24-04-2020 08:02:18 6.8 C 39 %
3506 24-04-2020 08:12:18 7.3 C 38 %
3507 24-04-2020 08:22:17 8.2 C 36 %
3508 24-04-2020 08:32:17 9 C 35 %
3509 24-04-2020 08:42:17 9.6 C 35 %
3510 24-04-2020 08:52:17 9.9 C 34 %
3511 24-04-2020 09:02:17 10.4 C 33 %
3512 24-04-2020 09:12:18 11 C 32 %
3513 24-04-2020 09:22:17 11.5 C 31 %
3514 24-04-2020 09:32:18 11.9 C 31 %
3515 24-04-2020 09:42:18 12.5 C 30 %
3516 24-04-2020 09:52:17 12.4 C 30 %
3517 24-04-2020 10:02:17 12.8 C 30 %
3518 24-04-2020 10:12:17 13.1 C 29 %
3519 24-04-2020 10:22:17 14 C 28 %
3520 24-04-2020 10:32:17 14.2 C 28 %
3521 24-04-2020 10:42:17 14.6 C 27 %
3522 24-04-2020 10:52:17 15 C 26 %
3523 24-04-2020 11:02:17 15.6 C 26 %
3524 24-04-2020 11:12:18 15.6 C 26 %
3525 24-04-2020 11:22:17 16.5 C 25 %
Sensor: Nr:Datum:Temp:Feuchte:
Aussen-T/F 3526 24-04-2020 11:32:18 16.6 C 24 %
3527 24-04-2020 11:42:18 17 C 24 %
3528 24-04-2020 11:52:17 17 C 23 %
3529 24-04-2020 12:02:17 17.9 C 23 %
3530 24-04-2020 12:12:17 18.1 C 21 %
3531 24-04-2020 12:22:17 18.2 C 21 %
3532 24-04-2020 12:32:18 18.4 C 21 %
3533 24-04-2020 12:42:18 18.9 C 20 %
3534 24-04-2020 12:52:18 19.3 C 20 %
3535 24-04-2020 13:02:17 19.6 C 20 %
3536 24-04-2020 13:12:17 20.2 C 20 %
3537 24-04-2020 13:22:17 20.5 C 20 %
3538 24-04-2020 13:32:18 20.7 C 20 %
3539 24-04-2020 13:42:18 21 C 20 %
3540 24-04-2020 13:52:17 21.3 C 20 %
3541 24-04-2020 14:02:17 21.8 C 20 %
3542 24-04-2020 14:12:17 22.2 C 20 %
3543 24-04-2020 14:22:17 23.5 C 20 %
3544 24-04-2020 14:32:17 26.8 C 20 %
3545 24-04-2020 14:42:17 28.5 C 20 %
3546 24-04-2020 14:52:17 27.1 C 20 %
3547 24-04-2020 15:02:18 28 C 20 %
3548 24-04-2020 15:12:18 31 C 20 %
3549 24-04-2020 15:22:17 27.6 C 20 %
3550 24-04-2020 15:32:17 28.1 C 20 %
Sensor: Nr:Datum:Temp:Feuchte:
Aussen-T/F 3551 24-04-2020 15:42:18 27.5 C 20 %
3552 24-04-2020 15:52:17 28.8 C 20 %
3553 24-04-2020 16:02:18 28.7 C 20 %
3554 24-04-2020 16:12:18 28.7 C 20 %
3555 24-04-2020 16:22:18 27.2 C 20 %
3556 24-04-2020 16:32:18 26.8 C 20 %
3557 24-04-2020 16:42:18 28 C 20 %
3558 24-04-2020 16:52:17 26.3 C 20 %
3559 24-04-2020 17:02:17 26 C 20 %
3560 24-04-2020 17:12:17 26.7 C 20 %
3561 24-04-2020 17:22:18 26.4 C 20 %
3562 24-04-2020 17:32:18 26.3 C 20 %
3563 24-04-2020 17:42:18 24.2 C 20 %
3564 24-04-2020 17:52:17 26 C 20 %
3565 24-04-2020 18:02:18 24.1 C 20 %
3566 24-04-2020 18:12:18 22.3 C 20 %
3567 24-04-2020 18:22:17 22.2 C 20 %
3568 24-04-2020 18:32:17 22 C 20 %
3569 24-04-2020 18:42:17 20.9 C 20 %
3570 24-04-2020 18:52:18 21 C 20 %
3571 24-04-2020 19:02:17 20.5 C 20 %
3572 24-04-2020 19:12:17 20.3 C 20 %
3573 24-04-2020 19:23:17 20 C 20 %
3574 24-04-2020 19:32:17 19.9 C 20 %
3575 24-04-2020 19:42:18 19.6 C 20 %
Sensor: Nr:Datum:Temp:Feuchte:
Aussen-T/F 3576 24-04-2020 19:53:17 19.2 C 20 %
3577 24-04-2020 20:02:18 19 C 20 %
3578 24-04-2020 20:12:18 18.5 C 20 %
3579 24-04-2020 20:22:17 17.7 C 20 %
3580 24-04-2020 20:32:18 17.3 C 20 %
3581 24-04-2020 20:42:18 16.8 C 20 %
3582 24-04-2020 20:52:18 16.1 C 20 %
3583 24-04-2020 21:02:18 15.9 C 20 %
3584 24-04-2020 21:12:18 15.5 C 20 %
3585 24-04-2020 21:23:17 15.4 C 20 %
3586 24-04-2020 21:33:17 15 C 20 %
3587 24-04-2020 21:42:17 15.1 C 20 %
3588 24-04-2020 21:52:17 14.7 C 20 %
3589 24-04-2020 22:03:17 14.4 C 20 %
3590 24-04-2020 22:13:17 14.1 C 20 %
3591 24-04-2020 22:22:18 14.2 C 20 %
3592 24-04-2020 22:32:18 14.4 C 20 %
3593 24-04-2020 22:42:18 13.9 C 20 %
3594 24-04-2020 22:52:18 13.3 C 20 %
3595 24-04-2020 23:02:18 13.2 C 20 %
3596 24-04-2020 23:12:18 13.2 C 20 %
3597 24-04-2020 23:22:17 12.7 C 20 %
3598 24-04-2020 23:33:17 12.5 C 20 %
3599 24-04-2020 23:43:17 13 C 20 %
3600 24-04-2020 23:53:17 12.4 C 20 %
Sensor: Nr:Datum:Temp:Feuchte:
Aussen-T/F 3601 25-04-2020 00:02:18 12.6 C 20 %
3602 25-04-2020 00:12:18 12.7 C 20 %
3603 25-04-2020 00:23:17 12.6 C 20 %
3604 25-04-2020 00:32:18 12.3 C 20 %
3605 25-04-2020 00:42:18 11.8 C 20 %
3606 25-04-2020 00:52:18 11.7 C 20 %
3607 25-04-2020 01:03:17 11.7 C 20 %
3608 25-04-2020 01:12:17 11.7 C 20 %
3609 25-04-2020 01:23:17 11.3 C 22 %
3610 25-04-2020 01:33:17 11 C 25 %
3611 25-04-2020 01:43:17 11.1 C 25 %
3612 25-04-2020 01:52:17 11.1 C 25 %
3613 25-04-2020 02:02:18 10.4 C 26 %
3614 25-04-2020 02:12:18 10.3 C 26 %
3615 25-04-2020 02:23:17 9.7 C 29 %
3616 25-04-2020 02:33:17 9.5 C 29 %
3617 25-04-2020 02:43:17 9.4 C 30 %
3618 25-04-2020 02:53:17 9.8 C 29 %
3619 25-04-2020 03:03:17 10.1 C 28 %
3620 25-04-2020 03:13:17 10 C 28 %
3621 25-04-2020 03:22:18 10 C 28 %
3622 25-04-2020 03:33:17 9.7 C 30 %
3623 25-04-2020 03:43:17 9 C 30 %
3624 25-04-2020 03:53:17 9 C 30 %
3625 25-04-2020 04:02:18 9.3 C 30 %
Sensor: Nr:Datum:Temp:Feuchte:
Aussen-T/F 3626 25-04-2020 04:12:18 8.9 C 30 %
3627 25-04-2020 04:23:17 8.9 C 30 %
3628 25-04-2020 04:33:18 8.7 C 31 %
3629 25-04-2020 04:42:18 8.2 C 32 %
3630 25-04-2020 04:53:17 8.3 C 33 %
3631 25-04-2020 05:03:17 8.1 C 33 %
3632 25-04-2020 05:13:18 7.5 C 35 %
3633 25-04-2020 05:23:18 7 C 36 %
3634 25-04-2020 05:32:18 7.1 C 37 %
3635 25-04-2020 05:42:18 7.2 C 38 %
3636 25-04-2020 05:53:18 7.6 C 38 %
3637 25-04-2020 06:02:18 8 C 36 %
3638 25-04-2020 06:12:18 8.2 C 36 %
3639 25-04-2020 06:23:17 8.3 C 36 %
3640 25-04-2020 06:33:17 8.3 C 36 %
3641 25-04-2020 06:43:18 8.4 C 35 %
3642 25-04-2020 06:53:17 8.3 C 35 %
3643 25-04-2020 07:03:18 8.3 C 35 %
3644 25-04-2020 07:12:18 8.4 C 35 %
3645 25-04-2020 07:23:17 8.3 C 35 %
3646 25-04-2020 07:32:18 8.4 C 35 %
3647 25-04-2020 07:42:18 8.4 C 35 %
3648 25-04-2020 07:52:18 8.4 C 35 %
3649 25-04-2020 08:03:17 8.4 C 34 %
3650 25-04-2020 08:13:17 8.7 C 34 %
Sensor: Nr:Datum:Temp:Feuchte:
Aussen-T/F 3651 25-04-2020 08:23:17 8.6 C 34 %
3652 25-04-2020 08:33:17 8.7 C 34 %
3653 25-04-2020 08:43:17 8.8 C 34 %
3654 25-04-2020 08:53:17 8.8 C 32 %
3655 25-04-2020 09:03:17 9.3 C 32 %
3656 25-04-2020 09:13:17 9.6 C 31 %
3657 25-04-2020 09:23:17 9.7 C 31 %
3658 25-04-2020 09:33:17 9.8 C 31 %
3659 25-04-2020 09:43:17 10.2 C 30 %
3660 25-04-2020 09:53:17 10.4 C 30 %
3661 25-04-2020 10:03:17 10.8 C 30 %
3662 25-04-2020 10:13:17 10.5 C 28 %
3663 25-04-2020 10:23:17 11 C 28 %
3664 25-04-2020 10:32:18 11.1 C 27 %
3665 25-04-2020 10:42:18 10.5 C 27 %
3666 25-04-2020 10:53:17 11.5 C 26 %
3667 25-04-2020 11:03:17 12.4 C 25 %
3668 25-04-2020 11:13:18 12 C 24 %
3669 25-04-2020 11:23:17 10.9 C 25 %
3670 25-04-2020 11:32:18 11.6 C 25 %
3671 25-04-2020 11:42:18 11.2 C 25 %
3672 25-04-2020 11:53:17 11.8 C 25 %
3673 25-04-2020 12:03:18 11.2 C 25 %
3674 25-04-2020 12:13:18 11.5 C 25 %
3675 25-04-2020 12:23:18 11.7 C 25 %
Sensor: Nr:Datum:Temp:Feuchte:
Aussen-T/F 3676 25-04-2020 12:33:17 11.7 C 25 %
3677 25-04-2020 12:43:18 11.4 C 25 %
3678 25-04-2020 12:53:17 12.3 C 24 %
3679 25-04-2020 13:03:17 12.4 C 22 %
3680 25-04-2020 13:13:17 12.5 C 23 %
3681 25-04-2020 13:23:17 13.2 C 21 %
3682 25-04-2020 13:33:17 13.1 C 21 %
3683 25-04-2020 13:43:17 13.2 C 21 %
3684 25-04-2020 13:53:17 13.7 C 20 %
3685 25-04-2020 14:03:17 13.8 C 20 %
3686 25-04-2020 14:13:17 14.1 C 20 %
3687 25-04-2020 14:23:17 15.8 C 20 %
3688 25-04-2020 14:33:17 21 C 20 %
3689 25-04-2020 14:43:17 22.5 C 20 %
3690 25-04-2020 14:53:17 20.7 C 20 %
3691 25-04-2020 15:03:17 23.8 C 20 %
3692 25-04-2020 15:13:17 23.8 C 20 %
3693 25-04-2020 15:23:17 23.7 C 20 %
3694 25-04-2020 15:33:18 25.7 C 20 %
3695 25-04-2020 15:43:18 25.7 C 20 %
3696 25-04-2020 15:53:18 26.3 C 20 %
3697 25-04-2020 16:03:17 23.2 C 20 %
3698 25-04-2020 16:13:17 24.8 C 20 %
3699 25-04-2020 16:23:17 23.9 C 20 %
3700 25-04-2020 16:33:17 25.3 C 20 %
Sensor: Nr:Datum:Temp:Feuchte:
Aussen-T/F 3701 25-04-2020 16:43:17 22.5 C 20 %
3702 25-04-2020 16:53:17 23.9 C 20 %
3703 25-04-2020 17:03:17 25.1 C 20 %
3704 25-04-2020 17:13:17 25.9 C 20 %
3705 25-04-2020 17:23:17 26.4 C 20 %
3706 25-04-2020 17:33:18 27.1 C 20 %
3707 25-04-2020 17:43:18 22.5 C 20 %
3708 25-04-2020 17:53:17 23.3 C 20 %
3709 25-04-2020 18:03:17 20.1 C 20 %
3710 25-04-2020 18:13:17 18.5 C 20 %
3711 25-04-2020 18:23:17 18.6 C 20 %
3712 25-04-2020 18:33:17 18.3 C 20 %
3713 25-04-2020 18:43:17 17.9 C 20 %
3714 25-04-2020 18:53:17 17.7 C 20 %
3715 25-04-2020 19:03:17 17.5 C 20 %
3716 25-04-2020 19:13:17 17.1 C 20 %
3717 25-04-2020 19:23:17 16.9 C 20 %
3718 25-04-2020 19:33:17 16.4 C 20 %
3719 25-04-2020 19:43:18 16.2 C 20 %
3720 25-04-2020 19:53:17 15.7 C 20 %
3721 25-04-2020 20:03:18 15.4 C 20 %
3722 25-04-2020 20:13:18 14.7 C 20 %
3723 25-04-2020 20:23:17 13.9 C 20 %
3724 25-04-2020 20:33:17 13.8 C 20 %
3725 25-04-2020 20:43:17 12.7 C 20 %
Sensor: Nr:Datum:Temp:Feuchte:
Aussen-T/F 3726 25-04-2020 20:53:17 12.4 C 20 %
3727 25-04-2020 21:03:18 12.1 C 20 %
3728 25-04-2020 21:13:18 12 C 20 %
3729 25-04-2020 21:23:17 11.4 C 21 %
3730 25-04-2020 21:33:17 11.1 C 22 %
3731 25-04-2020 21:43:18 11.2 C 21 %
3732 25-04-2020 21:53:17 11 C 22 %
3733 25-04-2020 22:03:17 11 C 22 %
3734 25-04-2020 22:13:17 10.9 C 23 %
3735 25-04-2020 22:23:17 10.1 C 25 %
3736 25-04-2020 22:33:17 10.1 C 25 %
3737 25-04-2020 22:43:17 9.9 C 26 %
3738 25-04-2020 22:53:18 9.8 C 27 %
3739 25-04-2020 23:03:17 9.6 C 27 %
3740 25-04-2020 23:13:17 9.5 C 27 %
3741 25-04-2020 23:23:17 9.1 C 28 %
3742 25-04-2020 23:33:18 8.7 C 30 %
3743 25-04-2020 23:43:18 8.2 C 31 %
3744 25-04-2020 23:53:17 7.7 C 32 %
3745 26-04-2020 00:03:18 7.1 C 33 %
3746 26-04-2020 00:13:18 6.8 C 35 %
3747 26-04-2020 00:23:17 6.6 C 35 %
3748 26-04-2020 00:33:18 6.3 C 35 %
3749 26-04-2020 00:43:18 6.2 C 36 %
3750 26-04-2020 00:53:17 5.9 C 37 %
Sensor: Nr:Datum:Temp:Feuchte:
Aussen-T/F 3751 26-04-2020 01:03:17 5.8 C 37 %
3752 26-04-2020 01:13:18 5.5 C 38 %
3753 26-04-2020 01:23:17 5.6 C 38 %
3754 26-04-2020 01:33:17 5.2 C 38 %
3755 26-04-2020 01:43:17 5.1 C 38 %
3756 26-04-2020 01:53:17 5.1 C 39 %
3757 26-04-2020 02:03:17 4.7 C 40 %
3758 26-04-2020 02:13:17 4.7 C 40 %
3759 26-04-2020 02:23:17 4.6 C 40 %
3760 26-04-2020 02:33:17 4.5 C 40 %
3761 26-04-2020 02:43:17 4.8 C 41 %
3762 26-04-2020 02:53:18 4.7 C 41 %
3763 26-04-2020 03:03:17 4.4 C 41 %
3764 26-04-2020 03:13:18 4.3 C 41 %
3765 26-04-2020 03:23:17 4.1 C 41 %
3766 26-04-2020 03:33:18 4 C 41 %
3767 26-04-2020 03:43:18 3.8 C 42 %
3768 26-04-2020 03:53:17 3.6 C 43 %
3769 26-04-2020 04:03:18 3.9 C 44 %
3770 26-04-2020 04:13:18 3.6 C 43 %
3771 26-04-2020 04:23:17 3.4 C 43 %
3772 26-04-2020 04:33:17 3.2 C 43 %
3773 26-04-2020 04:43:17 3.3 C 44 %
3774 26-04-2020 04:53:17 3.1 C 44 %
3775 26-04-2020 05:03:18 3.1 C 45 %
Sensor: Nr:Datum:Temp:Feuchte:
Aussen-T/F 3776 26-04-2020 05:13:18 3 C 44 %
3777 26-04-2020 05:23:17 2.7 C 45 %
3778 26-04-2020 05:33:17 2.6 C 45 %
3779 26-04-2020 05:43:17 2.7 C 46 %
3780 26-04-2020 05:53:17 2.5 C 46 %
3781 26-04-2020 06:03:17 2.3 C 46 %
3782 26-04-2020 06:13:17 2.4 C 46 %
3783 26-04-2020 06:23:17 2.4 C 46 %
3784 26-04-2020 06:33:17 2.4 C 46 %
3785 26-04-2020 06:43:18 2.3 C 46 %
3786 26-04-2020 06:53:17 2.3 C 46 %
3787 26-04-2020 07:03:17 2.3 C 46 %
3788 26-04-2020 07:13:17 2.6 C 47 %
3789 26-04-2020 07:23:17 2.7 C 47 %
3790 26-04-2020 07:33:17 2.8 C 46 %
3791 26-04-2020 07:43:17 2.8 C 46 %
3792 26-04-2020 07:53:17 2.9 C 47 %
3793 26-04-2020 08:03:17 3.2 C 46 %
3794 26-04-2020 08:13:17 3.4 C 46 %
3795 26-04-2020 08:23:17 3.6 C 46 %
3796 26-04-2020 08:33:17 4 C 45 %
3797 26-04-2020 08:43:17 4.3 C 45 %
3798 26-04-2020 08:53:17 4.5 C 45 %
3799 26-04-2020 09:03:17 4.9 C 45 %
3800 26-04-2020 09:13:17 5.2 C 43 %
Sensor: Nr:Datum:Temp:Feuchte:
Aussen-T/F 3801 26-04-2020 09:23:17 5.8 C 44 %
3802 26-04-2020 09:33:17 6.4 C 42 %
3803 26-04-2020 09:43:17 6.8 C 41 %
3804 26-04-2020 09:53:17 7.4 C 40 %
3805 26-04-2020 10:03:18 7.8 C 39 %
3806 26-04-2020 10:13:18 8.5 C 38 %
3807 26-04-2020 10:23:17 9 C 37 %
3808 26-04-2020 10:33:18 9.6 C 36 %
3809 26-04-2020 10:43:18 10.4 C 35 %
3810 26-04-2020 10:53:17 11.3 C 32 %
3811 26-04-2020 11:03:17 12.2 C 31 %
3812 26-04-2020 11:13:17 12.8 C 29 %
3813 26-04-2020 11:23:17 13.6 C 27 %
3814 26-04-2020 11:33:17 14.1 C 26 %
3815 26-04-2020 11:43:17 14.7 C 25 %
3816 26-04-2020 11:53:17 15.2 C 22 %
3817 26-04-2020 12:03:17 15.2 C 21 %
3818 26-04-2020 12:13:17 15.1 C 20 %
3819 26-04-2020 12:23:18 15.4 C 20 %
3820 26-04-2020 12:33:17 15.9 C 20 %
3821 26-04-2020 12:43:18 15.9 C 20 %
3822 26-04-2020 12:53:17 16.2 C 20 %
3823 26-04-2020 13:03:17 16.5 C 20 %
3824 26-04-2020 13:13:17 16.8 C 20 %
3825 26-04-2020 13:23:18 16.6 C 20 %
Sensor: Nr:Datum:Temp:Feuchte:
Aussen-T/F 3826 26-04-2020 13:33:17 16.8 C 20 %
3827 26-04-2020 13:43:17 17.1 C 20 %
3828 26-04-2020 13:53:17 17.1 C 20 %
3829 26-04-2020 14:03:17 17.4 C 20 %
3830 26-04-2020 14:13:17 18.1 C 20 %
3831 26-04-2020 14:23:17 19.3 C 20 %
3832 26-04-2020 14:33:18 25 C 20 %
3833 26-04-2020 14:43:18 24.8 C 20 %
3834 26-04-2020 14:53:17 26.7 C 20 %
3835 26-04-2020 15:03:18 26.6 C 20 %
3836 26-04-2020 15:13:18 28.3 C 20 %
3837 26-04-2020 15:23:17 29.7 C 20 %
3838 26-04-2020 15:33:17 29.5 C 20 %
3839 26-04-2020 15:43:17 28 C 20 %
3840 26-04-2020 15:53:18 29 C 20 %
3841 26-04-2020 16:03:18 30.5 C 20 %
3842 26-04-2020 16:13:18 27.6 C 20 %
3843 26-04-2020 16:23:17 28.4 C 20 %
3844 26-04-2020 16:33:17 26.5 C 20 %
3845 26-04-2020 16:43:17 30.3 C 20 %
3846 26-04-2020 16:53:17 28.1 C 20 %
3847 26-04-2020 17:03:18 29 C 20 %
3848 26-04-2020 17:13:18 28.3 C 20 %
3849 26-04-2020 17:23:18 27.4 C 20 %
3850 26-04-2020 17:33:18 27.2 C 20 %
Sensor: Nr:Datum:Temp:Feuchte:
Aussen-T/F 3851 26-04-2020 17:43:18 28 C 20 %
3852 26-04-2020 17:53:17 26.5 C 20 %
3853 26-04-2020 18:03:17 25.8 C 20 %
3854 26-04-2020 18:13:17 23.1 C 20 %
3855 26-04-2020 18:23:17 22 C 20 %
3856 26-04-2020 18:33:17 21.9 C 20 %
3857 26-04-2020 18:43:17 21.1 C 20 %
3858 26-04-2020 18:53:17 21.1 C 20 %
3859 26-04-2020 19:03:17 20.9 C 20 %
3860 26-04-2020 19:13:17 20.2 C 20 %
3861 26-04-2020 19:23:17 19.7 C 20 %
3862 26-04-2020 19:33:17 19.5 C 20 %
3863 26-04-2020 19:43:18 19.1 C 20 %
3864 26-04-2020 19:53:17 18.2 C 20 %
3865 26-04-2020 20:03:18 17.3 C 20 %
3866 26-04-2020 20:13:18 16.6 C 20 %
3867 26-04-2020 20:23:17 15.8 C 20 %
3868 26-04-2020 20:33:17 14.7 C 20 %
3869 26-04-2020 20:43:17 14.3 C 20 %
3870 26-04-2020 20:53:18 14 C 20 %
3871 26-04-2020 21:03:18 13.7 C 20 %
3872 26-04-2020 21:13:18 13.1 C 20 %
3873 26-04-2020 21:23:17 12.6 C 20 %
3874 26-04-2020 21:33:18 12.4 C 20 %
3875 26-04-2020 21:43:18 12.1 C 20 %
Sensor: Nr:Datum:Temp:Feuchte:
Aussen-T/F 3876 26-04-2020 21:53:17 11.6 C 23 %
3877 26-04-2020 22:03:17 11.3 C 25 %
3878 26-04-2020 22:13:17 10.9 C 26 %
3879 26-04-2020 22:23:18 10.7 C 26 %
3880 26-04-2020 22:33:17 10.5 C 26 %
3881 26-04-2020 22:43:17 9.9 C 28 %
3882 26-04-2020 22:53:17 9.6 C 29 %
3883 26-04-2020 23:03:17 9.2 C 29 %
3884 26-04-2020 23:13:17 9 C 30 %
3885 26-04-2020 23:23:17 8.9 C 30 %
3886 26-04-2020 23:33:18 8.8 C 30 %
3887 26-04-2020 23:43:18 8.7 C 30 %
3888 26-04-2020 23:53:17 8.5 C 30 %
3889 27-04-2020 00:03:18 8.3 C 30 %
3890 27-04-2020 00:13:18 8 C 31 %
3891 27-04-2020 00:23:18 7.9 C 32 %
3892 27-04-2020 00:33:17 7.6 C 32 %
3893 27-04-2020 00:43:17 7.4 C 33 %
3894 27-04-2020 00:53:17 7.2 C 33 %
3895 27-04-2020 01:03:18 7.1 C 33 %
3896 27-04-2020 01:13:18 6.8 C 35 %
3897 27-04-2020 01:23:18 6.9 C 35 %
3898 27-04-2020 01:33:17 6.9 C 35 %
3899 27-04-2020 01:43:17 6.8 C 35 %
3900 27-04-2020 01:53:17 6.4 C 35 %
Sensor: Nr:Datum:Temp:Feuchte:
Aussen-T/F 3901 27-04-2020 02:03:17 6.2 C 36 %
3902 27-04-2020 02:13:17 6 C 36 %
3903 27-04-2020 02:23:17 5.9 C 37 %
3904 27-04-2020 02:33:17 5.7 C 37 %
3905 27-04-2020 02:43:17 6 C 37 %
3906 27-04-2020 02:53:17 6 C 37 %
3907 27-04-2020 03:03:18 5.7 C 38 %
3908 27-04-2020 03:13:18 5.6 C 38 %
3909 27-04-2020 03:23:18 5.6 C 38 %
3910 27-04-2020 03:33:17 5.6 C 38 %
3911 27-04-2020 03:43:17 5.6 C 39 %
3912 27-04-2020 03:53:17 5.7 C 39 %
3913 27-04-2020 04:03:18 5 C 38 %
3914 27-04-2020 04:13:18 4.8 C 40 %
3915 27-04-2020 04:23:17 4.4 C 40 %
3916 27-04-2020 04:33:18 4.3 C 41 %
3917 27-04-2020 04:43:18 4 C 41 %
3918 27-04-2020 04:53:17 4.1 C 42 %
3919 27-04-2020 05:03:17 4 C 42 %
3920 27-04-2020 05:13:17 4.2 C 42 %
3921 27-04-2020 05:23:17 3.7 C 43 %
3922 27-04-2020 05:33:17 3.7 C 43 %
3923 27-04-2020 05:43:17 3.4 C 43 %
3924 27-04-2020 05:53:17 3.7 C 44 %
3925 27-04-2020 06:03:18 3.5 C 44 %
Sensor: Nr:Datum:Temp:Feuchte:
Aussen-T/F 3926 27-04-2020 06:13:18 3.4 C 44 %
3927 27-04-2020 06:23:17 3.6 C 45 %
3928 27-04-2020 06:33:17 3.8 C 45 %
3929 27-04-2020 06:43:17 3.8 C 44 %
3930 27-04-2020 06:53:17 3.8 C 44 %
3931 27-04-2020 07:03:17 3.8 C 44 %
3932 27-04-2020 07:13:17 3.9 C 45 %
3933 27-04-2020 07:23:17 3.9 C 45 %
3934 27-04-2020 07:33:17 4.2 C 44 %
3935 27-04-2020 07:43:17 4.5 C 43 %
3936 27-04-2020 07:53:17 4.6 C 43 %
3937 27-04-2020 08:03:17 4.9 C 42 %
3938 27-04-2020 08:13:17 4.8 C 42 %
3939 27-04-2020 08:23:17 5.1 C 42 %
3940 27-04-2020 08:33:17 5.5 C 41 %
3941 27-04-2020 08:43:17 5.7 C 41 %
3942 27-04-2020 08:53:17 6 C 41 %
3943 27-04-2020 09:03:18 6.4 C 40 %
3944 27-04-2020 09:13:18 6.6 C 40 %
3945 27-04-2020 09:23:17 7 C 40 %
3946 27-04-2020 09:33:17 7.6 C 39 %
3947 27-04-2020 09:43:17 8.3 C 37 %
3948 27-04-2020 09:53:17 8.5 C 38 %
3949 27-04-2020 10:03:17 9.1 C 37 %
3950 27-04-2020 10:13:17 9.9 C 37 %
Sensor: Nr:Datum:Temp:Feuchte:
Aussen-T/F 3951 27-04-2020 10:23:17 10.7 C 35 %
3952 27-04-2020 10:33:17 11.7 C 34 %
3953 27-04-2020 10:43:17 12.3 C 32 %
3954 27-04-2020 10:53:17 13.5 C 30 %
3955 27-04-2020 11:03:17 15.5 C 25 %
3956 27-04-2020 11:13:17 16.6 C 22 %
3957 27-04-2020 11:23:17 16.8 C 20 %
3958 27-04-2020 11:33:17 17.2 C 20 %
3959 27-04-2020 11:43:17 17.5 C 20 %
3960 27-04-2020 11:53:17 17.7 C 20 %
3961 27-04-2020 12:03:17 18.1 C 20 %
3962 27-04-2020 12:13:17 18.4 C 20 %
3963 27-04-2020 12:23:17 18.3 C 20 %
3964 27-04-2020 12:33:17 18.7 C 20 %
3965 27-04-2020 12:43:17 19 C 20 %
3966 27-04-2020 12:53:18 19.1 C 20 %
3967 27-04-2020 13:03:17 19.7 C 20 %
3968 27-04-2020 13:13:17 19.5 C 20 %
3969 27-04-2020 13:23:17 19.6 C 20 %
3970 27-04-2020 13:33:17 20.1 C 20 %
3971 27-04-2020 13:43:17 20.2 C 20 %
3972 27-04-2020 13:53:17 20.4 C 20 %
3973 27-04-2020 14:03:18 21 C 20 %
3974 27-04-2020 14:13:18 21.4 C 20 %
3975 27-04-2020 14:23:17 25.1 C 20 %
Sensor: Nr:Datum:Temp:Feuchte:
Aussen-T/F 3976 27-04-2020 14:33:18 25.5 C 20 %
3977 27-04-2020 14:43:18 28.2 C 20 %
3978 27-04-2020 14:53:17 28.9 C 20 %
3979 27-04-2020 15:03:17 30.1 C 20 %
3980 27-04-2020 15:13:17 27.6 C 20 %
3981 27-04-2020 15:23:17 26.7 C 20 %
3982 27-04-2020 15:33:17 27.5 C 20 %
3983 27-04-2020 15:43:17 27.6 C 20 %
3984 27-04-2020 15:53:17 27.9 C 20 %
3985 27-04-2020 16:03:17 26.8 C 20 %
3986 27-04-2020 16:13:17 23.7 C 20 %
3987 27-04-2020 16:23:17 23.4 C 20 %
3988 27-04-2020 16:33:17 24.1 C 20 %
3989 27-04-2020 16:43:17 23.7 C 20 %
3990 27-04-2020 16:53:17 22.7 C 20 %
3991 27-04-2020 17:03:18 22.1 C 20 %
3992 27-04-2020 17:13:18 22.1 C 20 %
3993 27-04-2020 17:23:17 21.6 C 20 %
3994 27-04-2020 17:33:17 21.7 C 20 %
3995 27-04-2020 17:43:17 21.6 C 20 %
3996 27-04-2020 17:53:17 22.2 C 20 %
3997 27-04-2020 18:03:17 21.5 C 20 %
3998 27-04-2020 18:13:17 21.8 C 20 %
3999 27-04-2020 18:23:17 24 C 20 %
4000 27-04-2020 18:33:18 23.1 C 20 %
Sensor: Nr:Datum:Temp:Feuchte:
Aussen-T/F 4001 27-04-2020 18:43:18 22.4 C 20 %
4002 27-04-2020 18:53:17 22.1 C 20 %
4003 27-04-2020 19:03:17 20.9 C 20 %
4004 27-04-2020 19:13:17 19.4 C 20 %
4005 27-04-2020 19:23:18 19.2 C 20 %
4006 27-04-2020 19:33:17 18.3 C 20 %
4007 27-04-2020 19:43:18 18.2 C 20 %
4008 27-04-2020 19:53:17 17.4 C 20 %
4009 27-04-2020 20:03:17 17.1 C 20 %
4010 27-04-2020 20:13:17 16.8 C 20 %
4011 27-04-2020 20:23:17 16.2 C 20 %
4012 27-04-2020 20:33:17 15.4 C 21 %
4013 27-04-2020 20:43:17 15.1 C 21 %
4014 27-04-2020 20:53:18 15.2 C 21 %
4015 27-04-2020 21:03:17 15 C 21 %
4016 27-04-2020 21:13:17 15 C 22 %
4017 27-04-2020 21:23:17 14.6 C 25 %
4018 27-04-2020 21:33:18 14.2 C 25 %
4019 27-04-2020 21:43:18 13.6 C 26 %
4020 27-04-2020 21:53:17 13.2 C 27 %
4021 27-04-2020 22:03:18 13.3 C 27 %
4022 27-04-2020 22:13:18 13.3 C 27 %
4023 27-04-2020 22:23:17 13 C 28 %
4024 27-04-2020 22:33:17 12.3 C 30 %
4025 27-04-2020 22:43:17 12.1 C 30 %
Sensor: Nr:Datum:Temp:Feuchte:
Aussen-T/F 4026 27-04-2020 22:53:18 12 C 30 %
4027 27-04-2020 23:03:17 12 C 30 %
4028 27-04-2020 23:13:17 12 C 30 %
4029 27-04-2020 23:23:17 11.8 C 31 %
4030 27-04-2020 23:33:17 11.4 C 32 %
4031 27-04-2020 23:43:17 11 C 32 %
4032 27-04-2020 23:53:18 10.6 C 34 %
4033 28-04-2020 00:03:17 10.5 C 35 %
4034 28-04-2020 00:13:17 10 C 35 %
4035 28-04-2020 00:23:17 10 C 35 %
4036 28-04-2020 00:33:18 9.8 C 36 %
4037 28-04-2020 00:43:18 9.8 C 36 %
4038 28-04-2020 00:53:17 9.7 C 36 %
4039 28-04-2020 01:03:18 9.5 C 36 %
4040 28-04-2020 01:13:18 9.3 C 37 %
4041 28-04-2020 01:23:17 9.1 C 37 %
4042 28-04-2020 01:33:17 9.1 C 37 %
4043 28-04-2020 01:43:18 9.2 C 37 %
4044 28-04-2020 01:53:17 8.8 C 38 %
4045 28-04-2020 02:03:18 8.7 C 39 %
4046 28-04-2020 02:13:18 8.8 C 39 %
4047 28-04-2020 02:23:17 8.4 C 39 %
4048 28-04-2020 02:33:18 8.2 C 39 %
4049 28-04-2020 02:43:18 8.3 C 40 %
4050 28-04-2020 02:53:18 8.6 C 40 %
Sensor: Nr:Datum:Temp:Feuchte:
Aussen-T/F 4051 28-04-2020 03:03:17 8.7 C 40 %
4052 28-04-2020 03:13:17 8.4 C 40 %
4053 28-04-2020 03:23:17 8.3 C 40 %
4054 28-04-2020 03:33:18 8.3 C 40 %
4055 28-04-2020 03:43:18 7.8 C 40 %
4056 28-04-2020 03:53:18 7.7 C 41 %
4057 28-04-2020 04:03:18 7.9 C 41 %
4058 28-04-2020 04:13:18 7.4 C 41 %
4059 28-04-2020 04:23:18 7.3 C 41 %
4060 28-04-2020 04:33:18 7.3 C 42 %
4061 28-04-2020 04:43:18 7.6 C 43 %
4062 28-04-2020 04:53:17 7.7 C 42 %
4063 28-04-2020 05:03:17 7.8 C 41 %
4064 28-04-2020 05:13:17 7.8 C 42 %
4065 28-04-2020 05:23:17 7.8 C 41 %
4066 28-04-2020 05:33:18 7.9 C 41 %
4067 28-04-2020 05:43:18 7.7 C 41 %
4068 28-04-2020 05:53:17 7.5 C 41 %
4069 28-04-2020 06:03:17 7.2 C 41 %
4070 28-04-2020 06:13:17 7 C 42 %
4071 28-04-2020 06:23:17 7.3 C 43 %
4072 28-04-2020 06:33:18 7.6 C 43 %
4073 28-04-2020 06:43:18 8 C 42 %
4074 28-04-2020 06:53:17 8.3 C 41 %
4075 28-04-2020 07:03:18 8.7 C 41 %
Sensor: Nr:Datum:Temp:Feuchte:
Aussen-T/F 4076 28-04-2020 07:13:18 9.1 C 40 %
4077 28-04-2020 07:23:18 9.3 C 39 %
4078 28-04-2020 07:33:17 9.5 C 39 %
4079 28-04-2020 07:43:17 9.6 C 39 %
4080 28-04-2020 07:53:17 9.4 C 39 %
4081 28-04-2020 08:03:17 9.2 C 40 %
4082 28-04-2020 08:13:17 9.5 C 41 %
4083 28-04-2020 08:23:17 9.8 C 41 %
4084 28-04-2020 08:33:17 10 C 41 %
4085 28-04-2020 08:43:17 10.1 C 41 %
4086 28-04-2020 08:53:17 10.6 C 40 %
4087 28-04-2020 09:03:17 10.7 C 40 %
4088 28-04-2020 09:13:17 11.2 C 39 %
4089 28-04-2020 09:23:17 11.7 C 39 %
4090 28-04-2020 09:33:18 11.8 C 39 %
4091 28-04-2020 09:43:18 11.8 C 38 %
4092 28-04-2020 09:53:17 12.2 C 38 %
4093 28-04-2020 10:03:17 12.8 C 38 %
4094 28-04-2020 10:13:17 12.9 C 37 %
4095 28-04-2020 10:23:18 13.3 C 36 %
4096 28-04-2020 10:33:17 13.7 C 36 %
4097 28-04-2020 10:43:17 14 C 35 %
4098 28-04-2020 10:53:17 14.1 C 35 %
4099 28-04-2020 11:03:17 13.4 C 37 %
4100 28-04-2020 11:13:17 13.8 C 38 %
Sensor: Nr:Datum:Temp:Feuchte:
Aussen-T/F 4101 28-04-2020 11:23:17 13.5 C 38 %
4102 28-04-2020 11:33:17 14.2 C 38 %
4103 28-04-2020 11:43:17 14.3 C 37 %
4104 28-04-2020 11:53:17 14.6 C 38 %
4105 28-04-2020 12:03:17 14.9 C 37 %
4106 28-04-2020 12:13:17 15 C 37 %
4107 28-04-2020 12:23:17 14.9 C 38 %
4108 28-04-2020 12:33:17 15.2 C 37 %
4109 28-04-2020 12:43:17 15 C 38 %
4110 28-04-2020 12:53:17 14.9 C 39 %
4111 28-04-2020 13:03:18 14.7 C 39 %
4112 28-04-2020 13:13:18 14.5 C 41 %
4113 28-04-2020 13:23:17 14.2 C 41 %
4114 28-04-2020 13:33:17 14.9 C 40 %
4115 28-04-2020 13:43:17 14.9 C 38 %
4116 28-04-2020 13:53:17 15.2 C 36 %
4117 28-04-2020 14:03:17 16.2 C 36 %
4118 28-04-2020 14:13:17 16.9 C 35 %
4119 28-04-2020 14:23:18 20.2 C 30 %
4120 28-04-2020 14:33:18 17.5 C 32 %
4121 28-04-2020 14:43:18 16.5 C 34 %
4122 28-04-2020 14:53:17 17.2 C 33 %
4123 28-04-2020 15:03:17 16.4 C 34 %
4124 28-04-2020 15:13:17 15.6 C 36 %
4125 28-04-2020 15:23:17 15.6 C 36 %
Sensor: Nr:Datum:Temp:Feuchte:
Aussen-T/F 4126 28-04-2020 15:33:17 18.1 C 32 %
4127 28-04-2020 15:43:17 16.5 C 33 %
4128 28-04-2020 15:53:17 17 C 32 %
4129 28-04-2020 16:03:18 17.1 C 32 %
4130 28-04-2020 16:13:18 16.7 C 32 %
4131 28-04-2020 16:23:17 16.9 C 32 %
4132 28-04-2020 16:33:17 18.5 C 30 %
4133 28-04-2020 16:43:17 20.1 C 26 %
4134 28-04-2020 16:53:17 19.4 C 27 %
4135 28-04-2020 17:03:17 17.6 C 30 %
4136 28-04-2020 17:13:17 17.4 C 30 %
4137 28-04-2020 17:23:17 17.2 C 29 %
4138 28-04-2020 17:33:17 17 C 30 %
4139 28-04-2020 17:43:17 16.8 C 30 %
4140 28-04-2020 17:53:17 17.6 C 28 %
4141 28-04-2020 18:03:17 18.2 C 27 %
4142 28-04-2020 18:13:17 17.4 C 29 %
4143 28-04-2020 18:23:17 18 C 28 %
4144 28-04-2020 18:33:18 17.6 C 28 %
4145 28-04-2020 18:43:18 17.7 C 28 %
4146 28-04-2020 18:53:17 16.6 C 30 %
4147 28-04-2020 19:03:17 16.3 C 30 %
4148 28-04-2020 19:13:17 16.3 C 30 %
4149 28-04-2020 19:23:17 16.3 C 30 %
4150 28-04-2020 19:33:18 16.4 C 30 %
Sensor: Nr:Datum:Temp:Feuchte:
Aussen-T/F 4151 28-04-2020 19:43:18 16.5 C 30 %
4152 28-04-2020 19:53:17 16.1 C 30 %
4153 28-04-2020 20:03:18 15 C 32 %
4154 28-04-2020 20:13:18 14.2 C 35 %
4155 28-04-2020 20:23:17 13.6 C 37 %
4156 28-04-2020 20:33:17 13.4 C 37 %
4157 28-04-2020 20:43:18 13.1 C 37 %
4158 28-04-2020 20:53:17 13 C 38 %
4159 28-04-2020 21:03:17 12.5 C 39 %
4160 28-04-2020 21:13:17 13.5 C 36 %
4161 28-04-2020 21:23:17 13.9 C 35 %
4162 28-04-2020 21:33:17 14.6 C 34 %
4163 28-04-2020 21:43:17 14.4 C 34 %
4164 28-04-2020 21:53:17 14.2 C 34 %
4165 28-04-2020 22:03:17 13.4 C 35 %
4166 28-04-2020 22:13:17 12.8 C 37 %
4167 28-04-2020 22:23:17 12.8 C 37 %
4168 28-04-2020 22:33:17 13 C 36 %
4169 28-04-2020 22:43:17 13.1 C 36 %
4170 28-04-2020 22:53:18 12.9 C 37 %
4171 28-04-2020 23:03:17 12.7 C 38 %
4172 28-04-2020 23:13:18 12.7 C 38 %
4173 28-04-2020 23:23:18 12.7 C 38 %
4174 28-04-2020 23:33:18 12.7 C 38 %
4175 28-04-2020 23:43:18 12.5 C 39 %
Sensor: Nr:Datum:Temp:Feuchte:
Aussen-T/F 4176 28-04-2020 23:53:18 12.2 C 39 %
Sensor: Nr:Datum:Temp:Feuchte:
G-T/H 1 31-03-2020 00:00:18 8.5 C 62 %
2 31-03-2020 00:10:18 8.5 C 62 %
3 31-03-2020 00:20:18 8.5 C 62 %
4 31-03-2020 00:30:18 8.5 C 63 %
5 31-03-2020 00:40:18 8.6 C 63 %
6 31-03-2020 00:50:18 8.5 C 63 %
7 31-03-2020 01:00:18 8.5 C 63 %
8 31-03-2020 01:10:18 8.5 C 63 %
9 31-03-2020 01:20:18 8.6 C 63 %
10 31-03-2020 01:30:18 8.5 C 63 %
11 31-03-2020 01:40:18 8.6 C 63 %
12 31-03-2020 01:50:18 8.5 C 63 %
13 31-03-2020 02:00:18 8.5 C 63 %
14 31-03-2020 02:10:18 8.5 C 63 %
15 31-03-2020 02:20:17 8.5 C 63 %
16 31-03-2020 02:30:18 8.5 C 63 %
17 31-03-2020 02:40:18 8.5 C 63 %
18 31-03-2020 02:50:18 8.5 C 63 %
19 31-03-2020 03:00:18 8.5 C 64 %
20 31-03-2020 03:10:18 8.5 C 64 %
21 31-03-2020 03:20:17 8.5 C 64 %
22 31-03-2020 03:30:18 8.5 C 64 %
23 31-03-2020 03:40:18 8.5 C 64 %
24 31-03-2020 03:50:18 8.5 C 64 %
25 31-03-2020 04:00:18 8.5 C 64 %
Sensor: Nr:Datum:Temp:Feuchte:
G-T/H 26 31-03-2020 04:10:18 8.5 C 64 %
27 31-03-2020 04:20:18 8.5 C 64 %
28 31-03-2020 04:30:17 8.5 C 64 %
29 31-03-2020 04:40:18 8.5 C 64 %
30 31-03-2020 04:50:17 8.5 C 64 %
31 31-03-2020 05:00:18 8.5 C 64 %
32 31-03-2020 05:10:18 8.5 C 64 %
33 31-03-2020 05:20:17 8.5 C 64 %
34 31-03-2020 05:30:18 8.5 C 64 %
35 31-03-2020 05:40:18 8.5 C 64 %
36 31-03-2020 05:50:18 8.5 C 64 %
37 31-03-2020 06:00:18 8.5 C 64 %
38 31-03-2020 06:10:18 8.5 C 64 %
39 31-03-2020 06:20:18 8.5 C 64 %
40 31-03-2020 06:30:18 8.4 C 64 %
41 31-03-2020 06:40:18 8.5 C 64 %
42 31-03-2020 06:50:18 8.4 C 64 %
43 31-03-2020 07:00:18 8.5 C 64 %
44 31-03-2020 07:10:18 8.4 C 64 %
45 31-03-2020 07:20:18 8.4 C 64 %
46 31-03-2020 07:30:18 8.4 C 64 %
47 31-03-2020 07:40:18 8.4 C 65 %
48 31-03-2020 07:50:17 8.4 C 65 %
49 31-03-2020 08:00:18 8.4 C 65 %
50 31-03-2020 08:10:18 8.4 C 65 %
Sensor: Nr:Datum:Temp:Feuchte:
G-T/H 51 31-03-2020 08:20:18 8.4 C 65 %
52 31-03-2020 08:30:18 8.4 C 65 %
53 31-03-2020 08:40:18 8.4 C 65 %
54 31-03-2020 08:50:17 8.4 C 65 %
55 31-03-2020 09:00:18 8.4 C 65 %
56 31-03-2020 09:10:18 8.4 C 65 %
57 31-03-2020 09:20:18 8.4 C 65 %
58 31-03-2020 09:30:17 8.4 C 65 %
59 31-03-2020 09:40:17 8.4 C 65 %
60 31-03-2020 09:50:18 8.4 C 65 %
61 31-03-2020 10:00:18 8.4 C 65 %
62 31-03-2020 10:10:18 8.4 C 65 %
63 31-03-2020 10:20:18 8.4 C 65 %
64 31-03-2020 10:30:18 8.4 C 65 %
65 31-03-2020 10:40:18 8.4 C 64 %
66 31-03-2020 10:50:17 8.4 C 64 %
67 31-03-2020 11:00:17 8.4 C 64 %
68 31-03-2020 11:10:17 8.4 C 64 %
69 31-03-2020 11:20:18 8.4 C 64 %
70 31-03-2020 11:30:18 8.4 C 64 %
71 31-03-2020 11:40:18 8.4 C 64 %
72 31-03-2020 11:50:17 8.4 C 64 %
73 31-03-2020 12:00:18 8.4 C 64 %
74 31-03-2020 12:10:18 8.4 C 64 %
75 31-03-2020 12:20:17 8.4 C 64 %
Sensor: Nr:Datum:Temp:Feuchte:
G-T/H 76 31-03-2020 12:30:18 8.4 C 64 %
77 31-03-2020 12:40:18 8.5 C 64 %
78 31-03-2020 12:50:18 8.5 C 64 %
79 31-03-2020 13:00:17 8.5 C 64 %
80 31-03-2020 13:10:17 8.5 C 64 %
81 31-03-2020 13:20:17 8.5 C 63 %
82 31-03-2020 13:30:17 8.5 C 63 %
83 31-03-2020 13:40:17 8.4 C 63 %
84 31-03-2020 13:51:17 8.5 C 63 %
85 31-03-2020 14:00:17 8.5 C 63 %
86 31-03-2020 14:10:17 8.5 C 63 %
87 31-03-2020 14:20:17 8.5 C 63 %
88 31-03-2020 14:30:17 8.5 C 63 %
89 31-03-2020 14:40:17 8.5 C 63 %
90 31-03-2020 14:51:17 8.6 C 63 %
91 31-03-2020 15:00:17 8.6 C 63 %
92 31-03-2020 15:10:18 8.6 C 63 %
93 31-03-2020 15:20:17 8.6 C 63 %
94 31-03-2020 15:30:17 8.6 C 63 %
95 31-03-2020 15:40:17 8.6 C 63 %
96 31-03-2020 15:50:18 8.6 C 63 %
97 31-03-2020 16:00:17 8.6 C 63 %
98 31-03-2020 16:10:17 8.6 C 63 %
99 31-03-2020 16:20:17 8.6 C 63 %
100 31-03-2020 16:31:17 8.7 C 63 %
Sensor: Nr:Datum:Temp:Feuchte:
G-T/H 101 31-03-2020 16:40:17 8.7 C 63 %
102 31-03-2020 16:50:17 8.7 C 63 %
103 31-03-2020 17:00:17 8.7 C 63 %
104 31-03-2020 17:10:17 8.7 C 63 %
105 31-03-2020 17:21:17 8.7 C 63 %
106 31-03-2020 17:31:17 8.8 C 63 %
107 31-03-2020 17:40:17 8.8 C 63 %
108 31-03-2020 17:51:17 8.8 C 62 %
109 31-03-2020 18:01:17 8.8 C 59 %
110 31-03-2020 18:11:17 8.8 C 56 %
111 31-03-2020 18:21:17 8.8 C 56 %
112 31-03-2020 18:31:17 8.8 C 56 %
113 31-03-2020 18:40:17 8.8 C 56 %
114 31-03-2020 18:51:17 8.8 C 57 %
115 31-03-2020 19:00:17 8.8 C 58 %
116 31-03-2020 19:10:17 8.9 C 58 %
117 31-03-2020 19:20:17 8.8 C 58 %
118 31-03-2020 19:31:17 8.9 C 59 %
119 31-03-2020 19:41:17 8.9 C 59 %
120 31-03-2020 19:50:17 8.9 C 59 %
121 31-03-2020 20:01:17 8.9 C 60 %
122 31-03-2020 20:11:17 8.9 C 60 %
123 31-03-2020 20:21:17 8.9 C 60 %
124 31-03-2020 20:31:17 8.9 C 61 %
125 31-03-2020 20:41:17 8.9 C 61 %
Sensor: Nr:Datum:Temp:Feuchte:
G-T/H 126 31-03-2020 20:51:17 8.9 C 61 %
127 31-03-2020 21:00:17 8.9 C 61 %
128 31-03-2020 21:10:18 8.9 C 61 %
129 31-03-2020 21:21:17 8.8 C 61 %
130 31-03-2020 21:31:17 8.9 C 61 %
131 31-03-2020 21:41:17 8.9 C 62 %
132 31-03-2020 21:51:17 8.9 C 62 %
133 31-03-2020 22:00:18 8.9 C 62 %
134 31-03-2020 22:10:18 8.8 C 62 %
135 31-03-2020 22:21:17 8.8 C 62 %
136 31-03-2020 22:31:17 8.8 C 62 %
137 31-03-2020 22:41:17 8.8 C 62 %
138 31-03-2020 22:50:18 8.8 C 62 %
139 31-03-2020 23:01:17 8.8 C 62 %
140 31-03-2020 23:11:17 8.8 C 62 %
141 31-03-2020 23:21:17 8.8 C 62 %
142 31-03-2020 23:30:17 8.8 C 62 %
143 31-03-2020 23:40:18 8.8 C 62 %
144 31-03-2020 23:51:17 8.8 C 62 %
145 01-04-2020 00:01:17 8.8 C 62 %
146 01-04-2020 00:11:17 8.8 C 62 %
147 01-04-2020 00:21:17 8.8 C 62 %
148 01-04-2020 00:31:17 8.7 C 62 %
149 01-04-2020 00:41:17 8.7 C 62 %
150 01-04-2020 00:51:17 8.7 C 62 %
Sensor: Nr:Datum:Temp:Feuchte:
G-T/H 151 01-04-2020 01:01:17 8.7 C 62 %
152 01-04-2020 01:11:17 8.7 C 62 %
153 01-04-2020 01:21:17 8.7 C 62 %
154 01-04-2020 01:30:18 8.7 C 62 %
155 01-04-2020 01:40:18 8.7 C 62 %
156 01-04-2020 01:51:17 8.6 C 62 %
157 01-04-2020 02:01:17 8.6 C 62 %
158 01-04-2020 02:11:17 8.6 C 62 %
159 01-04-2020 02:21:17 8.6 C 62 %
160 01-04-2020 02:31:17 8.6 C 62 %
161 01-04-2020 02:41:17 8.6 C 62 %
162 01-04-2020 02:50:18 8.6 C 62 %
163 01-04-2020 03:01:17 8.5 C 62 %
164 01-04-2020 03:11:17 8.5 C 62 %
165 01-04-2020 03:21:17 8.5 C 62 %
166 01-04-2020 03:31:17 8.5 C 62 %
167 01-04-2020 03:41:18 8.5 C 62 %
168 01-04-2020 03:51:17 8.5 C 62 %
169 01-04-2020 04:01:17 8.5 C 62 %
170 01-04-2020 04:11:17 8.4 C 62 %
171 01-04-2020 04:21:17 8.4 C 62 %
172 01-04-2020 04:31:18 8.4 C 62 %
173 01-04-2020 04:41:19 8.4 C 62 %
174 01-04-2020 04:51:17 8.4 C 62 %
175 01-04-2020 05:01:18 8.3 C 61 %
Sensor: Nr:Datum:Temp:Feuchte:
G-T/H 176 01-04-2020 05:11:19 8.3 C 61 %
177 01-04-2020 05:21:17 8.3 C 61 %
178 01-04-2020 05:31:18 8.3 C 61 %
179 01-04-2020 05:41:18 8.3 C 61 %
180 01-04-2020 05:51:17 8.2 C 61 %
181 01-04-2020 06:01:18 8.2 C 61 %
182 01-04-2020 06:11:18 8.2 C 61 %
183 01-04-2020 06:21:17 8.2 C 61 %
184 01-04-2020 06:31:17 8.1 C 61 %
185 01-04-2020 06:41:17 8.1 C 61 %
186 01-04-2020 06:51:17 8.1 C 61 %
187 01-04-2020 07:01:18 8.1 C 61 %
188 01-04-2020 07:11:19 8.1 C 61 %
189 01-04-2020 07:21:17 8.1 C 61 %
190 01-04-2020 07:31:18 8 C 61 %
191 01-04-2020 07:41:18 8 C 61 %
192 01-04-2020 07:51:17 8 C 61 %
193 01-04-2020 08:01:17 8 C 61 %
194 01-04-2020 08:11:17 8 C 61 %
195 01-04-2020 08:21:17 7.9 C 62 %
196 01-04-2020 08:31:17 7.9 C 62 %
197 01-04-2020 08:41:17 7.9 C 62 %
198 01-04-2020 08:51:17 7.9 C 62 %
199 01-04-2020 09:01:17 7.9 C 62 %
200 01-04-2020 09:11:17 7.9 C 62 %
Sensor: Nr:Datum:Temp:Feuchte:
G-T/H 201 01-04-2020 09:21:17 7.9 C 62 %
202 01-04-2020 09:31:17 7.8 C 62 %
203 01-04-2020 09:41:17 7.8 C 62 %
204 01-04-2020 09:51:17 7.8 C 62 %
205 01-04-2020 10:01:17 7.8 C 62 %
206 01-04-2020 10:11:17 7.8 C 62 %
207 01-04-2020 10:21:17 7.8 C 62 %
208 01-04-2020 10:31:18 7.8 C 62 %
209 01-04-2020 10:41:18 7.8 C 62 %
210 01-04-2020 10:51:17 7.8 C 62 %
211 01-04-2020 11:01:17 7.7 C 62 %
212 01-04-2020 11:11:17 7.8 C 62 %
213 01-04-2020 11:21:17 7.8 C 62 %
214 01-04-2020 11:31:17 7.7 C 62 %
215 01-04-2020 11:41:17 7.7 C 63 %
216 01-04-2020 11:51:17 7.8 C 63 %
217 01-04-2020 12:01:17 7.7 C 63 %
218 01-04-2020 12:11:18 7.8 C 63 %
219 01-04-2020 12:21:17 7.8 C 63 %
220 01-04-2020 12:31:17 7.8 C 63 %
221 01-04-2020 12:41:17 7.7 C 63 %
222 01-04-2020 12:51:17 7.7 C 63 %
223 01-04-2020 13:01:17 7.7 C 63 %
224 01-04-2020 13:11:17 7.8 C 63 %
225 01-04-2020 13:21:16 7.8 C 64 %
Sensor: Nr:Datum:Temp:Feuchte:
G-T/H 226 01-04-2020 13:31:17 7.8 C 64 %
227 01-04-2020 13:41:17 7.8 C 64 %
228 01-04-2020 13:51:17 7.8 C 64 %
229 01-04-2020 14:01:17 7.8 C 64 %
230 01-04-2020 14:11:17 7.9 C 64 %
231 01-04-2020 14:21:17 7.9 C 64 %
232 01-04-2020 14:31:16 7.9 C 64 %
233 01-04-2020 14:41:16 7.9 C 64 %
234 01-04-2020 14:51:17 7.9 C 64 %
235 01-04-2020 15:01:17 7.9 C 64 %
236 01-04-2020 15:11:17 8 C 63 %
237 01-04-2020 15:21:17 8 C 62 %
238 01-04-2020 15:31:16 8 C 62 %
239 01-04-2020 15:41:16 8 C 62 %
240 01-04-2020 15:51:17 8 C 62 %
241 01-04-2020 16:01:16 8.1 C 63 %
242 01-04-2020 16:11:16 8 C 63 %
243 01-04-2020 16:21:16 8.1 C 63 %
244 01-04-2020 16:31:17 8.1 C 63 %
245 01-04-2020 16:41:17 8.1 C 63 %
246 01-04-2020 16:51:16 8.1 C 63 %
247 01-04-2020 17:01:16 8.1 C 63 %
248 01-04-2020 17:11:16 8.2 C 63 %
249 01-04-2020 17:21:17 8.2 C 63 %
250 01-04-2020 17:31:17 8.2 C 63 %
Sensor: Nr:Datum:Temp:Feuchte:
G-T/H 251 01-04-2020 17:41:17 8.2 C 63 %
252 01-04-2020 17:51:17 8.2 C 63 %
253 01-04-2020 18:01:17 8.2 C 63 %
254 01-04-2020 18:11:17 8.2 C 63 %
255 01-04-2020 18:21:16 8.2 C 63 %
256 01-04-2020 18:31:17 8.3 C 63 %
257 01-04-2020 18:41:17 8.3 C 63 %
258 01-04-2020 18:51:16 8.3 C 63 %
259 01-04-2020 19:01:17 8.3 C 63 %
260 01-04-2020 19:11:17 8.4 C 63 %
261 01-04-2020 19:21:17 8.4 C 64 %
262 01-04-2020 19:31:17 8.4 C 64 %
263 01-04-2020 19:41:17 8.4 C 64 %
264 01-04-2020 19:51:16 8.4 C 64 %
265 01-04-2020 20:01:17 8.4 C 64 %
266 01-04-2020 20:11:17 8.4 C 64 %
267 01-04-2020 20:21:16 8.4 C 64 %
268 01-04-2020 20:31:16 8.5 C 64 %
269 01-04-2020 20:41:16 8.5 C 64 %
270 01-04-2020 20:51:16 8.5 C 64 %
271 01-04-2020 21:01:16 8.5 C 64 %
272 01-04-2020 21:11:16 8.5 C 64 %
273 01-04-2020 21:21:16 8.5 C 64 %
274 01-04-2020 21:31:16 8.5 C 64 %
275 01-04-2020 21:41:16 8.4 C 64 %
Sensor: Nr:Datum:Temp:Feuchte:
G-T/H 276 01-04-2020 21:51:16 8.5 C 64 %
277 01-04-2020 22:01:16 8.5 C 64 %
278 01-04-2020 22:11:16 8.5 C 64 %
279 01-04-2020 22:21:16 8.5 C 64 %
280 01-04-2020 22:31:16 8.5 C 64 %
281 01-04-2020 22:41:16 8.5 C 64 %
282 01-04-2020 22:51:16 8.5 C 64 %
283 01-04-2020 23:01:17 8.5 C 64 %
284 01-04-2020 23:11:17 8.5 C 64 %
285 01-04-2020 23:21:16 8.5 C 64 %
286 01-04-2020 23:31:16 8.4 C 64 %
287 01-04-2020 23:41:16 8.5 C 64 %
288 01-04-2020 23:51:16 8.5 C 64 %
289 02-04-2020 00:01:17 8.5 C 64 %
290 02-04-2020 00:11:17 8.5 C 64 %
291 02-04-2020 00:21:16 8.4 C 64 %
292 02-04-2020 00:31:17 8.4 C 64 %
293 02-04-2020 00:41:17 8.4 C 64 %
294 02-04-2020 00:51:16 8.4 C 64 %
295 02-04-2020 01:01:17 8.4 C 64 %
296 02-04-2020 01:11:17 8.4 C 64 %
297 02-04-2020 01:21:16 8.4 C 64 %
298 02-04-2020 01:31:17 8.4 C 64 %
299 02-04-2020 01:41:17 8.4 C 64 %
300 02-04-2020 01:51:16 8.4 C 64 %
Sensor: Nr:Datum:Temp:Feuchte:
G-T/H 301 02-04-2020 02:01:16 8.4 C 64 %
302 02-04-2020 02:11:16 8.4 C 64 %
303 02-04-2020 02:21:16 8.4 C 64 %
304 02-04-2020 02:31:17 8.3 C 64 %
305 02-04-2020 02:41:17 8.3 C 64 %
306 02-04-2020 02:51:17 8.3 C 63 %
307 02-04-2020 03:01:17 8.3 C 63 %
308 02-04-2020 03:11:17 8.3 C 63 %
309 02-04-2020 03:21:17 8.3 C 63 %
310 02-04-2020 03:31:17 8.3 C 63 %
311 02-04-2020 03:41:17 8.2 C 63 %
312 02-04-2020 03:51:18 8.2 C 63 %
313 02-04-2020 04:01:18 8.2 C 63 %
314 02-04-2020 04:11:18 8.2 C 63 %
315 02-04-2020 04:21:18 8.2 C 63 %
316 02-04-2020 04:31:17 8.2 C 63 %
317 02-04-2020 04:41:17 8.2 C 63 %
318 02-04-2020 04:51:17 8.2 C 63 %
319 02-04-2020 05:01:18 8.2 C 63 %
320 02-04-2020 05:11:18 8.1 C 63 %
321 02-04-2020 05:21:17 8.1 C 63 %
322 02-04-2020 05:31:18 8.1 C 63 %
323 02-04-2020 05:41:18 8.1 C 63 %
324 02-04-2020 05:51:17 8.1 C 63 %
325 02-04-2020 06:01:17 8.1 C 63 %
Sensor: Nr:Datum:Temp:Feuchte:
G-T/H 326 02-04-2020 06:11:17 8 C 63 %
327 02-04-2020 06:21:17 8 C 63 %
328 02-04-2020 06:31:17 8 C 63 %
329 02-04-2020 06:41:17 8 C 63 %
330 02-04-2020 06:51:17 8 C 62 %
331 02-04-2020 07:01:17 8 C 62 %
332 02-04-2020 07:11:17 8 C 62 %
333 02-04-2020 07:21:17 7.9 C 63 %
334 02-04-2020 07:31:17 7.9 C 63 %
335 02-04-2020 07:41:18 7.9 C 63 %
336 02-04-2020 07:51:17 7.9 C 63 %
337 02-04-2020 08:01:17 7.9 C 63 %
338 02-04-2020 08:11:18 7.9 C 63 %
339 02-04-2020 08:21:17 7.8 C 63 %
340 02-04-2020 08:31:17 7.9 C 63 %
341 02-04-2020 08:41:17 7.8 C 63 %
342 02-04-2020 08:51:17 7.8 C 63 %
343 02-04-2020 09:01:17 7.8 C 63 %
344 02-04-2020 09:11:17 7.8 C 63 %
345 02-04-2020 09:21:17 7.8 C 63 %
346 02-04-2020 09:31:17 7.8 C 63 %
347 02-04-2020 09:41:17 7.8 C 63 %
348 02-04-2020 09:51:18 7.8 C 63 %
349 02-04-2020 10:01:18 7.7 C 63 %
350 02-04-2020 10:11:18 7.7 C 63 %
Sensor: Nr:Datum:Temp:Feuchte:
G-T/H 351 02-04-2020 10:21:17 7.7 C 63 %
352 02-04-2020 10:31:17 7.7 C 63 %
353 02-04-2020 10:41:17 7.7 C 63 %
354 02-04-2020 10:51:17 7.6 C 64 %
355 02-04-2020 11:01:17 7.6 C 64 %
356 02-04-2020 11:11:17 7.7 C 64 %
357 02-04-2020 11:21:17 7.7 C 64 %
358 02-04-2020 11:31:18 7.6 C 64 %
359 02-04-2020 11:41:18 7.7 C 64 %
360 02-04-2020 11:51:17 7.7 C 64 %
361 02-04-2020 12:01:17 7.7 C 64 %
362 02-04-2020 12:11:17 7.7 C 65 %
363 02-04-2020 12:21:17 7.7 C 65 %
364 02-04-2020 12:31:18 7.7 C 65 %
365 02-04-2020 12:41:18 7.7 C 65 %
366 02-04-2020 12:51:17 7.8 C 65 %
367 02-04-2020 13:01:17 7.8 C 65 %
368 02-04-2020 13:11:18 7.8 C 65 %
369 02-04-2020 13:21:17 7.8 C 65 %
370 02-04-2020 13:31:17 7.8 C 65 %
371 02-04-2020 13:41:17 7.8 C 65 %
372 02-04-2020 13:51:17 7.8 C 65 %
373 02-04-2020 14:01:17 7.9 C 65 %
374 02-04-2020 14:11:17 7.9 C 65 %
375 02-04-2020 14:21:17 7.9 C 65 %
Sensor: Nr:Datum:Temp:Feuchte:
G-T/H 376 02-04-2020 14:31:18 8 C 65 %
377 02-04-2020 14:41:18 7.9 C 66 %
378 02-04-2020 14:51:17 8 C 65 %
379 02-04-2020 15:01:18 8 C 65 %
380 02-04-2020 15:11:18 8 C 65 %
381 02-04-2020 15:21:17 8 C 65 %
382 02-04-2020 15:31:18 8.1 C 65 %
383 02-04-2020 15:41:18 8.1 C 65 %
384 02-04-2020 15:51:17 8.1 C 65 %
385 02-04-2020 16:01:17 8.1 C 65 %
386 02-04-2020 16:11:17 8.1 C 65 %
387 02-04-2020 16:21:17 8.1 C 65 %
388 02-04-2020 16:31:18 8.2 C 65 %
389 02-04-2020 16:41:18 8.2 C 65 %
390 02-04-2020 16:51:17 8.2 C 65 %
391 02-04-2020 17:01:17 8.3 C 65 %
392 02-04-2020 17:11:17 8.3 C 65 %
393 02-04-2020 17:21:17 8.3 C 65 %
394 02-04-2020 17:31:18 8.3 C 65 %
395 02-04-2020 17:41:18 8.3 C 65 %
396 02-04-2020 17:51:17 8.4 C 65 %
397 02-04-2020 18:01:17 8.4 C 65 %
398 02-04-2020 18:11:17 8.4 C 65 %
399 02-04-2020 18:21:17 8.4 C 65 %
400 02-04-2020 18:31:17 8.4 C 65 %
Sensor: Nr:Datum:Temp:Feuchte:
G-T/H 401 02-04-2020 18:41:17 8.5 C 65 %
402 02-04-2020 18:51:17 8.5 C 65 %
403 02-04-2020 19:01:17 8.5 C 65 %
404 02-04-2020 19:11:17 8.5 C 65 %
405 02-04-2020 19:21:17 8.6 C 65 %
406 02-04-2020 19:31:17 8.6 C 66 %
407 02-04-2020 19:41:17 8.6 C 66 %
408 02-04-2020 19:51:17 8.6 C 66 %
409 02-04-2020 20:01:17 8.6 C 66 %
410 02-04-2020 20:11:17 8.6 C 66 %
411 02-04-2020 20:21:17 8.6 C 66 %
412 02-04-2020 20:31:17 8.6 C 66 %
413 02-04-2020 20:41:17 8.6 C 66 %
414 02-04-2020 20:51:17 8.6 C 66 %
415 02-04-2020 21:01:17 8.6 C 66 %
416 02-04-2020 21:11:17 8.7 C 66 %
417 02-04-2020 21:21:17 8.7 C 66 %
418 02-04-2020 21:31:18 8.7 C 66 %
419 02-04-2020 21:41:18 8.7 C 66 %
420 02-04-2020 21:51:17 8.7 C 66 %
421 02-04-2020 22:01:17 8.7 C 66 %
422 02-04-2020 22:11:17 8.7 C 67 %
423 02-04-2020 22:21:17 8.7 C 67 %
424 02-04-2020 22:31:18 8.7 C 67 %
425 02-04-2020 22:41:18 8.7 C 67 %
Sensor: Nr:Datum:Temp:Feuchte:
G-T/H 426 02-04-2020 22:51:17 8.7 C 67 %
427 02-04-2020 23:01:17 8.7 C 67 %
428 02-04-2020 23:11:17 8.7 C 67 %
429 02-04-2020 23:21:17 8.7 C 67 %
430 02-04-2020 23:31:18 8.7 C 67 %
431 02-04-2020 23:41:18 8.7 C 67 %
432 02-04-2020 23:51:17 8.7 C 67 %
433 03-04-2020 00:01:18 8.7 C 67 %
434 03-04-2020 00:11:18 8.7 C 67 %
435 03-04-2020 00:21:17 8.7 C 67 %
436 03-04-2020 00:31:17 8.7 C 67 %
437 03-04-2020 00:41:17 8.7 C 67 %
438 03-04-2020 00:51:17 8.7 C 67 %
439 03-04-2020 01:01:18 8.7 C 67 %
440 03-04-2020 01:11:18 8.7 C 67 %
441 03-04-2020 01:21:17 8.7 C 67 %
442 03-04-2020 01:31:18 8.7 C 67 %
443 03-04-2020 01:41:18 8.9 C 67 %
444 03-04-2020 01:51:17 8.7 C 66 %
445 03-04-2020 02:01:18 8.7 C 66 %
446 03-04-2020 02:11:18 8.7 C 66 %
447 03-04-2020 02:21:18 8.7 C 66 %
448 03-04-2020 02:31:18 8.7 C 66 %
449 03-04-2020 02:41:18 8.7 C 66 %
450 03-04-2020 02:51:17 8.7 C 66 %
Sensor: Nr:Datum:Temp:Feuchte:
G-T/H 451 03-04-2020 03:01:18 8.7 C 66 %
452 03-04-2020 03:11:18 8.7 C 66 %
453 03-04-2020 03:21:17 8.7 C 66 %
454 03-04-2020 03:31:17 8.7 C 66 %
455 03-04-2020 03:41:17 8.7 C 67 %
456 03-04-2020 03:51:17 8.7 C 67 %
457 03-04-2020 04:01:17 8.7 C 67 %
458 03-04-2020 04:11:17 8.7 C 67 %
459 03-04-2020 04:21:17 8.7 C 67 %
460 03-04-2020 04:31:18 8.7 C 67 %
461 03-04-2020 04:41:18 8.7 C 67 %
462 03-04-2020 04:51:18 8.7 C 67 %
463 03-04-2020 05:01:18 8.7 C 67 %
464 03-04-2020 05:11:18 8.7 C 67 %
465 03-04-2020 05:21:17 8.7 C 67 %
466 03-04-2020 05:31:17 8.7 C 67 %
467 03-04-2020 05:41:17 8.7 C 67 %
468 03-04-2020 05:51:17 8.7 C 67 %
469 03-04-2020 06:01:18 8.7 C 67 %
470 03-04-2020 06:11:18 8.7 C 67 %
471 03-04-2020 06:21:17 8.7 C 67 %
472 03-04-2020 06:31:17 8.6 C 67 %
473 03-04-2020 06:41:17 8.6 C 67 %
474 03-04-2020 06:51:17 8.7 C 67 %
475 03-04-2020 07:01:17 8.6 C 67 %
Sensor: Nr:Datum:Temp:Feuchte:
G-T/H 476 03-04-2020 07:11:17 8.6 C 67 %
477 03-04-2020 07:21:18 8.6 C 67 %
478 03-04-2020 07:31:17 8.6 C 67 %
479 03-04-2020 07:41:17 8.6 C 67 %
480 03-04-2020 07:51:17 8.6 C 67 %